Wetterdaten: Sonntag, 19.03.2017
Datum Zeit Temp. A. Feuchte A. Luftdruck Regen Wind Richtung Richtung Sonnenschein ET UV Solar Taupunkt Windchill Windben Empfang
19.03.2017 00:00 8,9 C 91 % 1007,6 hPa 0,2 l/m 32,0 km/h (5 Bft) W-SW 244 0 min 0,000 mm 0,0 UV-I 0 W/m 7,5 C -1,3 C 45,1 km/h (6 Bft) 100,00 %
19.03.2017 00:02 8,9 C 91 % 1007,5 hPa 0,0 l/m 20,0 km/h (4 Bft) W-SW 245 0 min 0,000 mm 0,0 UV-I 0 W/m 7,5 C 1,9 C 30,6 km/h (5 Bft) 97,78 %
19.03.2017 00:03 8,9 C 91 % 1007,5 hPa 0,0 l/m 14,2 km/h (3 Bft) SW 232 0 min 0,000 mm 0,0 UV-I 0 W/m 7,5 C 4,2 C 19,3 km/h (3 Bft) 100,00 %
19.03.2017 00:04 8,9 C 91 % 1007,5 hPa 0,0 l/m 22,1 km/h (4 Bft) W-SW 255 0 min 0,000 mm 0,0 UV-I 0 W/m 7,5 C 1,2 C 32,2 km/h (5 Bft) 92,31 %
19.03.2017 00:05 8,9 C 91 % 1007,4 hPa 0,0 l/m 16,9 km/h (3 Bft) W 261 0 min 0,000 mm 0,0 UV-I 0 W/m 7,5 C 3,0 C 24,1 km/h (4 Bft) 96,30 %
19.03.2017 00:06 8,9 C 91 % 1007,5 hPa 0,0 l/m 24,6 km/h (4 Bft) W-SW 258 0 min 0,000 mm 0,0 UV-I 0 W/m 7,5 C 0,5 C 32,2 km/h (5 Bft) 95,00 %
19.03.2017 00:07 8,9 C 91 % 1007,4 hPa 0,0 l/m 23,7 km/h (4 Bft) W 267 0 min 0,000 mm 0,0 UV-I 0 W/m 7,5 C 0,7 C 29,0 km/h (5 Bft) 92,59 %
19.03.2017 00:08 9,0 C 91 % 1007,5 hPa 0,0 l/m 21,7 km/h (4 Bft) W-SW 257 0 min 0,000 mm 0,0 UV-I 0 W/m 7,6 C 1,4 C 29,0 km/h (5 Bft) 100,00 %
19.03.2017 00:09 9,0 C 91 % 1007,5 hPa 0,0 l/m 20,7 km/h (4 Bft) W-SW 246 0 min 0,000 mm 0,0 UV-I 0 W/m 7,6 C 1,8 C 25,7 km/h (4 Bft) 92,59 %
19.03.2017 00:10 9,0 C 91 % 1007,6 hPa 0,0 l/m 22,4 km/h (4 Bft) W-SW 250 0 min 0,000 mm 0,0 UV-I 0 W/m 7,6 C 1,2 C 30,6 km/h (5 Bft) 93,10 %
19.03.2017 00:11 9,1 C 91 % 1007,5 hPa 0,0 l/m 19,6 km/h (3 Bft) SW 228 0 min 0,000 mm 0,0 UV-I 0 W/m 7,7 C 2,3 C 25,7 km/h (4 Bft) 100,00 %
19.03.2017 00:12 9,1 C 90 % 1007,5 hPa 0,0 l/m 21,6 km/h (4 Bft) W 269 0 min 0,000 mm 0,0 UV-I 0 W/m 7,5 C 1,6 C 29,0 km/h (5 Bft) 96,55 %
19.03.2017 00:13 9,1 C 90 % 1007,4 hPa 0,0 l/m 22,0 km/h (4 Bft) W-SW 250 0 min 0,000 mm 0,0 UV-I 0 W/m 7,5 C 1,5 C 30,6 km/h (5 Bft) 96,30 %
19.03.2017 00:14 9,1 C 90 % 1007,4 hPa 0,0 l/m 22,1 km/h (4 Bft) SW 218 0 min 0,000 mm 0,0 UV-I 0 W/m 7,5 C 1,4 C 30,6 km/h (5 Bft) 91,67 %
19.03.2017 00:15 9,1 C 90 % 1007,5 hPa 0,0 l/m 25,1 km/h (4 Bft) W 263 0 min 0,000 mm 0,0 UV-I 0 W/m 7,5 C 0,6 C 33,8 km/h (5 Bft) 96,15 %
19.03.2017 00:16 9,1 C 90 % 1007,5 hPa 0,0 l/m 17,1 km/h (3 Bft) SW 232 0 min 0,000 mm 0,0 UV-I 0 W/m 7,5 C 3,2 C 24,1 km/h (4 Bft) 92,59 %
19.03.2017 00:17 9,1 C 90 % 1007,5 hPa 0,0 l/m 26,5 km/h (4 Bft) SW 217 0 min 0,000 mm 0,0 UV-I 0 W/m 7,5 C 0,2 C 37,0 km/h (5 Bft) 89,66 %
19.03.2017 00:18 9,1 C 90 % 1007,5 hPa 0,0 l/m 24,1 km/h (4 Bft) W-SW 254 0 min 0,000 mm 0,0 UV-I 0 W/m 7,5 C 0,9 C 30,6 km/h (5 Bft) 91,67 %
19.03.2017 00:19 9,2 C 90 % 1007,7 hPa 0,0 l/m 25,8 km/h (4 Bft) W-SW 246 0 min 0,000 mm 0,0 UV-I 0 W/m 7,6 C 0,5 C 40,2 km/h (6 Bft) 96,88 %
19.03.2017 00:20 9,2 C 90 % 1007,7 hPa 0,0 l/m 23,9 km/h (4 Bft) SW 222 0 min 0,000 mm 0,0 UV-I 0 W/m 7,6 C 1,1 C 30,6 km/h (5 Bft) 94,99 %
19.03.2017 00:21 9,2 C 90 % 1007,7 hPa 0,0 l/m 16,6 km/h (3 Bft) W-SW 258 0 min 0,000 mm 0,0 UV-I 0 W/m 7,6 C 3,5 C 22,5 km/h (4 Bft) 95,74 %
19.03.2017 00:22 9,2 C 90 % 1007,8 hPa 0,0 l/m 20,4 km/h (4 Bft) W-SW 258 0 min 0,000 mm 0,0 UV-I 0 W/m 7,6 C 2,1 C 29,0 km/h (5 Bft) 96,30 %
19.03.2017 00:23 9,2 C 90 % 1007,7 hPa 0,0 l/m 24,1 km/h (4 Bft) W-SW 250 0 min 0,000 mm 0,0 UV-I 0 W/m 7,6 C 1,0 C 38,6 km/h (5 Bft) 94,12 %
19.03.2017 00:24 9,2 C 90 % 1007,7 hPa 0,0 l/m 30,8 km/h (5 Bft) W-SW 238 0 min 0,000 mm 0,0 UV-I 0 W/m 7,6 C -0,6 C 38,6 km/h (5 Bft) 92,59 %
19.03.2017 00:25 9,2 C 90 % 1007,7 hPa 0,0 l/m 27,8 km/h (4 Bft) W-SW 258 0 min 0,000 mm 0,0 UV-I 0 W/m 7,6 C 0,0 C 35,4 km/h (5 Bft) 91,30 %
19.03.2017 00:26 9,2 C 90 % 1007,7 hPa 0,0 l/m 29,3 km/h (5 Bft) SW 222 0 min 0,000 mm 0,0 UV-I 0 W/m 7,6 C -0,3 C 40,2 km/h (6 Bft) 92,59 %
19.03.2017 00:27 9,3 C 90 % 1007,7 hPa 0,0 l/m 22,3 km/h (4 Bft) W-SW 257 0 min 0,000 mm 0,0 UV-I 0 W/m 7,7 C 1,7 C 41,8 km/h (6 Bft) 92,86 %
19.03.2017 00:28 9,3 C 90 % 1007,7 hPa 0,0 l/m 20,2 km/h (4 Bft) SW 233 0 min 0,000 mm 0,0 UV-I 0 W/m 7,7 C 2,3 C 27,4 km/h (4 Bft) 100,00 %
19.03.2017 00:29 9,3 C 90 % 1008,0 hPa 0,0 l/m 24,0 km/h (4 Bft) W-SW 239 0 min 0,000 mm 0,0 UV-I 0 W/m 7,7 C 1,2 C 30,6 km/h (5 Bft) 92,31 %
19.03.2017 00:30 9,3 C 90 % 1008,1 hPa 0,0 l/m 20,7 km/h (4 Bft) W-SW 246 0 min 0,000 mm 0,0 UV-I 0 W/m 7,7 C 2,2 C 35,4 km/h (5 Bft) 94,44 %
19.03.2017 00:31 9,3 C 90 % 1008,1 hPa 0,0 l/m 19,9 km/h (4 Bft) W 275 0 min 0,000 mm 0,0 UV-I 0 W/m 7,7 C 2,4 C 25,7 km/h (4 Bft) 96,55 %
19.03.2017 00:32 9,3 C 90 % 1008,2 hPa 0,0 l/m 16,9 km/h (3 Bft) W 271 0 min 0,000 mm 0,0 UV-I 0 W/m 7,7 C 3,5 C 27,4 km/h (4 Bft) 96,00 %
19.03.2017 00:33 9,3 C 90 % 1008,2 hPa 0,0 l/m 15,4 km/h (3 Bft) W 270 0 min 0,000 mm 0,0 UV-I 0 W/m 7,7 C 4,1 C 32,2 km/h (5 Bft) 96,15 %
19.03.2017 00:34 9,2 C 90 % 1008,2 hPa 0,0 l/m 9,2 km/h (2 Bft) W-NW 299 0 min 0,000 mm 0,0 UV-I 0 W/m 7,6 C 7,2 C 17,7 km/h (3 Bft) 95,83 %
19.03.2017 00:35 9,2 C 91 % 1008,4 hPa 0,2 l/m 4,9 km/h (1 Bft) W-NW 288 0 min 0,000 mm 0,0 UV-I 0 W/m 7,8 C 9,2 C 9,7 km/h (2 Bft) 100,00 %
19.03.2017 00:36 9,2 C 91 % 1008,4 hPa 0,2 l/m 12,7 km/h (3 Bft) W-NW 290 0 min 0,000 mm 0,0 UV-I 0 W/m 7,8 C 5,2 C 22,5 km/h (4 Bft) 93,10 %
19.03.2017 00:37 9,0 C 90 % 1008,4 hPa 0,2 l/m 12,1 km/h (2 Bft) NW 315 0 min 0,000 mm 0,0 UV-I 0 W/m 7,4 C 5,3 C 20,9 km/h (4 Bft) 95,83 %
19.03.2017 00:38 8,9 C 90 % 1008,5 hPa 0,2 l/m 16,8 km/h (3 Bft) W-NW 302 0 min 0,000 mm 0,0 UV-I 0 W/m 7,4 C 3,0 C 25,7 km/h (4 Bft) 94,12 %
19.03.2017 00:39 8,7 C 90 % 1008,5 hPa 0,0 l/m 14,9 km/h (3 Bft) W-NW 284 0 min 0,000 mm 0,0 UV-I 0 W/m 7,2 C 3,6 C 20,9 km/h (4 Bft) 100,00 %
19.03.2017 00:40 8,6 C 90 % 1008,7 hPa 0,2 l/m 11,3 km/h (2 Bft) NW 317 0 min 0,000 mm 0,0 UV-I 0 W/m 7,1 C 5,3 C 24,1 km/h (4 Bft) 92,31 %
19.03.2017 00:41 8,5 C 90 % 1008,7 hPa 0,0 l/m 8,0 km/h (2 Bft) W 277 0 min 0,000 mm 0,0 UV-I 0 W/m 7,0 C 7,3 C 16,1 km/h (3 Bft) 100,00 %
19.03.2017 00:42 8,3 C 91 % 1008,7 hPa 0,0 l/m 7,5 km/h (2 Bft) NW 323 0 min 0,000 mm 0,0 UV-I 0 W/m 6,9 C 7,4 C 17,7 km/h (3 Bft) 91,67 %
19.03.2017 00:43 8,2 C 91 % 1008,7 hPa 0,0 l/m 4,4 km/h (1 Bft) NW 320 0 min 0,000 mm 0,0 UV-I 0 W/m 6,8 C 8,2 C 9,7 km/h (2 Bft) 100,00 %
19.03.2017 00:44 8,1 C 91 % 1008,7 hPa 0,0 l/m 9,9 km/h (2 Bft) SW 220 0 min 0,000 mm 0,0 UV-I 0 W/m 6,7 C 5,6 C 17,7 km/h (3 Bft) 96,55 %
19.03.2017 00:45 8,0 C 91 % 1008,8 hPa 0,0 l/m 5,8 km/h (2 Bft) NW 307 0 min 0,000 mm 0,0 UV-I 0 W/m 6,6 C 8,0 C 12,9 km/h (3 Bft) 96,67 %
19.03.2017 00:46 7,9 C 91 % 1008,8 hPa 0,0 l/m 6,3 km/h (2 Bft) W-NW 298 0 min 0,000 mm 0,0 UV-I 0 W/m 6,5 C 7,9 C 17,7 km/h (3 Bft) 90,91 %
19.03.2017 00:47 7,8 C 91 % 1008,9 hPa 0,0 l/m 13,6 km/h (3 Bft) W 265 0 min 0,000 mm 0,0 UV-I 0 W/m 6,4 C 3,1 C 22,5 km/h (4 Bft) 100,00 %
19.03.2017 00:48 7,7 C 91 % 1008,9 hPa 0,0 l/m 8,7 km/h (2 Bft) W-NW 300 0 min 0,000 mm 0,0 UV-I 0 W/m 6,3 C 5,9 C 12,9 km/h (3 Bft) 100,00 %
19.03.2017 00:49 7,6 C 92 % 1008,9 hPa 0,2 l/m 8,0 km/h (2 Bft) W 280 0 min 0,000 mm 0,0 UV-I 0 W/m 6,4 C 6,3 C 14,5 km/h (3 Bft) 96,30 %
19.03.2017 00:50 7,6 C 92 % 1008,9 hPa 0,0 l/m 5,9 km/h (2 Bft) NW 314 0 min 0,000 mm 0,0 UV-I 0 W/m 6,4 C 7,6 C 11,3 km/h (2 Bft) 100,00 %
19.03.2017 00:51 7,4 C 92 % 1008,8 hPa 0,0 l/m 5,4 km/h (1 Bft) W 273 0 min 0,000 mm 0,0 UV-I 0 W/m 6,2 C 7,4 C 16,1 km/h (3 Bft) 94,44 %
19.03.2017 00:52 7,4 C 92 % 1008,9 hPa 0,0 l/m 5,6 km/h (1 Bft) N 350 0 min 0,000 mm 0,0 UV-I 0 W/m 6,2 C 7,4 C 11,3 km/h (2 Bft) 96,15 %
19.03.2017 00:53 7,3 C 92 % 1008,9 hPa 0,0 l/m 5,5 km/h (1 Bft) W 278 0 min 0,000 mm 0,0 UV-I 0 W/m 6,1 C 7,3 C 8,0 km/h (2 Bft) 91,67 %
19.03.2017 00:54 7,3 C 92 % 1008,8 hPa 0,0 l/m 4,7 km/h (1 Bft) N 5 0 min 0,000 mm 0,0 UV-I 0 W/m 6,1 C 7,3 C 14,5 km/h (3 Bft) 96,97 %
19.03.2017 00:55 7,2 C 92 % 1008,9 hPa 0,0 l/m 7,3 km/h (2 Bft) N-NW 327 0 min 0,000 mm 0,0 UV-I 0 W/m 6,0 C 6,5 C 14,5 km/h (3 Bft) 92,31 %
19.03.2017 00:56 7,2 C 93 % 1008,9 hPa 0,0 l/m 7,3 km/h (2 Bft) W 275 0 min 0,000 mm 0,0 UV-I 0 W/m 6,1 C 6,5 C 16,1 km/h (3 Bft) 96,15 %
19.03.2017 00:57 7,1 C 93 % 1009,0 hPa 0,0 l/m 5,8 km/h (2 Bft) W-NW 284 0 min 0,000 mm 0,0 UV-I 0 W/m 6,0 C 7,1 C 9,7 km/h (2 Bft) 93,33 %
19.03.2017 00:58 7,1 C 93 % 1009,0 hPa 0,0 l/m 8,6 km/h (2 Bft) W 275 0 min 0,000 mm 0,0 UV-I 0 W/m 6,0 C 5,4 C 14,5 km/h (3 Bft) 95,46 %
19.03.2017 00:59 7,1 C 93 % 1008,9 hPa 0,2 l/m 8,4 km/h (2 Bft) W-NW 296 0 min 0,000 mm 0,0 UV-I 0 W/m 6,0 C 5,5 C 16,1 km/h (3 Bft) 94,64 %
19.03.2017 01:00 7,1 C 93 % 1008,9 hPa 0,0 l/m 5,7 km/h (1 Bft) W 259 0 min 0,025 mm 0,0 UV-I 0 W/m 6,0 C 7,1 C 11,3 km/h (2 Bft) 100,00 %
19.03.2017 01:02 6,9 C 93 % 1008,8 hPa 0,0 l/m 7,2 km/h (2 Bft) W-NW 284 0 min 0,000 mm 0,0 UV-I 0 W/m 5,8 C 6,2 C 14,5 km/h (3 Bft) 92,00 %
19.03.2017 01:03 6,9 C 94 % 1008,8 hPa 0,0 l/m 3,4 km/h (1 Bft) W-NW 282 0 min 0,000 mm 0,0 UV-I 0 W/m 6,0 C 6,9 C 6,4 km/h (2 Bft) 91,30 %
19.03.2017 01:04 6,9 C 93 % 1008,8 hPa 0,0 l/m 3,0 km/h (1 Bft) W-NW 290 0 min 0,000 mm 0,0 UV-I 0 W/m 5,8 C 6,9 C 4,8 km/h (1 Bft) 100,00 %
19.03.2017 01:05 6,9 C 94 % 1008,8 hPa 0,0 l/m 7,2 km/h (2 Bft) W 270 0 min 0,000 mm 0,0 UV-I 0 W/m 6,0 C 6,2 C 16,1 km/h (3 Bft) 91,30 %
19.03.2017 01:06 6,9 C 94 % 1008,8 hPa 0,0 l/m 4,0 km/h (1 Bft) W-NW 289 0 min 0,000 mm 0,0 UV-I 0 W/m 6,0 C 6,9 C 4,8 km/h (1 Bft) 96,30 %
19.03.2017 01:07 6,9 C 94 % 1008,9 hPa 0,0 l/m 6,2 km/h (2 Bft) W-NW 295 0 min 0,000 mm 0,0 UV-I 0 W/m 6,0 C 6,9 C 11,3 km/h (2 Bft) 100,00 %
19.03.2017 01:08 6,8 C 94 % 1008,9 hPa 0,0 l/m 4,0 km/h (1 Bft) W 263 0 min 0,000 mm 0,0 UV-I 0 W/m 5,9 C 6,8 C 6,4 km/h (2 Bft) 96,30 %
19.03.2017 01:09 6,8 C 94 % 1008,9 hPa 0,0 l/m 7,9 km/h (2 Bft) NW 313 0 min 0,000 mm 0,0 UV-I 0 W/m 5,9 C 5,6 C 14,5 km/h (3 Bft) 95,65 %
19.03.2017 01:10 6,8 C 94 % 1008,9 hPa 0,0 l/m 6,9 km/h (2 Bft) W 281 0 min 0,000 mm 0,0 UV-I 0 W/m 5,9 C 6,4 C 16,1 km/h (3 Bft) 96,43 %
19.03.2017 01:11 6,8 C 94 % 1008,9 hPa 0,0 l/m 6,0 km/h (2 Bft) W 265 0 min 0,000 mm 0,0 UV-I 0 W/m 5,9 C 6,8 C 19,3 km/h (3 Bft) 100,00 %
19.03.2017 01:12 6,8 C 94 % 1009,0 hPa 0,0 l/m 7,8 km/h (2 Bft) W-SW 251 0 min 0,000 mm 0,0 UV-I 0 W/m 5,9 C 5,6 C 12,9 km/h (3 Bft) 92,59 %
19.03.2017 01:13 6,8 C 94 % 1009,0 hPa 0,0 l/m 10,7 km/h (2 Bft) W-NW 282 0 min 0,000 mm 0,0 UV-I 0 W/m 5,9 C 3,6 C 14,5 km/h (3 Bft) 95,65 %
19.03.2017 01:14 6,8 C 94 % 1009,0 hPa 0,0 l/m 11,3 km/h (2 Bft) W-NW 282 0 min 0,000 mm 0,0 UV-I 0 W/m 5,9 C 3,2 C 14,5 km/h (3 Bft) 100,00 %
19.03.2017 01:15 6,8 C 94 % 1009,0 hPa 0,0 l/m 5,2 km/h (1 Bft) W-NW 300 0 min 0,000 mm 0,0 UV-I 0 W/m 5,9 C 6,8 C 16,1 km/h (3 Bft) 95,83 %
19.03.2017 01:16 6,8 C 94 % 1009,0 hPa 0,0 l/m 7,6 km/h (2 Bft) W-SW 257 0 min 0,000 mm 0,0 UV-I 0 W/m 5,9 C 5,8 C 14,5 km/h (3 Bft) 100,00 %
19.03.2017 01:17 6,7 C 94 % 1009,0 hPa 0,0 l/m 6,6 km/h (2 Bft) W-NW 292 0 min 0,000 mm 0,0 UV-I 0 W/m 5,8 C 6,6 C 11,3 km/h (2 Bft) 91,67 %
19.03.2017 01:18 6,7 C 94 % 1009,1 hPa 0,0 l/m 7,6 km/h (2 Bft) NW 309 0 min 0,000 mm 0,0 UV-I 0 W/m 5,8 C 5,7 C 16,1 km/h (3 Bft) 100,00 %
19.03.2017 01:19 6,7 C 94 % 1009,1 hPa 0,0 l/m 5,0 km/h (1 Bft) N-NW 335 0 min 0,000 mm 0,0 UV-I 0 W/m 5,8 C 6,7 C 8,0 km/h (2 Bft) 95,83 %
19.03.2017 01:20 6,7 C 94 % 1009,1 hPa 0,0 l/m 5,8 km/h (2 Bft) W-NW 285 0 min 0,000 mm 0,0 UV-I 0 W/m 5,8 C 6,7 C 11,3 km/h (2 Bft) 91,30 %
19.03.2017 01:21 6,7 C 94 % 1009,1 hPa 0,0 l/m 10,9 km/h (2 Bft) W-SW 240 0 min 0,000 mm 0,0 UV-I 0 W/m 5,8 C 3,4 C 16,1 km/h (3 Bft) 96,67 %
19.03.2017 01:22 6,7 C 94 % 1009,1 hPa 0,0 l/m 7,0 km/h (2 Bft) W 273 0 min 0,000 mm 0,0 UV-I 0 W/m 5,8 C 6,2 C 12,9 km/h (3 Bft) 100,00 %
19.03.2017 01:23 6,6 C 94 % 1009,1 hPa 0,0 l/m 9,9 km/h (2 Bft) N-NW 340 0 min 0,000 mm 0,0 UV-I 0 W/m 5,7 C 3,9 C 16,1 km/h (3 Bft) 96,30 %
19.03.2017 01:24 6,6 C 94 % 1009,3 hPa 0,2 l/m 5,1 km/h (1 Bft) W 274 0 min 0,000 mm 0,0 UV-I 0 W/m 5,7 C 6,6 C 6,4 km/h (2 Bft) 88,46 %
19.03.2017 01:25 6,6 C 94 % 1009,3 hPa 0,0 l/m 6,9 km/h (2 Bft) W-NW 291 0 min 0,000 mm 0,0 UV-I 0 W/m 5,7 C 6,2 C 12,9 km/h (3 Bft) 100,00 %
19.03.2017 01:26 6,6 C 95 % 1009,3 hPa 0,0 l/m 5,9 km/h (2 Bft) W-NW 294 0 min 0,000 mm 0,0 UV-I 0 W/m 5,9 C 6,6 C 11,3 km/h (2 Bft) 96,15 %
19.03.2017 01:27 6,6 C 95 % 1009,4 hPa 0,0 l/m 6,8 km/h (2 Bft) W 270 0 min 0,000 mm 0,0 UV-I 0 W/m 5,9 C 6,3 C 12,9 km/h (3 Bft) 96,30 %
19.03.2017 01:28 6,6 C 95 % 1009,3 hPa 0,0 l/m 8,0 km/h (2 Bft) W 273 0 min 0,000 mm 0,0 UV-I 0 W/m 5,9 C 5,3 C 16,1 km/h (3 Bft) 100,00 %
19.03.2017 01:29 6,6 C 95 % 1009,3 hPa 0,0 l/m 8,4 km/h (2 Bft) W-NW 284 0 min 0,000 mm 0,0 UV-I 0 W/m 5,9 C 5,0 C 12,9 km/h (3 Bft) 100,00 %
19.03.2017 01:30 6,6 C 95 % 1009,4 hPa 0,0 l/m 6,0 km/h (2 Bft) W 259 0 min 0,000 mm 0,0 UV-I 0 W/m 5,9 C 6,6 C 9,7 km/h (2 Bft) 100,00 %
19.03.2017 01:31 6,6 C 95 % 1009,4 hPa 0,0 l/m 7,4 km/h (2 Bft) W 263 0 min 0,000 mm 0,0 UV-I 0 W/m 5,9 C 5,8 C 11,3 km/h (2 Bft) 95,83 %
19.03.2017 01:32 6,6 C 95 % 1009,4 hPa 0,0 l/m 4,8 km/h (1 Bft) W-SW 252 0 min 0,000 mm 0,0 UV-I 0 W/m 5,9 C 6,6 C 6,4 km/h (2 Bft) 100,00 %
19.03.2017 01:33 6,6 C 95 % 1009,3 hPa 0,0 l/m 10,4 km/h (2 Bft) W-NW 284 0 min 0,000 mm 0,0 UV-I 0 W/m 5,9 C 3,6 C 14,5 km/h (3 Bft) 100,00 %
19.03.2017 01:34 6,6 C 95 % 1009,3 hPa 0,0 l/m 9,8 km/h (2 Bft) W 269 0 min 0,000 mm 0,0 UV-I 0 W/m 5,9 C 4,0 C 12,9 km/h (3 Bft) 93,33 %
19.03.2017 01:35 6,6 C 95 % 1009,2 hPa 0,0 l/m 5,1 km/h (1 Bft) W 273 0 min 0,000 mm 0,0 UV-I 0 W/m 5,9 C 6,6 C 9,7 km/h (2 Bft) 96,15 %
19.03.2017 01:36 6,5 C 95 % 1009,2 hPa 0,2 l/m 8,1 km/h (2 Bft) W-NW 292 0 min 0,000 mm 0,0 UV-I 0 W/m 5,8 C 5,1 C 12,9 km/h (3 Bft) 100,00 %
19.03.2017 01:37 6,6 C 95 % 1009,2 hPa 0,0 l/m 7,9 km/h (2 Bft) W 262 0 min 0,000 mm 0,0 UV-I 0 W/m 5,9 C 5,4 C 12,9 km/h (3 Bft) 100,00 %
19.03.2017 01:38 6,5 C 95 % 1009,2 hPa 0,0 l/m 12,5 km/h (3 Bft) W 279 0 min 0,000 mm 0,0 UV-I 0 W/m 5,8 C 2,2 C 16,1 km/h (3 Bft) 92,11 %
19.03.2017 01:39 6,5 C 95 % 1009,1 hPa 0,0 l/m 7,2 km/h (2 Bft) W 273 0 min 0,000 mm 0,0 UV-I 0 W/m 5,8 C 5,8 C 11,3 km/h (2 Bft) 100,00 %
19.03.2017 01:40 6,5 C 95 % 1009,1 hPa 0,0 l/m 8,9 km/h (2 Bft) W 263 0 min 0,000 mm 0,0 UV-I 0 W/m 5,8 C 4,5 C 14,5 km/h (3 Bft) 100,00 %
19.03.2017 01:41 6,5 C 95 % 1009,2 hPa 0,0 l/m 5,4 km/h (1 Bft) W-NW 282 0 min 0,000 mm 0,0 UV-I 0 W/m 5,8 C 6,5 C 11,3 km/h (2 Bft) 96,55 %
19.03.2017 01:42 6,4 C 95 % 1009,2 hPa 0,0 l/m 8,0 km/h (2 Bft) W-SW 257 0 min 0,000 mm 0,0 UV-I 0 W/m 5,7 C 5,1 C 11,3 km/h (2 Bft) 100,00 %
19.03.2017 01:43 6,4 C 95 % 1009,3 hPa 0,0 l/m 8,6 km/h (2 Bft) W 267 0 min 0,000 mm 0,0 UV-I 0 W/m 5,7 C 4,6 C 12,9 km/h (3 Bft) 90,91 %
19.03.2017 01:44 6,4 C 95 % 1009,4 hPa 0,0 l/m 8,0 km/h (2 Bft) W 280 0 min 0,000 mm 0,0 UV-I 0 W/m 5,7 C 5,1 C 11,3 km/h (2 Bft) 100,00 %
19.03.2017 01:45 6,4 C 95 % 1009,5 hPa 0,0 l/m 4,7 km/h (1 Bft) W 262 0 min 0,000 mm 0,0 UV-I 0 W/m 5,7 C 6,4 C 9,7 km/h (2 Bft) 100,00 %
19.03.2017 01:46 6,4 C 95 % 1009,5 hPa 0,2 l/m 4,5 km/h (1 Bft) SW 236 0 min 0,000 mm 0,0 UV-I 0 W/m 5,7 C 6,4 C 9,7 km/h (2 Bft) 100,00 %
19.03.2017 01:47 6,4 C 95 % 1009,6 hPa 0,0 l/m 12,2 km/h (2 Bft) W 265 0 min 0,000 mm 0,0 UV-I 0 W/m 5,7 C 2,3 C 17,7 km/h (3 Bft) 100,00 %
19.03.2017 01:48 6,4 C 95 % 1009,6 hPa 0,0 l/m 7,2 km/h (2 Bft) SW 217 0 min 0,000 mm 0,0 UV-I 0 W/m 5,7 C 5,7 C 12,9 km/h (3 Bft) 96,30 %
19.03.2017 01:49 6,4 C 95 % 1009,6 hPa 0,0 l/m 9,3 km/h (2 Bft) W-NW 283 0 min 0,000 mm 0,0 UV-I 0 W/m 5,7 C 4,1 C 14,5 km/h (3 Bft) 100,00 %
19.03.2017 01:50 6,4 C 95 % 1009,6 hPa 0,0 l/m 9,3 km/h (2 Bft) W-NW 293 0 min 0,000 mm 0,0 UV-I 0 W/m 5,7 C 4,1 C 12,9 km/h (3 Bft) 100,00 %
19.03.2017 01:51 6,4 C 95 % 1009,5 hPa 0,0 l/m 6,6 km/h (2 Bft) W 273 0 min 0,000 mm 0,0 UV-I 0 W/m 5,7 C 6,3 C 11,3 km/h (2 Bft) 100,00 %
19.03.2017 01:52 6,4 C 95 % 1009,6 hPa 0,0 l/m 10,1 km/h (2 Bft) W 268 0 min 0,000 mm 0,0 UV-I 0 W/m 5,7 C 3,6 C 14,5 km/h (3 Bft) 95,83 %
19.03.2017 01:53 6,4 C 95 % 1009,7 hPa 0,0 l/m 9,1 km/h (2 Bft) W 271 0 min 0,000 mm 0,0 UV-I 0 W/m 5,7 C 4,2 C 16,1 km/h (3 Bft) 100,00 %
19.03.2017 01:54 6,4 C 95 % 1009,7 hPa 0,0 l/m 7,8 km/h (2 Bft) W-SW 254 0 min 0,000 mm 0,0 UV-I 0 W/m 5,7 C 5,2 C 11,3 km/h (2 Bft) 100,00 %
19.03.2017 01:55 6,4 C 95 % 1009,6 hPa 0,2 l/m 10,0 km/h (2 Bft) W-SW 251 0 min 0,000 mm 0,0 UV-I 0 W/m 5,7 C 3,6 C 16,1 km/h (3 Bft) 96,30 %
19.03.2017 01:56 6,4 C 95 % 1009,6 hPa 0,0 l/m 10,9 km/h (2 Bft) W 263 0 min 0,000 mm 0,0 UV-I 0 W/m 5,7 C 3,0 C 16,1 km/h (3 Bft) 100,00 %
19.03.2017 01:57 6,4 C 95 % 1009,6 hPa 0,0 l/m 7,5 km/h (2 Bft) W 270 0 min 0,000 mm 0,0 UV-I 0 W/m 5,7 C 5,5 C 11,3 km/h (2 Bft) 100,00 %
19.03.2017 01:58 6,4 C 95 % 1009,6 hPa 0,0 l/m 11,7 km/h (2 Bft) W-SW 249 0 min 0,000 mm 0,0 UV-I 0 W/m 5,7 C 2,5 C 14,5 km/h (3 Bft) 100,00 %
19.03.2017 01:59 6,4 C 95 % 1009,6 hPa 0,0 l/m 9,5 km/h (2 Bft) W-SW 247 0 min 0,000 mm 0,0 UV-I 0 W/m 5,7 C 4,0 C 12,9 km/h (3 Bft) 93,33 %
19.03.2017 02:00 6,4 C 95 % 1009,5 hPa 0,0 l/m 10,5 km/h (2 Bft) W-SW 250 0 min 0,000 mm 0,0 UV-I 0 W/m 5,7 C 3,3 C 12,9 km/h (3 Bft) 100,00 %
19.03.2017 02:01 6,4 C 95 % 1009,5 hPa 0,0 l/m 13,6 km/h (3 Bft) W 268 0 min 0,000 mm 0,0 UV-I 0 W/m 5,7 C 1,5 C 17,7 km/h (3 Bft) 92,59 %
19.03.2017 02:02 6,4 C 95 % 1009,5 hPa 0,0 l/m 9,3 km/h (2 Bft) W 265 0 min 0,000 mm 0,0 UV-I 0 W/m 5,7 C 4,1 C 11,3 km/h (2 Bft) 100,00 %
19.03.2017 02:03 6,4 C 95 % 1009,5 hPa 0,0 l/m 7,0 km/h (2 Bft) W-NW 284 0 min 0,000 mm 0,0 UV-I 0 W/m 5,7 C 5,9 C 9,7 km/h (2 Bft) 100,00 %
19.03.2017 02:04 6,4 C 95 % 1009,5 hPa 0,0 l/m 10,7 km/h (2 Bft) W 264 0 min 0,000 mm 0,0 UV-I 0 W/m 5,7 C 3,2 C 14,5 km/h (3 Bft) 94,12 %
19.03.2017 02:05 6,4 C 95 % 1009,6 hPa 0,2 l/m 7,5 km/h (2 Bft) W 261 0 min 0,000 mm 0,0 UV-I 0 W/m 5,7 C 5,5 C 11,3 km/h (2 Bft) 100,00 %
19.03.2017 02:06 6,4 C 95 % 1009,6 hPa 0,0 l/m 8,6 km/h (2 Bft) W 259 0 min 0,000 mm 0,0 UV-I 0 W/m 5,7 C 4,6 C 12,9 km/h (3 Bft) 100,00 %
19.03.2017 02:07 6,4 C 95 % 1009,5 hPa 0,0 l/m 7,9 km/h (2 Bft) W-SW 248 0 min 0,000 mm 0,0 UV-I 0 W/m 5,7 C 5,2 C 11,3 km/h (2 Bft) 96,67 %
19.03.2017 02:08 6,4 C 96 % 1009,5 hPa 0,0 l/m 8,3 km/h (2 Bft) W-SW 254 0 min 0,000 mm 0,0 UV-I 0 W/m 5,8 C 4,8 C 12,9 km/h (3 Bft) 100,00 %
19.03.2017 02:09 6,4 C 96 % 1009,5 hPa 0,0 l/m 7,8 km/h (2 Bft) W 259 0 min 0,000 mm 0,0 UV-I 0 W/m 5,8 C 5,2 C 12,9 km/h (3 Bft) 100,00 %
19.03.2017 02:10 6,4 C 96 % 1009,4 hPa 0,0 l/m 10,3 km/h (2 Bft) W-SW 250 0 min 0,000 mm 0,0 UV-I 0 W/m 5,8 C 3,4 C 14,5 km/h (3 Bft) 100,00 %
19.03.2017 02:11 6,4 C 96 % 1009,4 hPa 0,0 l/m 11,3 km/h (2 Bft) W-SW 250 0 min 0,000 mm 0,0 UV-I 0 W/m 5,8 C 2,8 C 14,5 km/h (3 Bft) 91,67 %
19.03.2017 02:12 6,4 C 96 % 1009,4 hPa 0,0 l/m 10,2 km/h (2 Bft) W-SW 250 0 min 0,000 mm 0,0 UV-I 0 W/m 5,8 C 3,5 C 12,9 km/h (3 Bft) 100,00 %
19.03.2017 02:13 6,4 C 95 % 1009,4 hPa 0,2 l/m 10,5 km/h (2 Bft) W-SW 249 0 min 0,000 mm 0,0 UV-I 0 W/m 5,7 C 3,3 C 14,5 km/h (3 Bft) 100,00 %
19.03.2017 02:14 6,4 C 95 % 1009,4 hPa 0,0 l/m 8,4 km/h (2 Bft) W 262 0 min 0,000 mm 0,0 UV-I 0 W/m 5,7 C 4,8 C 12,9 km/h (3 Bft) 96,30 %
19.03.2017 02:15 6,4 C 95 % 1009,4 hPa 0,0 l/m 6,7 km/h (2 Bft) W-SW 252 0 min 0,000 mm 0,0 UV-I 0 W/m 5,7 C 6,2 C 9,7 km/h (2 Bft) 100,00 %
19.03.2017 02:16 6,4 C 95 % 1009,4 hPa 0,0 l/m 8,9 km/h (2 Bft) W-SW 238 0 min 0,000 mm 0,0 UV-I 0 W/m 5,7 C 4,4 C 12,9 km/h (3 Bft) 92,59 %
19.03.2017 02:17 6,4 C 96 % 1009,4 hPa 0,0 l/m 8,7 km/h (2 Bft) W 262 0 min 0,000 mm 0,0 UV-I 0 W/m 5,8 C 4,5 C 14,5 km/h (3 Bft) 96,15 %
19.03.2017 02:18 6,4 C 96 % 1009,5 hPa 0,0 l/m 12,0 km/h (2 Bft) SW 215 0 min 0,000 mm 0,0 UV-I 0 W/m 5,8 C 2,4 C 16,1 km/h (3 Bft) 100,00 %
19.03.2017 02:19 6,4 C 96 % 1009,5 hPa 0,0 l/m 10,4 km/h (2 Bft) W 259 0 min 0,000 mm 0,0 UV-I 0 W/m 5,8 C 3,4 C 12,9 km/h (3 Bft) 100,00 %
19.03.2017 02:20 6,4 C 96 % 1009,5 hPa 0,0 l/m 8,2 km/h (2 Bft) W 259 0 min 0,000 mm 0,0 UV-I 0 W/m 5,8 C 4,9 C 12,9 km/h (3 Bft) 95,83 %
19.03.2017 02:21 6,4 C 96 % 1009,5 hPa 0,0 l/m 9,9 km/h (2 Bft) W 261 0 min 0,000 mm 0,0 UV-I 0 W/m 5,8 C 3,7 C 12,9 km/h (3 Bft) 100,00 %
19.03.2017 02:22 6,4 C 96 % 1009,5 hPa 0,0 l/m 6,0 km/h (2 Bft) W-SW 249 0 min 0,000 mm 0,0 UV-I 0 W/m 5,8 C 6,4 C 9,7 km/h (2 Bft) 100,00 %
19.03.2017 02:23 6,4 C 96 % 1009,4 hPa 0,0 l/m 9,4 km/h (2 Bft) SW 222 0 min 0,000 mm 0,0 UV-I 0 W/m 5,8 C 4,0 C 14,5 km/h (3 Bft) 85,71 %
19.03.2017 02:24 6,4 C 96 % 1009,4 hPa 0,0 l/m 4,5 km/h (1 Bft) W 281 0 min 0,000 mm 0,0 UV-I 0 W/m 5,8 C 6,4 C 6,4 km/h (2 Bft) 100,00 %
19.03.2017 02:25 6,4 C 96 % 1009,4 hPa 0,0 l/m 10,1 km/h (2 Bft) W 267 0 min 0,000 mm 0,0 UV-I 0 W/m 5,8 C 3,6 C 12,9 km/h (3 Bft) 100,00 %
19.03.2017 02:26 6,4 C 96 % 1009,4 hPa 0,0 l/m 7,4 km/h (2 Bft) W-SW 248 0 min 0,000 mm 0,0 UV-I 0 W/m 5,8 C 5,6 C 11,3 km/h (2 Bft) 93,33 %
19.03.2017 02:27 6,4 C 96 % 1009,4 hPa 0,0 l/m 6,9 km/h (2 Bft) W-SW 254 0 min 0,000 mm 0,0 UV-I 0 W/m 5,8 C 6,0 C 9,7 km/h (2 Bft) 95,65 %
19.03.2017 02:28 6,4 C 96 % 1009,4 hPa 0,0 l/m 8,2 km/h (2 Bft) W-SW 241 0 min 0,000 mm 0,0 UV-I 0 W/m 5,8 C 4,9 C 11,3 km/h (2 Bft) 100,00 %
19.03.2017 02:29 6,4 C 96 % 1009,4 hPa 0,0 l/m 10,9 km/h (2 Bft) W-SW 252 0 min 0,000 mm 0,0 UV-I 0 W/m 5,8 C 3,0 C 14,5 km/h (3 Bft) 96,15 %
19.03.2017 02:30 6,4 C 96 % 1009,4 hPa 0,0 l/m 9,7 km/h (2 Bft) W-SW 251 0 min 0,000 mm 0,0 UV-I 0 W/m 5,8 C 3,8 C 12,9 km/h (3 Bft) 92,59 %
19.03.2017 02:31 6,4 C 96 % 1009,4 hPa 0,0 l/m 13,4 km/h (3 Bft) W-SW 248 0 min 0,000 mm 0,0 UV-I 0 W/m 5,8 C 1,6 C 19,3 km/h (3 Bft) 100,00 %
19.03.2017 02:32 6,4 C 96 % 1009,4 hPa 0,0 l/m 12,0 km/h (2 Bft) W 273 0 min 0,000 mm 0,0 UV-I 0 W/m 5,8 C 2,4 C 17,7 km/h (3 Bft) 95,83 %
19.03.2017 02:33 6,4 C 96 % 1009,5 hPa 0,0 l/m 11,6 km/h (2 Bft) W-SW 251 0 min 0,000 mm 0,0 UV-I 0 W/m 5,8 C 2,6 C 16,1 km/h (3 Bft) 95,65 %
19.03.2017 02:34 6,4 C 96 % 1009,5 hPa 0,0 l/m 9,4 km/h (2 Bft) W 261 0 min 0,000 mm 0,0 UV-I 0 W/m 5,8 C 4,0 C 12,9 km/h (3 Bft) 100,00 %
19.03.2017 02:35 6,4 C 96 % 1009,5 hPa 0,0 l/m 7,0 km/h (2 Bft) W-SW 256 0 min 0,000 mm 0,0 UV-I 0 W/m 5,8 C 5,9 C 11,3 km/h (2 Bft) 93,10 %
19.03.2017 02:36 6,4 C 96 % 1009,5 hPa 0,0 l/m 5,8 km/h (2 Bft) W 264 0 min 0,000 mm 0,0 UV-I 0 W/m 5,8 C 6,4 C 9,7 km/h (2 Bft) 100,00 %
19.03.2017 02:37 6,4 C 96 % 1009,5 hPa 0,0 l/m 7,7 km/h (2 Bft) W-SW 248 0 min 0,000 mm 0,0 UV-I 0 W/m 5,8 C 5,3 C 11,3 km/h (2 Bft) 100,00 %
19.03.2017 02:38 6,4 C 96 % 1009,4 hPa 0,0 l/m 6,2 km/h (2 Bft) W-SW 257 0 min 0,000 mm 0,0 UV-I 0 W/m 5,8 C 6,4 C 12,9 km/h (3 Bft) 96,15 %
19.03.2017 02:39 6,4 C 96 % 1009,3 hPa 0,0 l/m 7,3 km/h (2 Bft) W-SW 244 0 min 0,000 mm 0,0 UV-I 0 W/m 5,8 C 5,6 C 11,3 km/h (2 Bft) 100,00 %
19.03.2017 02:40 6,4 C 96 % 1009,4 hPa 0,0 l/m 9,0 km/h (2 Bft) W-SW 248 0 min 0,000 mm 0,0 UV-I 0 W/m 5,8 C 4,3 C 11,3 km/h (2 Bft) 96,55 %
19.03.2017 02:41 6,4 C 96 % 1009,4 hPa 0,0 l/m 5,0 km/h (1 Bft) SW 229 0 min 0,000 mm 0,0 UV-I 0 W/m 5,8 C 6,4 C 6,4 km/h (2 Bft) 100,00 %
19.03.2017 02:42 6,4 C 96 % 1009,3 hPa 0,0 l/m 8,4 km/h (2 Bft) W 260 0 min 0,000 mm 0,0 UV-I 0 W/m 5,8 C 4,8 C 12,9 km/h (3 Bft) 96,15 %
19.03.2017 02:43 6,4 C 96 % 1009,4 hPa 0,0 l/m 7,3 km/h (2 Bft) W-SW 252 0 min 0,000 mm 0,0 UV-I 0 W/m 5,8 C 5,6 C 9,7 km/h (2 Bft) 100,00 %
19.03.2017 02:44 6,4 C 96 % 1009,4 hPa 0,0 l/m 7,0 km/h (2 Bft) W 264 0 min 0,000 mm 0,0 UV-I 0 W/m 5,8 C 5,9 C 9,7 km/h (2 Bft) 100,00 %
19.03.2017 02:45 6,4 C 96 % 1009,4 hPa 0,0 l/m 9,6 km/h (2 Bft) SW 235 0 min 0,000 mm 0,0 UV-I 0 W/m 5,8 C 3,9 C 12,9 km/h (3 Bft) 93,33 %
19.03.2017 02:46 6,4 C 96 % 1009,3 hPa 0,0 l/m 8,0 km/h (2 Bft) W-SW 240 0 min 0,000 mm 0,0 UV-I 0 W/m 5,8 C 5,1 C 11,3 km/h (2 Bft) 96,55 %
19.03.2017 02:47 6,4 C 96 % 1009,2 hPa 0,0 l/m 6,4 km/h (2 Bft) W 263 0 min 0,000 mm 0,0 UV-I 0 W/m 5,8 C 6,4 C 11,3 km/h (2 Bft) 100,00 %
19.03.2017 02:48 6,4 C 96 % 1009,3 hPa 0,0 l/m 5,2 km/h (1 Bft) SW 228 0 min 0,000 mm 0,0 UV-I 0 W/m 5,8 C 6,4 C 6,4 km/h (2 Bft) 91,30 %
19.03.2017 02:49 6,4 C 96 % 1009,3 hPa 0,0 l/m 5,5 km/h (1 Bft) W-SW 250 0 min 0,000 mm 0,0 UV-I 0 W/m 5,8 C 6,4 C 6,4 km/h (2 Bft) 96,30 %
19.03.2017 02:50 6,4 C 96 % 1009,3 hPa 0,0 l/m 6,7 km/h (2 Bft) W-SW 255 0 min 0,000 mm 0,0 UV-I 0 W/m 5,8 C 6,2 C 11,3 km/h (2 Bft) 100,00 %
19.03.2017 02:51 6,4 C 96 % 1009,4 hPa 0,0 l/m 9,8 km/h (2 Bft) W-SW 257 0 min 0,000 mm 0,0 UV-I 0 W/m 5,8 C 3,8 C 12,9 km/h (3 Bft) 100,00 %
19.03.2017 02:52 6,4 C 96 % 1009,5 hPa 0,0 l/m 11,7 km/h (2 Bft) W 263 0 min 0,000 mm 0,0 UV-I 0 W/m 5,8 C 2,5 C 19,3 km/h (3 Bft) 96,15 %
19.03.2017 02:53 6,4 C 96 % 1009,4 hPa 0,0 l/m 11,3 km/h (2 Bft) W 261 0 min 0,000 mm 0,0 UV-I 0 W/m 5,8 C 2,8 C 14,5 km/h (3 Bft) 100,00 %
19.03.2017 02:54 6,4 C 96 % 1009,5 hPa 0,0 l/m 9,8 km/h (2 Bft) W-SW 243 0 min 0,000 mm 0,0 UV-I 0 W/m 5,8 C 3,8 C 12,9 km/h (3 Bft) 93,33 %
19.03.2017 02:55 6,4 C 96 % 1009,5 hPa 0,0 l/m 9,9 km/h (2 Bft) W 268 0 min 0,000 mm 0,0 UV-I 0 W/m 5,8 C 3,7 C 14,5 km/h (3 Bft) 100,00 %
19.03.2017 02:56 6,4 C 96 % 1009,4 hPa 0,0 l/m 12,6 km/h (3 Bft) W-SW 244 0 min 0,000 mm 0,0 UV-I 0 W/m 5,8 C 2,0 C 14,5 km/h (3 Bft) 100,00 %
19.03.2017 02:57 6,4 C 96 % 1009,5 hPa 0,0 l/m 8,9 km/h (2 Bft) SW 234 0 min 0,000 mm 0,0 UV-I 0 W/m 5,8 C 4,4 C 12,9 km/h (3 Bft) 96,55 %
19.03.2017 02:58 6,4 C 96 % 1009,5 hPa 0,0 l/m 7,0 km/h (2 Bft) W 262 0 min 0,000 mm 0,0 UV-I 0 W/m 5,8 C 5,9 C 9,7 km/h (2 Bft) 100,00 %
19.03.2017 02:59 6,4 C 96 % 1009,4 hPa 0,2 l/m 7,2 km/h (2 Bft) W-SW 253 0 min 0,000 mm 0,0 UV-I 0 W/m 5,8 C 5,7 C 9,7 km/h (2 Bft) 95,65 %
19.03.2017 03:00 6,4 C 96 % 1009,4 hPa 0,0 l/m 8,1 km/h (2 Bft) W-SW 248 0 min 0,000 mm 0,0 UV-I 0 W/m 5,8 C 5,0 C 11,3 km/h (2 Bft) 91,67 %
19.03.2017 03:01 6,4 C 96 % 1009,4 hPa 0,0 l/m 11,0 km/h (2 Bft) W-NW 286 0 min 0,000 mm 0,0 UV-I 0 W/m 5,8 C 3,0 C 16,1 km/h (3 Bft) 95,65 %
19.03.2017 03:02 6,4 C 96 % 1009,4 hPa 0,0 l/m 7,5 km/h (2 Bft) W-SW 246 0 min 0,000 mm 0,0 UV-I 0 W/m 5,8 C 5,5 C 9,7 km/h (2 Bft) 100,00 %
19.03.2017 03:03 6,4 C 96 % 1009,4 hPa 0,0 l/m 5,8 km/h (2 Bft) W 273 0 min 0,000 mm 0,0 UV-I 0 W/m 5,8 C 6,4 C 9,7 km/h (2 Bft) 94,12 %
19.03.2017 03:04 6,4 C 96 % 1009,4 hPa 0,0 l/m 10,9 km/h (2 Bft) W-SW 245 0 min 0,000 mm 0,0 UV-I 0 W/m 5,8 C 3,0 C 14,5 km/h (3 Bft) 96,30 %
19.03.2017 03:05 6,4 C 96 % 1009,4 hPa 0,0 l/m 12,0 km/h (2 Bft) W-SW 247 0 min 0,000 mm 0,0 UV-I 0 W/m 5,8 C 2,4 C 14,5 km/h (3 Bft) 96,15 %
19.03.2017 03:06 6,4 C 96 % 1009,4 hPa 0,0 l/m 8,5 km/h (2 Bft) W 277 0 min 0,000 mm 0,0 UV-I 0 W/m 5,8 C 4,7 C 11,3 km/h (2 Bft) 100,00 %
19.03.2017 03:07 6,4 C 96 % 1009,4 hPa 0,0 l/m 6,4 km/h (2 Bft) SW 232 0 min 0,000 mm 0,0 UV-I 0 W/m 5,8 C 6,4 C 9,7 km/h (2 Bft) 92,31 %
19.03.2017 03:08 6,4 C 96 % 1009,4 hPa 0,0 l/m 10,5 km/h (2 Bft) W-SW 238 0 min 0,000 mm 0,0 UV-I 0 W/m 5,8 C 3,3 C 14,5 km/h (3 Bft) 96,30 %
19.03.2017 03:09 6,4 C 96 % 1009,5 hPa 0,0 l/m 12,4 km/h (3 Bft) W-SW 256 0 min 0,000 mm 0,0 UV-I 0 W/m 5,8 C 2,1 C 14,5 km/h (3 Bft) 100,00 %
19.03.2017 03:10 6,4 C 96 % 1009,6 hPa 0,0 l/m 7,4 km/h (2 Bft) W 264 0 min 0,000 mm 0,0 UV-I 0 W/m 5,8 C 5,6 C 11,3 km/h (2 Bft) 96,15 %
19.03.2017 03:11 6,4 C 96 % 1009,7 hPa 0,0 l/m 6,7 km/h (2 Bft) W-NW 284 0 min 0,000 mm 0,0 UV-I 0 W/m 5,8 C 6,2 C 11,3 km/h (2 Bft) 100,00 %
19.03.2017 03:12 6,4 C 96 % 1009,6 hPa 0,0 l/m 7,6 km/h (2 Bft) W 271 0 min 0,000 mm 0,0 UV-I 0 W/m 5,8 C 5,4 C 12,9 km/h (3 Bft) 97,56 %
19.03.2017 03:13 6,4 C 96 % 1009,6 hPa 0,0 l/m 11,9 km/h (2 Bft) W 259 0 min 0,000 mm 0,0 UV-I 0 W/m 5,8 C 2,4 C 14,5 km/h (3 Bft) 100,00 %
19.03.2017 03:14 6,4 C 96 % 1009,7 hPa 0,0 l/m 6,2 km/h (2 Bft) W 259 0 min 0,000 mm 0,0 UV-I 0 W/m 5,8 C 6,4 C 11,3 km/h (2 Bft) 96,15 %
19.03.2017 03:15 6,4 C 96 % 1009,6 hPa 0,0 l/m 6,7 km/h (2 Bft) W 273 0 min 0,000 mm 0,0 UV-I 0 W/m 5,8 C 6,2 C 11,3 km/h (2 Bft) 95,83 %
19.03.2017 03:16 6,4 C 96 % 1009,6 hPa 0,0 l/m 9,8 km/h (2 Bft) W-SW 244 0 min 0,000 mm 0,0 UV-I 0 W/m 5,8 C 3,8 C 14,5 km/h (3 Bft) 91,30 %
19.03.2017 03:17 6,4 C 96 % 1009,6 hPa 0,0 l/m 11,1 km/h (2 Bft) W 263 0 min 0,000 mm 0,0 UV-I 0 W/m 5,8 C 2,9 C 14,5 km/h (3 Bft) 96,67 %
19.03.2017 03:18 6,4 C 96 % 1009,6 hPa 0,0 l/m 12,0 km/h (2 Bft) W-SW 241 0 min 0,000 mm 0,0 UV-I 0 W/m 5,8 C 2,4 C 14,5 km/h (3 Bft) 96,70 %
19.03.2017 03:19 6,4 C 96 % 1009,7 hPa 0,0 l/m 7,7 km/h (2 Bft) W-SW 255 0 min 0,000 mm 0,0 UV-I 0 W/m 5,8 C 5,3 C 11,3 km/h (2 Bft) 95,74 %
19.03.2017 03:20 6,4 C 96 % 1009,7 hPa 0,0 l/m 7,0 km/h (2 Bft) W-SW 250 0 min 0,000 mm 0,0 UV-I 0 W/m 5,8 C 5,9 C 11,3 km/h (2 Bft) 100,00 %
19.03.2017 03:21 6,4 C 96 % 1009,7 hPa 0,0 l/m 8,4 km/h (2 Bft) W-SW 250 0 min 0,000 mm 0,0 UV-I 0 W/m 5,8 C 4,8 C 12,9 km/h (3 Bft) 96,30 %
19.03.2017 03:22 6,4 C 96 % 1009,8 hPa 0,0 l/m 7,1 km/h (2 Bft) W-SW 250 0 min 0,000 mm 0,0 UV-I 0 W/m 5,8 C 5,8 C 11,3 km/h (2 Bft) 95,65 %
19.03.2017 03:23 6,4 C 96 % 1009,8 hPa 0,0 l/m 12,0 km/h (2 Bft) W 270 0 min 0,000 mm 0,0 UV-I 0 W/m 5,8 C 2,4 C 14,5 km/h (3 Bft) 100,00 %
19.03.2017 03:24 6,4 C 96 % 1009,8 hPa 0,0 l/m 9,2 km/h (2 Bft) W 266 0 min 0,000 mm 0,0 UV-I 0 W/m 5,8 C 4,2 C 14,5 km/h (3 Bft) 96,55 %
19.03.2017 03:25 6,4 C 96 % 1009,8 hPa 0,0 l/m 8,6 km/h (2 Bft) W-SW 250 0 min 0,000 mm 0,0 UV-I 0 W/m 5,8 C 4,6 C 12,9 km/h (3 Bft) 100,00 %
19.03.2017 03:26 6,4 C 96 % 1009,8 hPa 0,2 l/m 12,2 km/h (2 Bft) W-SW 239 0 min 0,000 mm 0,0 UV-I 0 W/m 5,8 C 2,3 C 17,7 km/h (3 Bft) 85,71 %
19.03.2017 03:27 6,4 C 96 % 1009,8 hPa 0,0 l/m 8,0 km/h (2 Bft) SW 236 0 min 0,000 mm 0,0 UV-I 0 W/m 5,8 C 5,1 C 11,3 km/h (2 Bft) 100,00 %
19.03.2017 03:28 6,4 C 96 % 1009,8 hPa 0,0 l/m 10,6 km/h (2 Bft) W-SW 241 0 min 0,000 mm 0,0 UV-I 0 W/m 5,8 C 3,2 C 14,5 km/h (3 Bft) 91,30 %
19.03.2017 03:29 6,4 C 96 % 1009,8 hPa 0,0 l/m 11,1 km/h (2 Bft) W-SW 238 0 min 0,000 mm 0,0 UV-I 0 W/m 5,8 C 2,9 C 16,1 km/h (3 Bft) 100,00 %
19.03.2017 03:30 6,4 C 96 % 1009,7 hPa 0,0 l/m 7,2 km/h (2 Bft) W-SW 250 0 min 0,000 mm 0,0 UV-I 0 W/m 5,8 C 5,7 C 12,9 km/h (3 Bft) 96,15 %
19.03.2017 03:31 6,4 C 96 % 1009,7 hPa 0,0 l/m 6,3 km/h (2 Bft) SW 234 0 min 0,000 mm 0,0 UV-I 0 W/m 5,8 C 6,4 C 9,7 km/h (2 Bft) 100,00 %
19.03.2017 03:32 6,4 C 96 % 1009,7 hPa 0,0 l/m 9,0 km/h (2 Bft) NW 323 0 min 0,000 mm 0,0 UV-I 0 W/m 5,8 C 4,3 C 12,9 km/h (3 Bft) 95,65 %
19.03.2017 03:33 6,4 C 96 % 1009,7 hPa 0,0 l/m 8,9 km/h (2 Bft) W 260 0 min 0,000 mm 0,0 UV-I 0 W/m 5,8 C 4,4 C 12,9 km/h (3 Bft) 100,00 %
19.03.2017 03:34 6,4 C 96 % 1009,7 hPa 0,0 l/m 6,1 km/h (2 Bft) W-SW 253 0 min 0,000 mm 0,0 UV-I 0 W/m 5,8 C 6,4 C 11,3 km/h (2 Bft) 100,00 %
19.03.2017 03:35 6,4 C 96 % 1009,7 hPa 0,0 l/m 6,4 km/h (2 Bft) W 259 0 min 0,000 mm 0,0 UV-I 0 W/m 5,8 C 6,4 C 8,0 km/h (2 Bft) 100,00 %
19.03.2017 03:36 6,4 C 96 % 1009,7 hPa 0,0 l/m 10,0 km/h (2 Bft) W 272 0 min 0,000 mm 0,0 UV-I 0 W/m 5,8 C 3,6 C 16,1 km/h (3 Bft) 96,30 %
19.03.2017 03:37 6,4 C 96 % 1009,7 hPa 0,0 l/m 7,5 km/h (2 Bft) SW 223 0 min 0,000 mm 0,0 UV-I 0 W/m 5,8 C 5,5 C 14,5 km/h (3 Bft) 91,30 %
19.03.2017 03:38 6,4 C 96 % 1009,7 hPa 0,0 l/m 10,6 km/h (2 Bft) W-NW 283 0 min 0,000 mm 0,0 UV-I 0 W/m 5,8 C 3,2 C 14,5 km/h (3 Bft) 100,00 %
19.03.2017 03:39 6,4 C 96 % 1009,7 hPa 0,0 l/m 8,4 km/h (2 Bft) W-SW 248 0 min 0,000 mm 0,0 UV-I 0 W/m 5,8 C 4,8 C 12,9 km/h (3 Bft) 86,96 %
19.03.2017 03:40 6,4 C 96 % 1009,7 hPa 0,0 l/m 8,2 km/h (2 Bft) SW 217 0 min 0,000 mm 0,0 UV-I 0 W/m 5,8 C 4,9 C 11,3 km/h (2 Bft) 100,00 %
19.03.2017 03:41 6,4 C 96 % 1009,7 hPa 0,0 l/m 8,6 km/h (2 Bft) W-SW 252 0 min 0,000 mm 0,0 UV-I 0 W/m 5,8 C 4,6 C 11,3 km/h (2 Bft) 96,15 %
19.03.2017 03:42 6,4 C 96 % 1009,7 hPa 0,0 l/m 8,0 km/h (2 Bft) SW 235 0 min 0,000 mm 0,0 UV-I 0 W/m 5,8 C 5,1 C 11,3 km/h (2 Bft) 96,30 %
19.03.2017 03:43 6,4 C 96 % 1009,8 hPa 0,0 l/m 6,8 km/h (2 Bft) W-SW 250 0 min 0,000 mm 0,0 UV-I 0 W/m 5,8 C 6,1 C 8,0 km/h (2 Bft) 92,86 %
19.03.2017 03:44 6,4 C 96 % 1009,8 hPa 0,0 l/m 8,1 km/h (2 Bft) W-SW 251 0 min 0,000 mm 0,0 UV-I 0 W/m 5,8 C 5,0 C 11,3 km/h (2 Bft) 100,00 %
19.03.2017 03:45 6,4 C 97 % 1009,8 hPa 0,0 l/m 10,8 km/h (2 Bft) W 276 0 min 0,000 mm 0,0 UV-I 0 W/m 6,0 C 3,1 C 16,1 km/h (3 Bft) 91,67 %
19.03.2017 03:46 6,4 C 97 % 1009,8 hPa 0,0 l/m 12,5 km/h (3 Bft) W-SW 252 0 min 0,000 mm 0,0 UV-I 0 W/m 6,0 C 2,1 C 17,7 km/h (3 Bft) 95,12 %
19.03.2017 03:47 6,4 C 97 % 1009,8 hPa 0,0 l/m 12,1 km/h (2 Bft) W 266 0 min 0,000 mm 0,0 UV-I 0 W/m 6,0 C 2,3 C 16,1 km/h (3 Bft) 100,00 %
19.03.2017 03:48 6,4 C 97 % 1009,8 hPa 0,2 l/m 9,1 km/h (2 Bft) W-NW 290 0 min 0,000 mm 0,0 UV-I 0 W/m 6,0 C 4,2 C 11,3 km/h (2 Bft) 96,97 %
19.03.2017 03:49 6,4 C 97 % 1009,8 hPa 0,0 l/m 10,4 km/h (2 Bft) W-SW 258 0 min 0,000 mm 0,0 UV-I 0 W/m 6,0 C 3,4 C 14,5 km/h (3 Bft) 95,65 %
19.03.2017 03:50 6,4 C 97 % 1009,8 hPa 0,0 l/m 9,4 km/h (2 Bft) W 267 0 min 0,000 mm 0,0 UV-I 0 W/m 6,0 C 4,0 C 12,9 km/h (3 Bft) 96,30 %
19.03.2017 03:51 6,4 C 97 % 1009,8 hPa 0,0 l/m 7,2 km/h (2 Bft) W 279 0 min 0,000 mm 0,0 UV-I 0 W/m 6,0 C 5,7 C 11,3 km/h (2 Bft) 100,00 %
19.03.2017 03:52 6,4 C 97 % 1009,8 hPa 0,0 l/m 7,5 km/h (2 Bft) W 281 0 min 0,000 mm 0,0 UV-I 0 W/m 6,0 C 5,5 C 11,3 km/h (2 Bft) 96,55 %
19.03.2017 03:53 6,4 C 97 % 1009,8 hPa 0,0 l/m 10,2 km/h (2 Bft) W 268 0 min 0,000 mm 0,0 UV-I 0 W/m 6,0 C 3,5 C 14,5 km/h (3 Bft) 96,15 %
19.03.2017 03:54 6,4 C 97 % 1009,8 hPa 0,0 l/m 8,1 km/h (2 Bft) W 277 0 min 0,000 mm 0,0 UV-I 0 W/m 6,0 C 5,0 C 12,9 km/h (3 Bft) 95,83 %
19.03.2017 03:55 6,4 C 97 % 1009,9 hPa 0,0 l/m 7,7 km/h (2 Bft) SW 229 0 min 0,000 mm 0,0 UV-I 0 W/m 6,0 C 5,3 C 11,3 km/h (2 Bft) 92,31 %
19.03.2017 03:56 6,4 C 97 % 1009,8 hPa 0,0 l/m 8,6 km/h (2 Bft) W 275 0 min 0,000 mm 0,0 UV-I 0 W/m 6,0 C 4,6 C 14,5 km/h (3 Bft) 93,33 %
19.03.2017 03:57 6,4 C 97 % 1009,8 hPa 0,0 l/m 7,6 km/h (2 Bft) W 269 0 min 0,000 mm 0,0 UV-I 0 W/m 6,0 C 5,4 C 11,3 km/h (2 Bft) 96,30 %
19.03.2017 03:58 6,4 C 97 % 1009,9 hPa 0,0 l/m 9,0 km/h (2 Bft) W-NW 288 0 min 0,000 mm 0,0 UV-I 0 W/m 6,0 C 4,3 C 11,3 km/h (2 Bft) 96,15 %
19.03.2017 03:59 6,4 C 97 % 1010,0 hPa 0,0 l/m 8,2 km/h (2 Bft) W-SW 250 0 min 0,000 mm 0,0 UV-I 0 W/m 6,0 C 4,9 C 12,9 km/h (3 Bft) 93,33 %
19.03.2017 04:00 6,4 C 97 % 1010,0 hPa 0,0 l/m 11,3 km/h (2 Bft) W-SW 246 0 min 0,000 mm 0,0 UV-I 0 W/m 6,0 C 2,8 C 14,5 km/h (3 Bft) 96,55 %
19.03.2017 04:01 6,4 C 97 % 1010,0 hPa 0,0 l/m 10,3 km/h (2 Bft) W-NW 292 0 min 0,000 mm 0,0 UV-I 0 W/m 6,0 C 3,4 C 14,5 km/h (3 Bft) 85,71 %
19.03.2017 04:02 6,4 C 97 % 1009,9 hPa 0,0 l/m 7,4 km/h (2 Bft) W 269 0 min 0,000 mm 0,0 UV-I 0 W/m 6,0 C 5,6 C 11,3 km/h (2 Bft) 100,00 %
19.03.2017 04:03 6,4 C 97 % 1009,9 hPa 0,0 l/m 7,2 km/h (2 Bft) W-NW 286 0 min 0,000 mm 0,0 UV-I 0 W/m 6,0 C 5,7 C 12,9 km/h (3 Bft) 91,67 %
19.03.2017 04:04 6,4 C 97 % 1009,9 hPa 0,0 l/m 9,4 km/h (2 Bft) W 261 0 min 0,000 mm 0,0 UV-I 0 W/m 6,0 C 4,0 C 14,5 km/h (3 Bft) 100,00 %
19.03.2017 04:05 6,4 C 97 % 1010,0 hPa 0,0 l/m 6,4 km/h (2 Bft) W 265 0 min 0,000 mm 0,0 UV-I 0 W/m 6,0 C 6,4 C 11,3 km/h (2 Bft) 92,59 %
19.03.2017 04:06 6,4 C 97 % 1010,0 hPa 0,0 l/m 7,6 km/h (2 Bft) W-SW 254 0 min 0,000 mm 0,0 UV-I 0 W/m 6,0 C 5,4 C 11,3 km/h (2 Bft) 92,86 %
19.03.2017 04:07 6,4 C 97 % 1010,0 hPa 0,0 l/m 8,6 km/h (2 Bft) W 265 0 min 0,000 mm 0,0 UV-I 0 W/m 6,0 C 4,6 C 12,9 km/h (3 Bft) 88,00 %
19.03.2017 04:08 6,4 C 97 % 1010,0 hPa 0,0 l/m 7,2 km/h (2 Bft) W-SW 248 0 min 0,000 mm 0,0 UV-I 0 W/m 6,0 C 5,7 C 14,5 km/h (3 Bft) 100,00 %
19.03.2017 04:09 6,4 C 97 % 1010,0 hPa 0,0 l/m 10,6 km/h (2 Bft) W 261 0 min 0,000 mm 0,0 UV-I 0 W/m 6,0 C 3,2 C 12,9 km/h (3 Bft) 96,30 %
19.03.2017 04:10 6,4 C 97 % 1010,0 hPa 0,0 l/m 6,1 km/h (2 Bft) W-SW 257 0 min 0,000 mm 0,0 UV-I 0 W/m 6,0 C 6,4 C 6,4 km/h (2 Bft) 100,00 %
19.03.2017 04:11 6,4 C 97 % 1010,0 hPa 0,0 l/m 7,2 km/h (2 Bft) W 273 0 min 0,000 mm 0,0 UV-I 0 W/m 6,0 C 5,7 C 11,3 km/h (2 Bft) 96,30 %
19.03.2017 04:12 6,4 C 97 % 1010,1 hPa 0,0 l/m 6,6 km/h (2 Bft) W-NW 283 0 min 0,000 mm 0,0 UV-I 0 W/m 6,0 C 6,3 C 9,7 km/h (2 Bft) 96,55 %
19.03.2017 04:13 6,4 C 97 % 1010,1 hPa 0,0 l/m 7,5 km/h (2 Bft) W-SW 254 0 min 0,000 mm 0,0 UV-I 0 W/m 6,0 C 5,5 C 12,9 km/h (3 Bft) 100,00 %
19.03.2017 04:14 6,4 C 97 % 1010,0 hPa 0,0 l/m 13,0 km/h (3 Bft) W-SW 246 0 min 0,000 mm 0,0 UV-I 0 W/m 6,0 C 1,8 C 16,1 km/h (3 Bft) 91,30 %
19.03.2017 04:15 6,4 C 97 % 1010,1 hPa 0,0 l/m 6,3 km/h (2 Bft) W 279 0 min 0,000 mm 0,0 UV-I 0 W/m 6,0 C 6,4 C 11,3 km/h (2 Bft) 100,00 %
19.03.2017 04:16 6,4 C 97 % 1010,1 hPa 0,0 l/m 7,1 km/h (2 Bft) W-SW 240 0 min 0,000 mm 0,0 UV-I 0 W/m 6,0 C 5,8 C 12,9 km/h (3 Bft) 96,15 %
19.03.2017 04:17 6,4 C 97 % 1010,1 hPa 0,0 l/m 10,4 km/h (2 Bft) SW 234 0 min 0,000 mm 0,0 UV-I 0 W/m 6,0 C 3,4 C 14,5 km/h (3 Bft) 91,67 %
19.03.2017 04:18 6,4 C 97 % 1010,0 hPa 0,0 l/m 12,6 km/h (3 Bft) W 265 0 min 0,000 mm 0,0 UV-I 0 W/m 6,0 C 2,0 C 16,1 km/h (3 Bft) 96,97 %
19.03.2017 04:19 6,4 C 97 % 1010,1 hPa 0,0 l/m 13,1 km/h (3 Bft) W-SW 245 0 min 0,000 mm 0,0 UV-I 0 W/m 6,0 C 1,7 C 19,3 km/h (3 Bft) 100,00 %
19.03.2017 04:20 6,3 C 97 % 1010,1 hPa 0,0 l/m 7,7 km/h (2 Bft) W 259 0 min 0,000 mm 0,0 UV-I 0 W/m 5,9 C 5,2 C 14,5 km/h (3 Bft) 93,33 %
19.03.2017 04:21 6,3 C 97 % 1010,2 hPa 0,0 l/m 5,5 km/h (1 Bft) W 265 0 min 0,000 mm 0,0 UV-I 0 W/m 5,9 C 6,3 C 6,4 km/h (2 Bft) 95,12 %
19.03.2017 04:22 6,3 C 97 % 1010,3 hPa 0,0 l/m 5,9 km/h (2 Bft) W-SW 253 0 min 0,000 mm 0,0 UV-I 0 W/m 5,9 C 6,3 C 14,5 km/h (3 Bft) 96,30 %
19.03.2017 04:23 6,3 C 97 % 1010,3 hPa 0,2 l/m 16,3 km/h (3 Bft) W-SW 249 0 min 0,000 mm 0,0 UV-I 0 W/m 5,9 C 0,0 C 24,1 km/h (4 Bft) 95,83 %
19.03.2017 04:24 6,3 C 96 % 1010,3 hPa 0,0 l/m 9,8 km/h (2 Bft) W-NW 283 0 min 0,000 mm 0,0 UV-I 0 W/m 5,7 C 3,6 C 16,1 km/h (3 Bft) 95,12 %
19.03.2017 04:25 6,3 C 97 % 1010,3 hPa 0,0 l/m 6,0 km/h (2 Bft) W 280 0 min 0,000 mm 0,0 UV-I 0 W/m 5,9 C 6,3 C 9,7 km/h (2 Bft) 96,15 %
19.03.2017 04:26 6,3 C 97 % 1010,3 hPa 0,0 l/m 8,4 km/h (2 Bft) W 274 0 min 0,000 mm 0,0 UV-I 0 W/m 5,9 C 4,7 C 14,5 km/h (3 Bft) 100,00 %
19.03.2017 04:27 6,3 C 96 % 1010,3 hPa 0,0 l/m 12,8 km/h (3 Bft) W-SW 255 0 min 0,000 mm 0,0 UV-I 0 W/m 5,7 C 1,8 C 19,3 km/h (3 Bft) 95,65 %
19.03.2017 04:28 6,3 C 97 % 1010,3 hPa 0,0 l/m 11,4 km/h (2 Bft) W-SW 238 0 min 0,000 mm 0,0 UV-I 0 W/m 5,9 C 2,6 C 17,7 km/h (3 Bft) 95,83 %
19.03.2017 04:29 6,3 C 97 % 1010,3 hPa 0,0 l/m 11,6 km/h (2 Bft) W-SW 257 0 min 0,000 mm 0,0 UV-I 0 W/m 5,9 C 2,5 C 16,1 km/h (3 Bft) 100,00 %
19.03.2017 04:30 6,3 C 97 % 1010,3 hPa 0,0 l/m 10,9 km/h (2 Bft) W 260 0 min 0,000 mm 0,0 UV-I 0 W/m 5,9 C 2,9 C 14,5 km/h (3 Bft) 96,30 %
19.03.2017 04:31 6,3 C 97 % 1010,3 hPa 0,0 l/m 6,7 km/h (2 Bft) W-SW 246 0 min 0,000 mm 0,0 UV-I 0 W/m 5,9 C 6,1 C 9,7 km/h (2 Bft) 100,00 %
19.03.2017 04:32 6,3 C 97 % 1010,3 hPa 0,0 l/m 7,8 km/h (2 Bft) W-SW 242 0 min 0,000 mm 0,0 UV-I 0 W/m 5,9 C 5,1 C 12,9 km/h (3 Bft) 92,31 %
19.03.2017 04:33 6,3 C 97 % 1010,3 hPa 0,0 l/m 11,5 km/h (2 Bft) W 261 0 min 0,000 mm 0,0 UV-I 0 W/m 5,9 C 2,6 C 14,5 km/h (3 Bft) 100,00 %
19.03.2017 04:34 6,4 C 97 % 1010,3 hPa 0,0 l/m 11,4 km/h (2 Bft) W 271 0 min 0,000 mm 0,0 UV-I 0 W/m 6,0 C 2,7 C 14,5 km/h (3 Bft) 91,67 %
19.03.2017 04:35 6,4 C 97 % 1010,4 hPa 0,0 l/m 10,6 km/h (2 Bft) SW 232 0 min 0,000 mm 0,0 UV-I 0 W/m 6,0 C 3,2 C 17,7 km/h (3 Bft) 96,15 %
19.03.2017 04:36 6,4 C 97 % 1010,4 hPa 0,0 l/m 9,4 km/h (2 Bft) W-SW 252 0 min 0,000 mm 0,0 UV-I 0 W/m 6,0 C 4,0 C 16,1 km/h (3 Bft) 95,83 %
19.03.2017 04:37 6,4 C 97 % 1010,4 hPa 0,0 l/m 8,9 km/h (2 Bft) W 259 0 min 0,000 mm 0,0 UV-I 0 W/m 6,0 C 4,4 C 12,9 km/h (3 Bft) 100,00 %
19.03.2017 04:38 6,4 C 97 % 1010,5 hPa 0,0 l/m 10,2 km/h (2 Bft) W-SW 254 0 min 0,000 mm 0,0 UV-I 0 W/m 6,0 C 3,5 C 17,7 km/h (3 Bft) 96,55 %
19.03.2017 04:39 6,4 C 97 % 1010,5 hPa 0,0 l/m 10,0 km/h (2 Bft) W-NW 286 0 min 0,000 mm 0,0 UV-I 0 W/m 6,0 C 3,6 C 14,5 km/h (3 Bft) 100,00 %
19.03.2017 04:40 6,4 C 97 % 1010,4 hPa 0,0 l/m 7,2 km/h (2 Bft) W-NW 286 0 min 0,000 mm 0,0 UV-I 0 W/m 6,0 C 5,7 C 11,3 km/h (2 Bft) 96,55 %
19.03.2017 04:41 6,3 C 96 % 1010,5 hPa 0,0 l/m 8,5 km/h (2 Bft) W-SW 254 0 min 0,000 mm 0,0 UV-I 0 W/m 5,7 C 4,6 C 11,3 km/h (2 Bft) 91,67 %
19.03.2017 04:42 6,3 C 96 % 1010,5 hPa 0,0 l/m 8,3 km/h (2 Bft) W 259 0 min 0,000 mm 0,0 UV-I 0 W/m 5,7 C 4,7 C 11,3 km/h (2 Bft) 100,00 %
19.03.2017 04:43 6,3 C 96 % 1010,4 hPa 0,0 l/m 5,3 km/h (1 Bft) W 281 0 min 0,000 mm 0,0 UV-I 0 W/m 5,7 C 6,3 C 9,7 km/h (2 Bft) 96,30 %
19.03.2017 04:44 6,3 C 96 % 1010,4 hPa 0,0 l/m 6,1 km/h (2 Bft) SW 227 0 min 0,000 mm 0,0 UV-I 0 W/m 5,7 C 6,3 C 11,3 km/h (2 Bft) 96,15 %
19.03.2017 04:45 6,3 C 96 % 1010,5 hPa 0,0 l/m 7,0 km/h (2 Bft) W 259 0 min 0,000 mm 0,0 UV-I 0 W/m 5,7 C 5,8 C 12,9 km/h (3 Bft) 100,00 %
19.03.2017 04:46 6,3 C 96 % 1010,5 hPa 0,0 l/m 7,6 km/h (2 Bft) W-SW 254 0 min 0,000 mm 0,0 UV-I 0 W/m 5,7 C 5,3 C 11,3 km/h (2 Bft) 100,00 %
19.03.2017 04:47 6,3 C 96 % 1010,5 hPa 0,0 l/m 12,2 km/h (2 Bft) W 281 0 min 0,000 mm 0,0 UV-I 0 W/m 5,7 C 2,1 C 16,1 km/h (3 Bft) 96,30 %
19.03.2017 04:48 6,3 C 96 % 1010,5 hPa 0,0 l/m 12,8 km/h (3 Bft) W 277 0 min 0,000 mm 0,0 UV-I 0 W/m 5,7 C 1,8 C 19,3 km/h (3 Bft) 100,00 %
19.03.2017 04:49 6,3 C 96 % 1010,5 hPa 0,0 l/m 9,8 km/h (2 Bft) W-SW 255 0 min 0,000 mm 0,0 UV-I 0 W/m 5,7 C 3,6 C 12,9 km/h (3 Bft) 100,00 %
19.03.2017 04:50 6,3 C 96 % 1010,5 hPa 0,0 l/m 6,7 km/h (2 Bft) W 266 0 min 0,000 mm 0,0 UV-I 0 W/m 5,7 C 6,1 C 9,7 km/h (2 Bft) 96,55 %
19.03.2017 04:51 6,3 C 96 % 1010,5 hPa 0,0 l/m 10,4 km/h (2 Bft) W-SW 245 0 min 0,000 mm 0,0 UV-I 0 W/m 5,7 C 3,2 C 16,1 km/h (3 Bft) 100,00 %
19.03.2017 04:52 6,3 C 96 % 1010,5 hPa 0,0 l/m 11,3 km/h (2 Bft) W 270 0 min 0,000 mm 0,0 UV-I 0 W/m 5,7 C 2,7 C 16,1 km/h (3 Bft) 100,00 %
19.03.2017 04:53 6,3 C 96 % 1010,5 hPa 0,0 l/m 9,4 km/h (2 Bft) W 265 0 min 0,000 mm 0,0 UV-I 0 W/m 5,7 C 3,9 C 11,3 km/h (2 Bft) 96,88 %
19.03.2017 04:54 6,3 C 96 % 1010,5 hPa 0,0 l/m 7,7 km/h (2 Bft) W-SW 252 0 min 0,000 mm 0,0 UV-I 0 W/m 5,7 C 5,2 C 12,9 km/h (3 Bft) 96,15 %
19.03.2017 04:55 6,3 C 96 % 1010,5 hPa 0,0 l/m 12,2 km/h (2 Bft) W-SW 257 0 min 0,000 mm 0,0 UV-I 0 W/m 5,7 C 2,1 C 16,1 km/h (3 Bft) 95,83 %
19.03.2017 04:56 6,3 C 96 % 1010,6 hPa 0,0 l/m 12,4 km/h (3 Bft) W-SW 254 0 min 0,000 mm 0,0 UV-I 0 W/m 5,7 C 2,0 C 14,5 km/h (3 Bft) 100,00 %
19.03.2017 04:57 6,3 C 96 % 1010,6 hPa 0,0 l/m 9,0 km/h (2 Bft) W 268 0 min 0,000 mm 0,0 UV-I 0 W/m 5,7 C 4,2 C 11,3 km/h (2 Bft) 96,55 %
19.03.2017 04:58 6,3 C 96 % 1010,6 hPa 0,0 l/m 5,3 km/h (1 Bft) W 277 0 min 0,000 mm 0,0 UV-I 0 W/m 5,7 C 6,3 C 9,7 km/h (2 Bft) 100,00 %
19.03.2017 04:59 6,3 C 96 % 1010,6 hPa 0,0 l/m 8,4 km/h (2 Bft) W-SW 250 0 min 0,000 mm 0,0 UV-I 0 W/m 5,7 C 4,7 C 16,1 km/h (3 Bft) 92,31 %
19.03.2017 05:00 6,3 C 96 % 1010,6 hPa 0,0 l/m 9,4 km/h (2 Bft) W 261 0 min 0,000 mm 0,0 UV-I 0 W/m 5,7 C 3,9 C 11,3 km/h (2 Bft) 100,00 %
19.03.2017 05:01 6,3 C 96 % 1010,7 hPa 0,0 l/m 7,6 km/h (2 Bft) W-SW 258 0 min 0,000 mm 0,0 UV-I 0 W/m 5,7 C 5,3 C 11,3 km/h (2 Bft) 100,00 %
19.03.2017 05:02 6,3 C 96 % 1010,7 hPa 0,0 l/m 6,6 km/h (2 Bft) W 259 0 min 0,000 mm 0,0 UV-I 0 W/m 5,7 C 6,2 C 12,9 km/h (3 Bft) 97,37 %
19.03.2017 05:03 6,3 C 96 % 1010,7 hPa 0,0 l/m 6,2 km/h (2 Bft) W-SW 239 0 min 0,000 mm 0,0 UV-I 0 W/m 5,7 C 6,3 C 9,7 km/h (2 Bft) 91,30 %
19.03.2017 05:04 6,3 C 96 % 1010,7 hPa 0,0 l/m 5,5 km/h (1 Bft) W 272 0 min 0,000 mm 0,0 UV-I 0 W/m 5,7 C 6,3 C 9,7 km/h (2 Bft) 100,00 %
19.03.2017 05:05 6,3 C 96 % 1010,7 hPa 0,0 l/m 4,9 km/h (1 Bft) W-SW 240 0 min 0,000 mm 0,0 UV-I 0 W/m 5,7 C 6,3 C 8,0 km/h (2 Bft) 94,12 %
19.03.2017 05:06 6,3 C 96 % 1010,7 hPa 0,0 l/m 9,1 km/h (2 Bft) W-SW 245 0 min 0,000 mm 0,0 UV-I 0 W/m 5,7 C 4,1 C 12,9 km/h (3 Bft) 100,00 %
19.03.2017 05:07 6,3 C 96 % 1010,7 hPa 0,0 l/m 8,0 km/h (2 Bft) W-SW 254 0 min 0,000 mm 0,0 UV-I 0 W/m 5,7 C 5,0 C 11,3 km/h (2 Bft) 93,10 %
19.03.2017 05:08 6,3 C 96 % 1010,7 hPa 0,0 l/m 5,2 km/h (1 Bft) W-SW 240 0 min 0,000 mm 0,0 UV-I 0 W/m 5,7 C 6,3 C 8,0 km/h (2 Bft) 91,67 %
19.03.2017 05:09 6,3 C 96 % 1010,7 hPa 0,0 l/m 6,1 km/h (2 Bft) W-SW 252 0 min 0,000 mm 0,0 UV-I 0 W/m 5,7 C 6,3 C 8,0 km/h (2 Bft) 100,00 %
19.03.2017 05:10 6,3 C 96 % 1010,7 hPa 0,0 l/m 8,9 km/h (2 Bft) W 260 0 min 0,000 mm 0,0 UV-I 0 W/m 5,7 C 4,3 C 16,1 km/h (3 Bft) 91,67 %
19.03.2017 05:11 6,3 C 96 % 1010,7 hPa 0,0 l/m 12,1 km/h (2 Bft) W 273 0 min 0,000 mm 0,0 UV-I 0 W/m 5,7 C 2,2 C 17,7 km/h (3 Bft) 100,00 %
19.03.2017 05:12 6,3 C 96 % 1010,7 hPa 0,0 l/m 8,8 km/h (2 Bft) W-SW 250 0 min 0,000 mm 0,0 UV-I 0 W/m 5,7 C 4,4 C 12,9 km/h (3 Bft) 91,67 %
19.03.2017 05:13 6,3 C 96 % 1010,8 hPa 0,0 l/m 8,3 km/h (2 Bft) W-SW 250 0 min 0,000 mm 0,0 UV-I 0 W/m 5,7 C 4,7 C 12,9 km/h (3 Bft) 100,00 %
19.03.2017 05:14 6,3 C 96 % 1010,8 hPa 0,0 l/m 3,4 km/h (1 Bft) W 267 0 min 0,000 mm 0,0 UV-I 0 W/m 5,7 C 6,3 C 4,8 km/h (1 Bft) 92,31 %
19.03.2017 05:15 6,3 C 96 % 1010,8 hPa 0,0 l/m 4,1 km/h (1 Bft) W 263 0 min 0,000 mm 0,0 UV-I 0 W/m 5,7 C 6,3 C 6,4 km/h (2 Bft) 100,00 %
19.03.2017 05:16 6,3 C 96 % 1010,8 hPa 0,0 l/m 5,0 km/h (1 Bft) W 266 0 min 0,000 mm 0,0 UV-I 0 W/m 5,7 C 6,3 C 9,7 km/h (2 Bft) 96,15 %
19.03.2017 05:17 6,3 C 96 % 1010,8 hPa 0,0 l/m 7,7 km/h (2 Bft) W 261 0 min 0,000 mm 0,0 UV-I 0 W/m 5,7 C 5,2 C 11,3 km/h (2 Bft) 100,00 %
19.03.2017 05:18 6,3 C 96 % 1010,8 hPa 0,0 l/m 6,6 km/h (2 Bft) W 266 0 min 0,000 mm 0,0 UV-I 0 W/m 5,7 C 6,2 C 11,3 km/h (2 Bft) 95,12 %
19.03.2017 05:19 6,3 C 96 % 1010,7 hPa 0,0 l/m 4,9 km/h (1 Bft) W 261 0 min 0,000 mm 0,0 UV-I 0 W/m 5,7 C 6,3 C 6,4 km/h (2 Bft) 91,67 %
19.03.2017 05:20 6,3 C 96 % 1010,7 hPa 0,0 l/m 8,6 km/h (2 Bft) W 262 0 min 0,000 mm 0,0 UV-I 0 W/m 5,7 C 4,5 C 12,9 km/h (3 Bft) 100,00 %
19.03.2017 05:21 6,3 C 96 % 1010,8 hPa 0,0 l/m 8,6 km/h (2 Bft) W 259 0 min 0,000 mm 0,0 UV-I 0 W/m 5,7 C 4,5 C 11,3 km/h (2 Bft) 96,67 %
19.03.2017 05:22 6,2 C 96 % 1010,8 hPa 0,0 l/m 9,3 km/h (2 Bft) W-SW 254 0 min 0,000 mm 0,0 UV-I 0 W/m 5,6 C 3,9 C 14,5 km/h (3 Bft) 92,86 %
19.03.2017 05:23 6,2 C 96 % 1010,8 hPa 0,0 l/m 5,7 km/h (1 Bft) W 267 0 min 0,000 mm 0,0 UV-I 0 W/m 5,6 C 6,2 C 9,7 km/h (2 Bft) 93,33 %
19.03.2017 05:24 6,2 C 96 % 1010,8 hPa 0,0 l/m 8,8 km/h (2 Bft) W-SW 258 0 min 0,000 mm 0,0 UV-I 0 W/m 5,6 C 4,2 C 12,9 km/h (3 Bft) 100,00 %
19.03.2017 05:25 6,2 C 96 % 1010,8 hPa 0,0 l/m 7,2 km/h (2 Bft) W-SW 248 0 min 0,000 mm 0,0 UV-I 0 W/m 5,6 C 5,5 C 9,7 km/h (2 Bft) 96,88 %
19.03.2017 05:26 6,2 C 96 % 1010,8 hPa 0,0 l/m 4,2 km/h (1 Bft) W 271 0 min 0,000 mm 0,0 UV-I 0 W/m 5,6 C 6,2 C 9,7 km/h (2 Bft) 91,30 %
19.03.2017 05:27 6,2 C 96 % 1010,8 hPa 0,0 l/m 5,2 km/h (1 Bft) W 261 0 min 0,000 mm 0,0 UV-I 0 W/m 5,6 C 6,2 C 9,7 km/h (2 Bft) 100,00 %
19.03.2017 05:28 6,2 C 96 % 1010,8 hPa 0,0 l/m 5,0 km/h (1 Bft) W-SW 252 0 min 0,000 mm 0,0 UV-I 0 W/m 5,6 C 6,2 C 9,7 km/h (2 Bft) 95,65 %
19.03.2017 05:29 6,2 C 96 % 1010,8 hPa 0,2 l/m 4,4 km/h (1 Bft) W-NW 284 0 min 0,000 mm 0,0 UV-I 0 W/m 5,6 C 6,2 C 9,7 km/h (2 Bft) 96,30 %
19.03.2017 05:30 6,2 C 96 % 1010,8 hPa 0,0 l/m 3,7 km/h (1 Bft) W-SW 252 0 min 0,000 mm 0,0 UV-I 0 W/m 5,6 C 6,2 C 4,8 km/h (1 Bft) 96,43 %
19.03.2017 05:31 6,1 C 96 % 1010,9 hPa 0,0 l/m 6,0 km/h (2 Bft) W-NW 286 0 min 0,000 mm 0,0 UV-I 0 W/m 5,5 C 6,1 C 11,3 km/h (2 Bft) 97,56 %
19.03.2017 05:32 6,1 C 96 % 1010,8 hPa 0,0 l/m 5,8 km/h (2 Bft) W 273 0 min 0,000 mm 0,0 UV-I 0 W/m 5,5 C 6,1 C 9,7 km/h (2 Bft) 93,10 %
19.03.2017 05:33 6,1 C 96 % 1010,8 hPa 0,0 l/m 3,2 km/h (1 Bft) W-NW 284 0 min 0,000 mm 0,0 UV-I 0 W/m 5,5 C 6,1 C 8,0 km/h (2 Bft) 100,00 %
19.03.2017 05:34 6,1 C 96 % 1010,8 hPa 0,0 l/m 6,0 km/h (2 Bft) W 261 0 min 0,000 mm 0,0 UV-I 0 W/m 5,5 C 6,1 C 12,9 km/h (3 Bft) 96,30 %
19.03.2017 05:35 6,1 C 96 % 1010,9 hPa 0,0 l/m 3,6 km/h (1 Bft) W 273 0 min 0,000 mm 0,0 UV-I 0 W/m 5,5 C 6,1 C 4,8 km/h (1 Bft) 88,46 %
19.03.2017 05:36 6,1 C 96 % 1010,9 hPa 0,0 l/m 3,1 km/h (1 Bft) W 281 0 min 0,000 mm 0,0 UV-I 0 W/m 5,5 C 6,1 C 9,7 km/h (2 Bft) 100,00 %
19.03.2017 05:37 6,1 C 96 % 1010,9 hPa 0,0 l/m 4,8 km/h (1 Bft) W 276 0 min 0,000 mm 0,0 UV-I 0 W/m 5,5 C 6,1 C 12,9 km/h (3 Bft) 100,00 %
19.03.2017 05:38 6,1 C 96 % 1010,9 hPa 0,0 l/m 2,9 km/h (1 Bft) W-SW 249 0 min 0,000 mm 0,0 UV-I 0 W/m 5,5 C 6,1 C 6,4 km/h (2 Bft) 100,00 %
19.03.2017 05:39 6,0 C 96 % 1010,9 hPa 0,0 l/m 1,3 km/h (1 Bft) W 267 0 min 0,000 mm 0,0 UV-I 0 W/m 5,4 C 6,0 C 3,2 km/h (1 Bft) 95,65 %
19.03.2017 05:40 6,0 C 96 % 1010,9 hPa 0,0 l/m 2,9 km/h (1 Bft) W-NW 296 0 min 0,000 mm 0,0 UV-I 0 W/m 5,4 C 6,0 C 4,8 km/h (1 Bft) 100,00 %
19.03.2017 05:41 6,0 C 96 % 1011,0 hPa 0,0 l/m 5,4 km/h (1 Bft) W 270 0 min 0,000 mm 0,0 UV-I 0 W/m 5,4 C 6,0 C 11,3 km/h (2 Bft) 100,00 %
19.03.2017 05:42 6,0 C 96 % 1011,0 hPa 0,0 l/m 3,7 km/h (1 Bft) W-NW 300 0 min 0,000 mm 0,0 UV-I 0 W/m 5,4 C 6,0 C 8,0 km/h (2 Bft) 95,83 %
19.03.2017 05:43 5,9 C 96 % 1011,0 hPa 0,0 l/m 2,8 km/h (1 Bft) W 275 0 min 0,000 mm 0,0 UV-I 0 W/m 5,3 C 5,9 C 4,8 km/h (1 Bft) 100,00 %
19.03.2017 05:44 5,9 C 96 % 1011,0 hPa 0,0 l/m 3,4 km/h (1 Bft) W-NW 286 0 min 0,000 mm 0,0 UV-I 0 W/m 5,3 C 5,9 C 6,4 km/h (2 Bft) 100,00 %
19.03.2017 05:45 5,9 C 96 % 1011,0 hPa 0,0 l/m 3,3 km/h (1 Bft) W-NW 286 0 min 0,000 mm 0,0 UV-I 0 W/m 5,3 C 5,9 C 4,8 km/h (1 Bft) 100,00 %
19.03.2017 05:46 5,9 C 96 % 1011,0 hPa 0,0 l/m 3,4 km/h (1 Bft) W 273 0 min 0,000 mm 0,0 UV-I 0 W/m 5,3 C 5,9 C 4,8 km/h (1 Bft) 95,83 %
19.03.2017 05:47 5,9 C 96 % 1011,0 hPa 0,0 l/m 5,8 km/h (2 Bft) W 273 0 min 0,000 mm 0,0 UV-I 0 W/m 5,3 C 5,9 C 9,7 km/h (2 Bft) 100,00 %
19.03.2017 05:48 5,9 C 96 % 1011,1 hPa 0,0 l/m 4,1 km/h (1 Bft) W-NW 286 0 min 0,000 mm 0,0 UV-I 0 W/m 5,3 C 5,9 C 6,4 km/h (2 Bft) 96,15 %
19.03.2017 05:49 5,9 C 96 % 1011,1 hPa 0,0 l/m 2,9 km/h (1 Bft) W-NW 286 0 min 0,000 mm 0,0 UV-I 0 W/m 5,3 C 5,9 C 6,4 km/h (2 Bft) 96,30 %
19.03.2017 05:50 5,9 C 96 % 1011,1 hPa 0,0 l/m 6,3 km/h (2 Bft) W-NW 291 0 min 0,000 mm 0,0 UV-I 0 W/m 5,3 C 5,9 C 12,9 km/h (3 Bft) 100,00 %
19.03.2017 05:51 5,9 C 96 % 1011,1 hPa 0,0 l/m 5,6 km/h (1 Bft) W 278 0 min 0,000 mm 0,0 UV-I 0 W/m 5,3 C 5,9 C 9,7 km/h (2 Bft) 100,00 %
19.03.2017 05:52 5,9 C 96 % 1011,2 hPa 0,0 l/m 3,3 km/h (1 Bft) W-NW 293 0 min 0,000 mm 0,0 UV-I 0 W/m 5,3 C 5,9 C 6,4 km/h (2 Bft) 96,30 %
19.03.2017 05:53 5,9 C 96 % 1011,2 hPa 0,0 l/m 4,9 km/h (1 Bft) W-NW 303 0 min 0,000 mm 0,0 UV-I 0 W/m 5,3 C 5,9 C 9,7 km/h (2 Bft) 100,00 %
19.03.2017 05:54 5,9 C 96 % 1011,2 hPa 0,0 l/m 2,3 km/h (1 Bft) W 271 0 min 0,000 mm 0,0 UV-I 0 W/m 5,3 C 5,9 C 3,2 km/h (1 Bft) 92,31 %
19.03.2017 05:55 5,9 C 96 % 1011,2 hPa 0,2 l/m 3,2 km/h (1 Bft) W 273 0 min 0,000 mm 0,0 UV-I 0 W/m 5,3 C 5,9 C 4,8 km/h (1 Bft) 100,00 %
19.03.2017 05:56 5,9 C 96 % 1011,1 hPa 0,0 l/m 2,1 km/h (1 Bft) W-NW 292 0 min 0,000 mm 0,0 UV-I 0 W/m 5,3 C 5,9 C 6,4 km/h (2 Bft) 100,00 %
19.03.2017 05:57 5,9 C 96 % 1011,1 hPa 0,0 l/m 1,7 km/h (1 Bft) W-NW 290 0 min 0,000 mm 0,0 UV-I 0 W/m 5,3 C 5,9 C 3,2 km/h (1 Bft) 100,00 %
19.03.2017 05:58 5,9 C 96 % 1011,1 hPa 0,0 l/m 2,9 km/h (1 Bft) W-NW 293 0 min 0,000 mm 0,0 UV-I 0 W/m 5,3 C 5,9 C 8,0 km/h (2 Bft) 100,00 %
19.03.2017 05:59 5,9 C 96 % 1011,1 hPa 0,0 l/m 3,0 km/h (1 Bft) W-NW 292 0 min 0,000 mm 0,0 UV-I 0 W/m 5,3 C 5,9 C 6,4 km/h (2 Bft) 100,00 %
19.03.2017 06:00 5,8 C 96 % 1011,1 hPa 0,0 l/m 2,3 km/h (1 Bft) W-NW 298 0 min 0,000 mm 0,0 UV-I 0 W/m 5,2 C 5,8 C 3,2 km/h (1 Bft) 95,65 %
19.03.2017 06:01 5,8 C 96 % 1011,1 hPa 0,0 l/m 2,3 km/h (1 Bft) W-NW 291 0 min 0,000 mm 0,0 UV-I 0 W/m 5,2 C 5,8 C 4,8 km/h (1 Bft) 100,00 %
19.03.2017 06:02 5,8 C 96 % 1011,1 hPa 0,0 l/m 2,9 km/h (1 Bft) W-NW 283 0 min 0,000 mm 0,0 UV-I 0 W/m 5,2 C 5,8 C 4,8 km/h (1 Bft) 100,00 %
19.03.2017 06:03 5,8 C 96 % 1011,2 hPa 0,0 l/m 2,6 km/h (1 Bft) W 263 0 min 0,000 mm 0,0 UV-I 0 W/m 5,2 C 5,8 C 4,8 km/h (1 Bft) 93,33 %
19.03.2017 06:04 5,8 C 96 % 1011,2 hPa 0,0 l/m 1,0 km/h (0 Bft) W 263 0 min 0,000 mm 0,0 UV-I 0 W/m 5,2 C 5,8 C 3,2 km/h (1 Bft) 95,65 %
19.03.2017 06:05 5,8 C 96 % 1011,2 hPa 0,0 l/m 2,2 km/h (1 Bft) NW 322 0 min 0,000 mm 0,0 UV-I 0 W/m 5,2 C 5,8 C 6,4 km/h (2 Bft) 100,00 %
19.03.2017 06:06 5,8 C 96 % 1011,2 hPa 0,0 l/m 3,0 km/h (1 Bft) NW 311 0 min 0,000 mm 0,0 UV-I 3 W/m 5,2 C 5,8 C 4,8 km/h (1 Bft) 100,00 %
19.03.2017 06:07 5,8 C 97 % 1011,3 hPa 0,0 l/m 1,9 km/h (1 Bft) W-NW 296 0 min 0,000 mm 0,0 UV-I 5 W/m 5,4 C 5,8 C 4,8 km/h (1 Bft) 100,00 %
19.03.2017 06:08 5,8 C 97 % 1011,3 hPa 0,0 l/m 2,4 km/h (1 Bft) W-NW 298 0 min 0,000 mm 0,0 UV-I 5 W/m 5,4 C 5,8 C 3,2 km/h (1 Bft) 100,00 %
19.03.2017 06:09 5,8 C 97 % 1011,3 hPa 0,0 l/m 1,9 km/h (1 Bft) NW 321 0 min 0,000 mm 0,0 UV-I 5 W/m 5,4 C 5,8 C 4,8 km/h (1 Bft) 95,83 %
19.03.2017 06:10 5,8 C 97 % 1011,3 hPa 0,0 l/m 4,2 km/h (1 Bft) NW 315 0 min 0,000 mm 0,0 UV-I 5 W/m 5,4 C 5,8 C 11,3 km/h (2 Bft) 100,00 %
19.03.2017 06:11 5,8 C 97 % 1011,3 hPa 0,0 l/m 2,1 km/h (1 Bft) NW 314 0 min 0,000 mm 0,0 UV-I 5 W/m 5,4 C 5,8 C 3,2 km/h (1 Bft) 96,55 %
19.03.2017 06:12 5,8 C 97 % 1011,3 hPa 0,0 l/m 0,6 km/h (0 Bft) NW 313 0 min 0,000 mm 0,0 UV-I 5 W/m 5,4 C 5,8 C 3,2 km/h (1 Bft) 95,83 %
19.03.2017 06:13 5,8 C 97 % 1011,3 hPa 0,0 l/m 1,0 km/h (0 Bft) W-NW 303 0 min 0,000 mm 0,0 UV-I 5 W/m 5,4 C 5,8 C 3,2 km/h (1 Bft) 95,65 %
19.03.2017 06:14 5,8 C 97 % 1011,3 hPa 0,0 l/m 0,7 km/h (0 Bft) W-NW 303 0 min 0,000 mm 0,0 UV-I 5 W/m 5,4 C 5,8 C 1,6 km/h (1 Bft) 100,00 %
19.03.2017 06:15 5,8 C 97 % 1011,3 hPa 0,0 l/m 2,1 km/h (1 Bft) W-NW 284 0 min 0,000 mm 0,0 UV-I 5 W/m 5,4 C 5,8 C 4,8 km/h (1 Bft) 96,55 %
19.03.2017 06:16 5,8 C 97 % 1011,3 hPa 0,0 l/m 0,8 km/h (0 Bft) W-NW 284 0 min 0,000 mm 0,0 UV-I 5 W/m 5,4 C 5,8 C 3,2 km/h (1 Bft) 91,67 %
19.03.2017 06:17 5,8 C 97 % 1011,3 hPa 0,0 l/m 1,3 km/h (1 Bft) W-NW 285 0 min 0,000 mm 0,0 UV-I 7 W/m 5,4 C 5,8 C 3,2 km/h (1 Bft) 96,15 %
19.03.2017 06:18 5,8 C 97 % 1011,3 hPa 0,0 l/m 0,4 km/h (0 Bft) W-NW 285 0 min 0,000 mm 0,0 UV-I 7 W/m 5,4 C 5,8 C 1,6 km/h (1 Bft) 96,30 %
19.03.2017 06:19 5,8 C 97 % 1011,3 hPa 0,2 l/m 1,8 km/h (1 Bft) W-NW 285 0 min 0,000 mm 0,0 UV-I 7 W/m 5,4 C 5,8 C 3,2 km/h (1 Bft) 100,00 %
19.03.2017 06:20 5,8 C 97 % 1011,3 hPa 0,0 l/m 2,4 km/h (1 Bft) W-NW 285 0 min 0,000 mm 0,0 UV-I 7 W/m 5,4 C 5,8 C 4,8 km/h (1 Bft) 100,00 %
19.03.2017 06:21 5,8 C 97 % 1011,3 hPa 0,0 l/m 2,9 km/h (1 Bft) W 271 0 min 0,000 mm 0,0 UV-I 7 W/m 5,4 C 5,8 C 6,4 km/h (2 Bft) 92,31 %
19.03.2017 06:22 5,8 C 97 % 1011,2 hPa 0,0 l/m 1,2 km/h (1 Bft) W 273 0 min 0,000 mm 0,0 UV-I 9 W/m 5,4 C 5,8 C 3,2 km/h (1 Bft) 100,00 %
19.03.2017 06:23 5,7 C 97 % 1011,3 hPa 0,0 l/m 1,6 km/h (1 Bft) W 274 0 min 0,000 mm 0,0 UV-I 9 W/m 5,3 C 5,7 C 3,2 km/h (1 Bft) 100,00 %
19.03.2017 06:24 5,8 C 97 % 1011,3 hPa 0,0 l/m 4,0 km/h (1 Bft) W 274 0 min 0,000 mm 0,0 UV-I 9 W/m 5,4 C 5,8 C 6,4 km/h (2 Bft) 95,83 %
19.03.2017 06:25 5,7 C 97 % 1011,3 hPa 0,0 l/m 4,1 km/h (1 Bft) W 274 0 min 0,000 mm 0,0 UV-I 9 W/m 5,3 C 5,7 C 4,8 km/h (1 Bft) 91,30 %
19.03.2017 06:26 5,7 C 97 % 1011,4 hPa 0,0 l/m 3,0 km/h (1 Bft) W 274 0 min 0,000 mm 0,0 UV-I 9 W/m 5,3 C 5,7 C 4,8 km/h (1 Bft) 83,33 %
19.03.2017 06:27 5,7 C 97 % 1011,4 hPa 0,0 l/m 3,0 km/h (1 Bft) W 274 0 min 0,000 mm 0,0 UV-I 9 W/m 5,3 C 5,7 C 4,8 km/h (1 Bft) 97,37 %
19.03.2017 06:28 5,7 C 97 % 1011,3 hPa 0,0 l/m 4,7 km/h (1 Bft) W 273 0 min 0,000 mm 0,0 UV-I 9 W/m 5,3 C 5,7 C 6,4 km/h (2 Bft) 100,00 %
19.03.2017 06:29 5,7 C 97 % 1011,4 hPa 0,0 l/m 4,2 km/h (1 Bft) W 273 0 min 0,000 mm 0,0 UV-I 9 W/m 5,3 C 5,7 C 4,8 km/h (1 Bft) 100,00 %
19.03.2017 06:30 5,7 C 97 % 1011,3 hPa 0,0 l/m 2,7 km/h (1 Bft) W 273 0 min 0,000 mm 0,0 UV-I 9 W/m 5,3 C 5,7 C 4,8 km/h (1 Bft) 93,33 %
19.03.2017 06:31 5,8 C 97 % 1011,3 hPa 0,0 l/m 2,7 km/h (1 Bft) W 273 0 min 0,000 mm 0,0 UV-I 9 W/m 5,4 C 5,8 C 4,8 km/h (1 Bft) 95,65 %
19.03.2017 06:32 5,8 C 97 % 1011,4 hPa 0,0 l/m 3,8 km/h (1 Bft) W 268 0 min 0,000 mm 0,0 UV-I 9 W/m 5,4 C 5,8 C 6,4 km/h (2 Bft) 100,00 %
19.03.2017 06:33 5,8 C 97 % 1011,4 hPa 0,0 l/m 4,4 km/h (1 Bft) W 266 0 min 0,000 mm 0,0 UV-I 9 W/m 5,4 C 5,8 C 6,4 km/h (2 Bft) 92,59 %
19.03.2017 06:34 5,8 C 97 % 1011,4 hPa 0,0 l/m 4,3 km/h (1 Bft) W 259 0 min 0,000 mm 0,0 UV-I 9 W/m 5,4 C 5,8 C 4,8 km/h (1 Bft) 96,15 %
19.03.2017 06:35 5,8 C 97 % 1011,4 hPa 0,0 l/m 2,7 km/h (1 Bft) W 259 0 min 0,000 mm 0,0 UV-I 9 W/m 5,4 C 5,8 C 4,8 km/h (1 Bft) 100,00 %
19.03.2017 06:36 5,8 C 97 % 1011,4 hPa 0,0 l/m 2,9 km/h (1 Bft) W-SW 257 0 min 0,000 mm 0,0 UV-I 10 W/m 5,4 C 5,8 C 4,8 km/h (1 Bft) 100,00 %
19.03.2017 06:37 5,8 C 97 % 1011,4 hPa 0,2 l/m 2,8 km/h (1 Bft) W-SW 257 0 min 0,000 mm 0,0 UV-I 11 W/m 5,4 C 5,8 C 4,8 km/h (1 Bft) 100,00 %
19.03.2017 06:38 5,8 C 97 % 1011,4 hPa 0,0 l/m 3,9 km/h (1 Bft) W-SW 254 0 min 0,000 mm 0,0 UV-I 11 W/m 5,4 C 5,8 C 4,8 km/h (1 Bft) 91,30 %
19.03.2017 06:39 5,8 C 97 % 1011,4 hPa 0,0 l/m 3,7 km/h (1 Bft) W-SW 239 0 min 0,000 mm 0,0 UV-I 9 W/m 5,4 C 5,8 C 6,4 km/h (2 Bft) 96,30 %
19.03.2017 06:40 5,8 C 97 % 1011,4 hPa 0,0 l/m 3,8 km/h (1 Bft) SW 226 0 min 0,000 mm 0,0 UV-I 9 W/m 5,4 C 5,8 C 4,8 km/h (1 Bft) 95,65 %
19.03.2017 06:41 5,8 C 97 % 1011,5 hPa 0,0 l/m 2,7 km/h (1 Bft) SW 227 0 min 0,000 mm 0,0 UV-I 9 W/m 5,4 C 5,8 C 4,8 km/h (1 Bft) 100,00 %
19.03.2017 06:42 5,8 C 97 % 1011,4 hPa 0,0 l/m 3,1 km/h (1 Bft) SW 234 0 min 0,000 mm 0,0 UV-I 10 W/m 5,4 C 5,8 C 4,8 km/h (1 Bft) 96,00 %
19.03.2017 06:43 5,8 C 97 % 1011,5 hPa 0,0 l/m 2,8 km/h (1 Bft) SW 234 0 min 0,000 mm 0,0 UV-I 11 W/m 5,4 C 5,8 C 4,8 km/h (1 Bft) 96,30 %
19.03.2017 06:44 5,8 C 97 % 1011,5 hPa 0,0 l/m 3,8 km/h (1 Bft) SW 234 0 min 0,000 mm 0,0 UV-I 11 W/m 5,4 C 5,8 C 6,4 km/h (2 Bft) 90,91 %
19.03.2017 06:45 5,8 C 97 % 1011,5 hPa 0,0 l/m 3,8 km/h (1 Bft) SW 234 0 min 0,000 mm 0,0 UV-I 11 W/m 5,4 C 5,8 C 6,4 km/h (2 Bft) 100,00 %
19.03.2017 06:46 5,9 C 97 % 1011,6 hPa 0,0 l/m 5,1 km/h (1 Bft) W-SW 237 0 min 0,000 mm 0,0 UV-I 11 W/m 5,5 C 5,9 C 6,4 km/h (2 Bft) 95,65 %
19.03.2017 06:47 5,9 C 97 % 1011,7 hPa 0,0 l/m 4,7 km/h (1 Bft) SW 235 0 min 0,000 mm 0,0 UV-I 11 W/m 5,5 C 5,9 C 6,4 km/h (2 Bft) 93,94 %
19.03.2017 06:48 5,9 C 97 % 1011,6 hPa 0,0 l/m 3,4 km/h (1 Bft) SW 235 0 min 0,000 mm 0,0 UV-I 11 W/m 5,5 C 5,9 C 4,8 km/h (1 Bft) 95,65 %
19.03.2017 06:49 5,9 C 97 % 1011,6 hPa 0,0 l/m 3,6 km/h (1 Bft) W-SW 237 0 min 0,000 mm 0,0 UV-I 11 W/m 5,5 C 5,9 C 4,8 km/h (1 Bft) 100,00 %
19.03.2017 06:50 5,9 C 97 % 1011,6 hPa 0,0 l/m 5,8 km/h (2 Bft) SW 236 0 min 0,000 mm 0,0 UV-I 11 W/m 5,5 C 5,9 C 6,4 km/h (2 Bft) 100,00 %
19.03.2017 06:51 5,9 C 97 % 1011,7 hPa 0,0 l/m 4,7 km/h (1 Bft) W-SW 240 0 min 0,000 mm 0,0 UV-I 11 W/m 5,5 C 5,9 C 6,4 km/h (2 Bft) 96,15 %
19.03.2017 06:52 5,9 C 97 % 1011,7 hPa 0,0 l/m 3,9 km/h (1 Bft) W-SW 241 0 min 0,000 mm 0,0 UV-I 11 W/m 5,5 C 5,9 C 4,8 km/h (1 Bft) 100,00 %
19.03.2017 06:53 5,9 C 97 % 1011,6 hPa 0,0 l/m 3,0 km/h (1 Bft) W-SW 241 0 min 0,000 mm 0,0 UV-I 11 W/m 5,5 C 5,9 C 4,8 km/h (1 Bft) 95,83 %
19.03.2017 06:54 5,9 C 97 % 1011,7 hPa 0,0 l/m 4,7 km/h (1 Bft) W 279 0 min 0,000 mm 0,0 UV-I 11 W/m 5,5 C 5,9 C 6,4 km/h (2 Bft) 86,67 %
19.03.2017 06:55 5,9 C 97 % 1011,8 hPa 0,0 l/m 4,9 km/h (1 Bft) W-SW 250 0 min 0,000 mm 0,0 UV-I 10 W/m 5,5 C 5,9 C 6,4 km/h (2 Bft) 95,65 %
19.03.2017 06:56 5,9 C 97 % 1011,8 hPa 0,0 l/m 3,0 km/h (1 Bft) W-SW 254 0 min 0,000 mm 0,0 UV-I 9 W/m 5,5 C 5,9 C 4,8 km/h (1 Bft) 93,94 %
19.03.2017 06:57 5,9 C 97 % 1011,8 hPa 0,0 l/m 2,4 km/h (1 Bft) W 268 0 min 0,000 mm 0,0 UV-I 9 W/m 5,5 C 5,9 C 3,2 km/h (1 Bft) 95,65 %
19.03.2017 06:58 5,9 C 97 % 1011,8 hPa 0,0 l/m 2,5 km/h (1 Bft) W 268 0 min 0,000 mm 0,0 UV-I 9 W/m 5,5 C 5,9 C 3,2 km/h (1 Bft) 100,00 %
19.03.2017 06:59 5,9 C 97 % 1011,8 hPa 0,0 l/m 3,4 km/h (1 Bft) W 263 0 min 0,000 mm 0,0 UV-I 9 W/m 5,5 C 5,9 C 4,8 km/h (1 Bft) 100,00 %
19.03.2017 07:00 5,9 C 97 % 1011,8 hPa 0,0 l/m 3,2 km/h (1 Bft) W-SW 253 0 min 0,000 mm 0,0 UV-I 9 W/m 5,5 C 5,9 C 11,3 km/h (2 Bft) 100,00 %
19.03.2017 07:01 5,9 C 97 % 1011,8 hPa 0,0 l/m 9,4 km/h (2 Bft) W 274 0 min 0,000 mm 0,0 UV-I 9 W/m 5,5 C 3,5 C 14,5 km/h (3 Bft) 100,00 %
19.03.2017 07:02 5,9 C 97 % 1011,8 hPa 0,0 l/m 7,3 km/h (2 Bft) W-SW 258 0 min 0,000 mm 0,0 UV-I 9 W/m 5,5 C 5,1 C 11,3 km/h (2 Bft) 96,67 %
19.03.2017 07:03 6,0 C 97 % 1011,8 hPa 0,0 l/m 4,7 km/h (1 Bft) W 261 0 min 0,000 mm 0,0 UV-I 9 W/m 5,6 C 6,0 C 6,4 km/h (2 Bft) 96,15 %
19.03.2017 07:04 6,0 C 97 % 1011,8 hPa 0,0 l/m 3,9 km/h (1 Bft) W-NW 298 0 min 0,000 mm 0,0 UV-I 10 W/m 5,6 C 6,0 C 4,8 km/h (1 Bft) 93,33 %
19.03.2017 07:05 6,0 C 97 % 1011,7 hPa 0,2 l/m 3,5 km/h (1 Bft) W-NW 297 0 min 0,000 mm 0,0 UV-I 11 W/m 5,6 C 6,0 C 4,8 km/h (1 Bft) 95,65 %
19.03.2017 07:06 6,0 C 97 % 1011,8 hPa 0,0 l/m 3,4 km/h (1 Bft) W 281 0 min 0,000 mm 0,0 UV-I 11 W/m 5,6 C 6,0 C 6,4 km/h (2 Bft) 100,00 %
19.03.2017 07:07 5,9 C 97 % 1011,8 hPa 0,0 l/m 5,0 km/h (1 Bft) W-NW 285 0 min 0,000 mm 0,0 UV-I 11 W/m 5,5 C 5,9 C 9,7 km/h (2 Bft) 92,31 %
19.03.2017 07:08 5,9 C 97 % 1011,8 hPa 0,0 l/m 3,6 km/h (1 Bft) W 281 0 min 0,000 mm 0,0 UV-I 11 W/m 5,5 C 5,9 C 4,8 km/h (1 Bft) 95,83 %
19.03.2017 07:09 6,0 C 97 % 1011,8 hPa 0,0 l/m 3,2 km/h (1 Bft) W 281 0 min 0,000 mm 0,0 UV-I 11 W/m 5,6 C 6,0 C 4,8 km/h (1 Bft) 95,83 %
19.03.2017 07:10 6,0 C 97 % 1011,8 hPa 0,0 l/m 3,8 km/h (1 Bft) W 281 0 min 0,000 mm 0,0 UV-I 12 W/m 5,6 C 6,0 C 4,8 km/h (1 Bft) 92,31 %
19.03.2017 07:11 5,9 C 97 % 1011,8 hPa 0,0 l/m 4,3 km/h (1 Bft) W 278 0 min 0,000 mm 0,0 UV-I 12 W/m 5,5 C 5,9 C 9,7 km/h (2 Bft) 93,33 %
19.03.2017 07:12 6,0 C 97 % 1011,8 hPa 0,0 l/m 3,8 km/h (1 Bft) W 275 0 min 0,000 mm 0,0 UV-I 12 W/m 5,6 C 6,0 C 4,8 km/h (1 Bft) 86,21 %
19.03.2017 07:13 5,9 C 97 % 1011,8 hPa 0,0 l/m 2,1 km/h (1 Bft) W 275 0 min 0,000 mm 0,0 UV-I 12 W/m 5,5 C 5,9 C 3,2 km/h (1 Bft) 95,83 %
19.03.2017 07:14 6,0 C 97 % 1011,8 hPa 0,0 l/m 3,0 km/h (1 Bft) W 279 0 min 0,000 mm 0,0 UV-I 12 W/m 5,6 C 6,0 C 3,2 km/h (1 Bft) 88,46 %
19.03.2017 07:15 6,0 C 97 % 1011,8 hPa 0,0 l/m 3,1 km/h (1 Bft) W 276 0 min 0,000 mm 0,0 UV-I 13 W/m 5,6 C 6,0 C 6,4 km/h (2 Bft) 92,59 %
19.03.2017 07:16 6,0 C 97 % 1011,8 hPa 0,0 l/m 3,2 km/h (1 Bft) W 271 0 min 0,000 mm 0,0 UV-I 14 W/m 5,6 C 6,0 C 4,8 km/h (1 Bft) 92,31 %
19.03.2017 07:17 6,0 C 97 % 1011,8 hPa 0,0 l/m 4,5 km/h (1 Bft) W 280 0 min 0,000 mm 0,0 UV-I 15 W/m 5,6 C 6,0 C 9,7 km/h (2 Bft) 100,00 %
19.03.2017 07:18 6,0 C 97 % 1011,7 hPa 0,2 l/m 7,6 km/h (2 Bft) W-SW 251 0 min 0,000 mm 0,0 UV-I 16 W/m 5,6 C 5,0 C 14,5 km/h (3 Bft) 89,66 %
19.03.2017 07:19 5,9 C 97 % 1011,8 hPa 0,0 l/m 6,1 km/h (2 Bft) W-SW 257 0 min 0,000 mm 0,0 UV-I 18 W/m 5,5 C 5,9 C 9,7 km/h (2 Bft) 96,30 %
19.03.2017 07:20 5,9 C 97 % 1011,7 hPa 0,0 l/m 4,7 km/h (1 Bft) W 263 0 min 0,000 mm 0,0 UV-I 18 W/m 5,5 C 5,9 C 6,4 km/h (2 Bft) 96,56 %
19.03.2017 07:21 5,9 C 97 % 1011,7 hPa 0,0 l/m 3,5 km/h (1 Bft) W 265 0 min 0,000 mm 0,0 UV-I 19 W/m 5,5 C 5,9 C 4,8 km/h (1 Bft) 95,12 %
19.03.2017 07:22 5,9 C 97 % 1011,7 hPa 0,0 l/m 3,6 km/h (1 Bft) W 261 0 min 0,000 mm 0,0 UV-I 20 W/m 5,5 C 5,9 C 4,8 km/h (1 Bft) 100,00 %
19.03.2017 07:23 5,9 C 97 % 1011,6 hPa 0,0 l/m 3,2 km/h (1 Bft) W 261 0 min 0,000 mm 0,0 UV-I 21 W/m 5,5 C 5,9 C 4,8 km/h (1 Bft) 91,67 %
19.03.2017 07:24 5,9 C 97 % 1011,6 hPa 0,0 l/m 2,8 km/h (1 Bft) W 261 0 min 0,000 mm 0,0 UV-I 21 W/m 5,5 C 5,9 C 4,8 km/h (1 Bft) 100,00 %
19.03.2017 07:25 5,9 C 97 % 1011,6 hPa 0,2 l/m 2,7 km/h (1 Bft) W 261 0 min 0,000 mm 0,0 UV-I 21 W/m 5,5 C 5,9 C 4,8 km/h (1 Bft) 93,10 %
19.03.2017 07:26 5,9 C 97 % 1011,7 hPa 0,0 l/m 1,5 km/h (1 Bft) W 261 0 min 0,000 mm 0,0 UV-I 21 W/m 5,5 C 5,9 C 3,2 km/h (1 Bft) 96,15 %
19.03.2017 07:27 5,9 C 97 % 1011,7 hPa 0,0 l/m 5,0 km/h (1 Bft) W-SW 256 0 min 0,000 mm 0,0 UV-I 19 W/m 5,5 C 5,9 C 6,4 km/h (2 Bft) 100,00 %
19.03.2017 07:28 5,9 C 97 % 1011,7 hPa 0,0 l/m 5,8 km/h (2 Bft) W-NW 286 0 min 0,000 mm 0,0 UV-I 19 W/m 5,5 C 5,9 C 8,0 km/h (2 Bft) 96,15 %
19.03.2017 07:29 5,9 C 97 % 1011,7 hPa 0,0 l/m 3,5 km/h (1 Bft) W-SW 254 0 min 0,000 mm 0,0 UV-I 19 W/m 5,5 C 5,9 C 6,4 km/h (2 Bft) 100,00 %
19.03.2017 07:30 5,9 C 97 % 1011,8 hPa 0,0 l/m 4,5 km/h (1 Bft) W-SW 257 0 min 0,000 mm 0,0 UV-I 19 W/m 5,5 C 5,9 C 6,4 km/h (2 Bft) 95,83 %
19.03.2017 07:31 6,0 C 97 % 1011,8 hPa 0,0 l/m 4,1 km/h (1 Bft) W-SW 258 0 min 0,000 mm 0,0 UV-I 19 W/m 5,6 C 6,0 C 4,8 km/h (1 Bft) 100,00 %
19.03.2017 07:32 5,9 C 97 % 1011,8 hPa 0,0 l/m 4,1 km/h (1 Bft) W-SW 250 0 min 0,000 mm 0,0 UV-I 19 W/m 5,5 C 5,9 C 6,4 km/h (2 Bft) 92,31 %
19.03.2017 07:33 5,9 C 97 % 1011,8 hPa 0,2 l/m 3,9 km/h (1 Bft) W-SW 250 0 min 0,000 mm 0,0 UV-I 19 W/m 5,5 C 5,9 C 4,8 km/h (1 Bft) 93,33 %
19.03.2017 07:34 5,9 C 97 % 1011,8 hPa 0,0 l/m 4,8 km/h (1 Bft) W 268 0 min 0,000 mm 0,0 UV-I 19 W/m 5,5 C 5,9 C 6,4 km/h (2 Bft) 90,91 %
19.03.2017 07:35 5,9 C 97 % 1011,8 hPa 0,0 l/m 4,9 km/h (1 Bft) W 262 0 min 0,000 mm 0,0 UV-I 19 W/m 5,5 C 5,9 C 6,4 km/h (2 Bft) 91,30 %
19.03.2017 07:36 5,9 C 97 % 1011,8 hPa 0,0 l/m 5,0 km/h (1 Bft) W-SW 248 0 min 0,000 mm 0,0 UV-I 20 W/m 5,5 C 5,9 C 6,4 km/h (2 Bft) 96,30 %
19.03.2017 07:37 5,9 C 97 % 1011,8 hPa 0,0 l/m 4,3 km/h (1 Bft) W 263 0 min 0,000 mm 0,0 UV-I 21 W/m 5,5 C 5,9 C 4,8 km/h (1 Bft) 86,96 %
19.03.2017 07:38 5,9 C 97 % 1011,8 hPa 0,0 l/m 5,9 km/h (2 Bft) W-SW 238 0 min 0,000 mm 0,0 UV-I 21 W/m 5,5 C 5,9 C 11,3 km/h (2 Bft) 95,83 %
19.03.2017 07:39 5,9 C 97 % 1011,8 hPa 0,0 l/m 5,0 km/h (1 Bft) W-SW 240 0 min 0,000 mm 0,0 UV-I 21 W/m 5,5 C 5,9 C 8,0 km/h (2 Bft) 91,30 %
19.03.2017 07:40 5,9 C 97 % 1011,7 hPa 0,0 l/m 5,0 km/h (1 Bft) W 262 0 min 0,000 mm 0,0 UV-I 21 W/m 5,5 C 5,9 C 6,4 km/h (2 Bft) 93,33 %
19.03.2017 07:41 5,9 C 97 % 1011,6 hPa 0,0 l/m 3,6 km/h (1 Bft) SW 236 0 min 0,000 mm 0,0 UV-I 22 W/m 5,5 C 5,9 C 4,8 km/h (1 Bft) 95,65 %
19.03.2017 07:42 5,9 C 97 % 1011,6 hPa 0,0 l/m 3,5 km/h (1 Bft) SW 236 0 min 0,000 mm 0,0 UV-I 25 W/m 5,5 C 5,9 C 4,8 km/h (1 Bft) 91,67 %
19.03.2017 07:43 5,9 C 97 % 1011,6 hPa 0,0 l/m 2,8 km/h (1 Bft) W-SW 247 0 min 0,000 mm 0,0 UV-I 26 W/m 5,5 C 5,9 C 4,8 km/h (1 Bft) 92,31 %
19.03.2017 07:44 5,9 C 97 % 1011,6 hPa 0,0 l/m 3,9 km/h (1 Bft) W-SW 247 0 min 0,000 mm 0,0 UV-I 26 W/m 5,5 C 5,9 C 6,4 km/h (2 Bft) 92,59 %
19.03.2017 07:45 5,9 C 97 % 1011,7 hPa 0,0 l/m 6,1 km/h (2 Bft) W 259 0 min 0,000 mm 0,0 UV-I 26 W/m 5,5 C 5,9 C 9,7 km/h (2 Bft) 95,65 %
19.03.2017 07:46 5,9 C 97 % 1011,7 hPa 0,2 l/m 4,9 km/h (1 Bft) W 273 0 min 0,000 mm 0,0 UV-I 26 W/m 5,5 C 5,9 C 6,4 km/h (2 Bft) 93,33 %
19.03.2017 07:47 5,9 C 97 % 1011,7 hPa 0,0 l/m 3,8 km/h (1 Bft) W 273 0 min 0,000 mm 0,0 UV-I 26 W/m 5,5 C 5,9 C 4,8 km/h (1 Bft) 100,00 %
19.03.2017 07:48 5,9 C 97 % 1011,7 hPa 0,0 l/m 4,2 km/h (1 Bft) W-SW 257 0 min 0,000 mm 0,0 UV-I 25 W/m 5,5 C 5,9 C 4,8 km/h (1 Bft) 91,67 %
19.03.2017 07:49 5,9 C 97 % 1011,7 hPa 0,0 l/m 2,8 km/h (1 Bft) W-SW 244 0 min 0,000 mm 0,0 UV-I 25 W/m 5,5 C 5,9 C 4,8 km/h (1 Bft) 100,00 %
19.03.2017 07:50 5,9 C 97 % 1011,8 hPa 0,0 l/m 2,5 km/h (1 Bft) W-SW 245 0 min 0,000 mm 0,0 UV-I 24 W/m 5,5 C 5,9 C 3,2 km/h (1 Bft) 91,67 %
19.03.2017 07:51 6,0 C 97 % 1011,8 hPa 0,0 l/m 3,9 km/h (1 Bft) W-SW 255 0 min 0,000 mm 0,0 UV-I 23 W/m 5,6 C 6,0 C 6,4 km/h (2 Bft) 100,00 %
19.03.2017 07:52 6,0 C 97 % 1011,8 hPa 0,0 l/m 5,0 km/h (1 Bft) W-SW 255 0 min 0,000 mm 0,0 UV-I 23 W/m 5,6 C 6,0 C 6,4 km/h (2 Bft) 95,65 %
19.03.2017 07:53 6,0 C 97 % 1011,8 hPa 0,0 l/m 5,4 km/h (1 Bft) W-SW 256 0 min 0,000 mm 0,0 UV-I 23 W/m 5,6 C 6,0 C 6,4 km/h (2 Bft) 91,67 %
19.03.2017 07:54 5,9 C 97 % 1011,8 hPa 0,0 l/m 2,6 km/h (1 Bft) W-SW 256 0 min 0,000 mm 0,0 UV-I 23 W/m 5,5 C 5,9 C 4,8 km/h (1 Bft) 91,30 %
19.03.2017 07:55 6,0 C 97 % 1011,8 hPa 0,0 l/m 3,0 km/h (1 Bft) W-SW 256 0 min 0,000 mm 0,0 UV-I 23 W/m 5,6 C 6,0 C 4,8 km/h (1 Bft) 95,83 %
19.03.2017 07:56 6,0 C 97 % 1011,8 hPa 0,0 l/m 3,0 km/h (1 Bft) W 259 0 min 0,000 mm 0,0 UV-I 21 W/m 5,6 C 6,0 C 4,8 km/h (1 Bft) 100,00 %
19.03.2017 07:57 5,9 C 97 % 1011,8 hPa 0,0 l/m 2,1 km/h (1 Bft) W 259 0 min 0,000 mm 0,0 UV-I 21 W/m 5,5 C 5,9 C 3,2 km/h (1 Bft) 91,67 %
19.03.2017 07:58 5,9 C 97 % 1011,8 hPa 0,0 l/m 0,4 km/h (0 Bft) W 259 0 min 0,000 mm 0,0 UV-I 21 W/m 5,5 C 5,9 C 1,6 km/h (1 Bft) 100,00 %
19.03.2017 07:59 5,9 C 97 % 1011,8 hPa 0,0 l/m 0,9 km/h (0 Bft) W 259 0 min 0,000 mm 0,0 UV-I 22 W/m 5,5 C 5,9 C 3,2 km/h (1 Bft) 93,33 %
19.03.2017 08:00 6,0 C 97 % 1011,8 hPa 0,0 l/m 1,3 km/h (1 Bft) W 259 0 min 0,000 mm 0,0 UV-I 25 W/m 5,6 C 6,0 C 1,6 km/h (1 Bft) 100,00 %
19.03.2017 08:01 5,9 C 97 % 1011,8 hPa 0,0 l/m 0,4 km/h (0 Bft) W 259 0 min 0,000 mm 0,0 UV-I 25 W/m 5,5 C 5,9 C 1,6 km/h (1 Bft) 92,59 %
19.03.2017 08:02 5,9 C 97 % 1011,8 hPa 0,2 l/m 0,6 km/h (0 Bft) W 259 0 min 0,000 mm 0,0 UV-I 27 W/m 5,5 C 5,9 C 1,6 km/h (1 Bft) 100,00 %
19.03.2017 08:03 6,0 C 97 % 1011,8 hPa 0,0 l/m 1,7 km/h (1 Bft) W 259 0 min 0,000 mm 0,0 UV-I 29 W/m 5,6 C 6,0 C 3,2 km/h (1 Bft) 96,30 %
19.03.2017 08:04 6,0 C 97 % 1011,8 hPa 0,0 l/m 1,7 km/h (1 Bft) W 259 0 min 0,000 mm 0,0 UV-I 31 W/m 5,6 C 6,0 C 3,2 km/h (1 Bft) 91,30 %
19.03.2017 08:05 6,0 C 97 % 1011,7 hPa 0,0 l/m 1,9 km/h (1 Bft) W 259 0 min 0,000 mm 0,0 UV-I 32 W/m 5,6 C 6,0 C 3,2 km/h (1 Bft) 100,00 %
19.03.2017 08:06 6,0 C 97 % 1011,8 hPa 0,0 l/m 1,5 km/h (1 Bft) W 259 0 min 0,000 mm 0,0 UV-I 30 W/m 5,6 C 6,0 C 3,2 km/h (1 Bft) 96,15 %
19.03.2017 08:07 6,0 C 97 % 1011,8 hPa 0,0 l/m 2,7 km/h (1 Bft) W 259 0 min 0,000 mm 0,0 UV-I 32 W/m 5,6 C 6,0 C 3,2 km/h (1 Bft) 96,30 %
19.03.2017 08:08 6,0 C 97 % 1011,8 hPa 0,0 l/m 1,1 km/h (1 Bft) W 259 0 min 0,000 mm 0,0 UV-I 33 W/m 5,6 C 6,0 C 3,2 km/h (1 Bft) 95,65 %
19.03.2017 08:09 6,0 C 97 % 1011,7 hPa 0,2 l/m 0,1 km/h (0 Bft) W 259 0 min 0,000 mm 0,0 UV-I 33 W/m 5,6 C 6,0 C 1,6 km/h (1 Bft) 100,00 %
19.03.2017 08:10 6,0 C 97 % 1011,7 hPa 0,0 l/m 1,5 km/h (1 Bft) W 259 0 min 0,000 mm 0,0 UV-I 32 W/m 5,6 C 6,0 C 3,2 km/h (1 Bft) 93,33 %
19.03.2017 08:11 6,0 C 97 % 1011,7 hPa 0,0 l/m 1,3 km/h (1 Bft) W 259 0 min 0,000 mm 0,0 UV-I 33 W/m 5,6 C 6,0 C 1,6 km/h (1 Bft) 92,31 %
19.03.2017 08:12 6,0 C 97 % 1011,7 hPa 0,0 l/m 0,6 km/h (0 Bft) W 259 0 min 0,000 mm 0,0 UV-I 33 W/m 5,6 C 6,0 C 1,6 km/h (1 Bft) 96,15 %
19.03.2017 08:13 6,0 C 97 % 1011,8 hPa 0,0 l/m 0,9 km/h (0 Bft) W 259 0 min 0,000 mm 0,0 UV-I 33 W/m 5,6 C 6,0 C 1,6 km/h (1 Bft) 93,33 %
19.03.2017 08:14 6,0 C 97 % 1011,8 hPa 0,0 l/m 1,1 km/h (1 Bft) W 259 0 min 0,000 mm 0,0 UV-I 32 W/m 5,6 C 6,0 C 1,6 km/h (1 Bft) 95,83 %
19.03.2017 08:15 6,0 C 97 % 1011,8 hPa 0,2 l/m 2,3 km/h (1 Bft) W 259 0 min 0,000 mm 0,0 UV-I 32 W/m 5,6 C 6,0 C 4,8 km/h (1 Bft) 91,30 %
19.03.2017 08:16 6,0 C 97 % 1011,8 hPa 0,0 l/m 2,1 km/h (1 Bft) W 259 0 min 0,000 mm 0,0 UV-I 33 W/m 5,6 C 6,0 C 3,2 km/h (1 Bft) 95,83 %
19.03.2017 08:17 6,0 C 97 % 1011,8 hPa 0,0 l/m 2,5 km/h (1 Bft) W 259 0 min 0,000 mm 0,0 UV-I 32 W/m 5,6 C 6,0 C 3,2 km/h (1 Bft) 96,15 %
19.03.2017 08:18 6,1 C 97 % 1011,8 hPa 0,0 l/m 0,5 km/h (0 Bft) W 259 0 min 0,000 mm 0,0 UV-I 32 W/m 5,7 C 6,1 C 3,2 km/h (1 Bft) 95,83 %
19.03.2017 08:19 6,0 C 97 % 1011,8 hPa 0,0 l/m 1,0 km/h (0 Bft) W 259 0 min 0,000 mm 0,0 UV-I 30 W/m 5,6 C 6,0 C 1,6 km/h (1 Bft) 95,65 %
19.03.2017 08:20 6,1 C 97 % 1011,8 hPa 0,0 l/m 0,2 km/h (0 Bft) W 259 0 min 0,000 mm 0,0 UV-I 32 W/m 5,7 C 6,1 C 1,6 km/h (1 Bft) 100,00 %
19.03.2017 08:21 6,1 C 97 % 1011,8 hPa 0,0 l/m 0,0 km/h (0 Bft) W 259 0 min 0,000 mm 0,0 UV-I 32 W/m 5,7 C 6,1 C 0,0 km/h (0 Bft) 95,65 %
19.03.2017 08:22 6,1 C 97 % 1011,8 hPa 0,0 l/m 1,5 km/h (1 Bft) W 259 0 min 0,000 mm 0,0 UV-I 32 W/m 5,7 C 6,1 C 3,2 km/h (1 Bft) 91,67 %
19.03.2017 08:23 6,1 C 97 % 1011,8 hPa 0,0 l/m 1,3 km/h (1 Bft) W 259 0 min 0,000 mm 0,0 UV-I 32 W/m 5,7 C 6,1 C 3,2 km/h (1 Bft) 96,15 %
19.03.2017 08:24 6,1 C 97 % 1011,8 hPa 0,2 l/m 0,5 km/h (0 Bft) W 259 0 min 0,000 mm 0,0 UV-I 32 W/m 5,7 C 6,1 C 1,6 km/h (1 Bft) 86,67 %
19.03.2017 08:25 6,1 C 97 % 1011,8 hPa 0,0 l/m 0,1 km/h (0 Bft) W 259 0 min 0,000 mm 0,0 UV-I 33 W/m 5,7 C 6,1 C 1,6 km/h (1 Bft) 91,30 %
19.03.2017 08:26 6,1 C 97 % 1011,9 hPa 0,0 l/m 0,8 km/h (0 Bft) W 259 0 min 0,000 mm 0,0 UV-I 33 W/m 5,7 C 6,1 C 1,6 km/h (1 Bft) 95,83 %
19.03.2017 08:27 6,1 C 97 % 1011,9 hPa 0,0 l/m 2,6 km/h (1 Bft) W 259 0 min 0,000 mm 0,0 UV-I 32 W/m 5,7 C 6,1 C 4,8 km/h (1 Bft) 95,65 %
19.03.2017 08:28 6,1 C 97 % 1011,9 hPa 0,0 l/m 2,4 km/h (1 Bft) W 259 0 min 0,000 mm 0,0 UV-I 32 W/m 5,7 C 6,1 C 3,2 km/h (1 Bft) 100,00 %
19.03.2017 08:29 6,1 C 97 % 1011,9 hPa 0,2 l/m 1,7 km/h (1 Bft) W 259 0 min 0,000 mm 0,0 UV-I 32 W/m 5,7 C 6,1 C 3,2 km/h (1 Bft) 96,88 %
19.03.2017 08:30 6,1 C 97 % 1011,9 hPa 0,0 l/m 0,4 km/h (0 Bft) W 259 0 min 0,000 mm 0,0 UV-I 32 W/m 5,7 C 6,1 C 1,6 km/h (1 Bft) 92,31 %
19.03.2017 08:31 6,1 C 97 % 1011,9 hPa 0,0 l/m 0,2 km/h (0 Bft) W 259 0 min 0,000 mm 0,0 UV-I 32 W/m 5,7 C 6,1 C 1,6 km/h (1 Bft) 100,00 %
19.03.2017 08:32 6,1 C 97 % 1011,9 hPa 0,0 l/m 0,3 km/h (0 Bft) W 259 0 min 0,000 mm 0,0 UV-I 32 W/m 5,7 C 6,1 C 1,6 km/h (1 Bft) 96,30 %
19.03.2017 08:33 6,1 C 97 % 1011,9 hPa 0,0 l/m 0,0 km/h (0 Bft) W-SW 258 0 min 0,000 mm 0,0 UV-I 32 W/m 5,7 C 6,1 C 0,0 km/h (0 Bft) 100,00 %
19.03.2017 08:34 6,2 C 97 % 1011,9 hPa 0,0 l/m 0,1 km/h (0 Bft) W 259 0 min 0,000 mm 0,0 UV-I 33 W/m 5,8 C 6,2 C 1,6 km/h (1 Bft) 95,65 %
19.03.2017 08:35 6,2 C 97 % 1011,9 hPa 0,0 l/m 0,1 km/h (0 Bft) W 259 0 min 0,000 mm 0,0 UV-I 33 W/m 5,8 C 6,2 C 1,6 km/h (1 Bft) 96,30 %
19.03.2017 08:36 6,2 C 97 % 1011,9 hPa 0,2 l/m 0,7 km/h (0 Bft) W 259 0 min 0,000 mm 0,0 UV-I 33 W/m 5,8 C 6,2 C 1,6 km/h (1 Bft) 92,31 %
19.03.2017 08:37 6,2 C 97 % 1011,9 hPa 0,0 l/m 0,4 km/h (0 Bft) W 259 0 min 0,000 mm 0,0 UV-I 33 W/m 5,8 C 6,2 C 1,6 km/h (1 Bft) 91,67 %
19.03.2017 08:38 6,2 C 97 % 1012,0 hPa 0,0 l/m 0,5 km/h (0 Bft) W-SW 258 0 min 0,000 mm 0,0 UV-I 38 W/m 5,8 C 6,2 C 1,6 km/h (1 Bft) 96,15 %
19.03.2017 08:39 6,2 C 97 % 1012,0 hPa 0,0 l/m 0,9 km/h (0 Bft) W 259 0 min 0,000 mm 0,0 UV-I 39 W/m 5,8 C 6,2 C 3,2 km/h (1 Bft) 92,31 %
19.03.2017 08:40 6,2 C 97 % 1012,0 hPa 0,0 l/m 1,6 km/h (1 Bft) W 259 0 min 0,000 mm 0,0 UV-I 39 W/m 5,8 C 6,2 C 3,2 km/h (1 Bft) 100,00 %
19.03.2017 08:41 6,2 C 97 % 1012,1 hPa 0,0 l/m 1,8 km/h (1 Bft) W 259 0 min 0,000 mm 0,0 UV-I 39 W/m 5,8 C 6,2 C 3,2 km/h (1 Bft) 96,30 %
19.03.2017 08:42 6,2 C 98 % 1012,0 hPa 0,2 l/m 1,4 km/h (1 Bft) W 259 0 min 0,000 mm 0,0 UV-I 39 W/m 5,9 C 6,2 C 3,2 km/h (1 Bft) 92,86 %
19.03.2017 08:43 6,2 C 97 % 1012,1 hPa 0,0 l/m 0,0 km/h (0 Bft) W 259 0 min 0,000 mm 0,0 UV-I 40 W/m 5,8 C 6,2 C 0,0 km/h (0 Bft) 95,83 %
19.03.2017 08:44 6,2 C 97 % 1012,0 hPa 0,0 l/m 0,0 km/h (0 Bft) W 259 0 min 0,000 mm 0,0 UV-I 41 W/m 5,8 C 6,2 C 0,0 km/h (0 Bft) 100,00 %
19.03.2017 08:45 6,2 C 97 % 1012,0 hPa 0,0 l/m 0,2 km/h (0 Bft) W 259 0 min 0,000 mm 0,0 UV-I 42 W/m 5,8 C 6,2 C 1,6 km/h (1 Bft) 100,00 %
19.03.2017 08:46 6,2 C 97 % 1012,1 hPa 0,0 l/m 0,8 km/h (0 Bft) W 259 0 min 0,000 mm 0,0 UV-I 44 W/m 5,8 C 6,2 C 1,6 km/h (1 Bft) 100,00 %
19.03.2017 08:47 6,2 C 97 % 1012,0 hPa 0,0 l/m 0,5 km/h (0 Bft) W 259 0 min 0,000 mm 0,0 UV-I 42 W/m 5,8 C 6,2 C 1,6 km/h (1 Bft) 100,00 %
19.03.2017 08:48 6,2 C 97 % 1012,0 hPa 0,0 l/m 0,8 km/h (0 Bft) W 259 0 min 0,000 mm 0,0 UV-I 42 W/m 5,8 C 6,2 C 1,6 km/h (1 Bft) 100,00 %
19.03.2017 08:49 6,2 C 97 % 1012,1 hPa 0,0 l/m 0,7 km/h (0 Bft) W 259 0 min 0,000 mm 0,0 UV-I 42 W/m 5,8 C 6,2 C 1,6 km/h (1 Bft) 97,37 %
19.03.2017 08:50 6,2 C 97 % 1012,0 hPa 0,2 l/m 2,1 km/h (1 Bft) W 259 0 min 0,000 mm 0,0 UV-I 42 W/m 5,8 C 6,2 C 3,2 km/h (1 Bft) 95,83 %
19.03.2017 08:51 6,2 C 97 % 1012,1 hPa 0,0 l/m 1,8 km/h (1 Bft) W 259 0 min 0,000 mm 0,0 UV-I 42 W/m 5,8 C 6,2 C 3,2 km/h (1 Bft) 100,00 %
19.03.2017 08:52 6,2 C 97 % 1012,1 hPa 0,0 l/m 0,5 km/h (0 Bft) W 259 0 min 0,000 mm 0,0 UV-I 41 W/m 5,8 C 6,2 C 1,6 km/h (1 Bft) 91,67 %
19.03.2017 08:53 6,2 C 97 % 1012,1 hPa 0,0 l/m 0,1 km/h (0 Bft) W-SW 258 0 min 0,000 mm 0,0 UV-I 39 W/m 5,8 C 6,2 C 1,6 km/h (1 Bft) 100,00 %
19.03.2017 08:54 6,2 C 97 % 1012,1 hPa 0,0 l/m 1,3 km/h (1 Bft) W 259 0 min 0,000 mm 0,0 UV-I 39 W/m 5,8 C 6,2 C 1,6 km/h (1 Bft) 95,83 %
19.03.2017 08:55 6,2 C 97 % 1012,1 hPa 0,2 l/m 1,2 km/h (1 Bft) W 259 0 min 0,000 mm 0,0 UV-I 40 W/m 5,8 C 6,2 C 3,2 km/h (1 Bft) 92,86 %
19.03.2017 08:56 6,2 C 97 % 1012,1 hPa 0,0 l/m 0,5 km/h (0 Bft) W 259 0 min 0,000 mm 0,0 UV-I 42 W/m 5,8 C 6,2 C 1,6 km/h (1 Bft) 100,00 %
19.03.2017 08:57 6,2 C 97 % 1012,1 hPa 0,0 l/m 0,3 km/h (0 Bft) W 259 0 min 0,000 mm 0,0 UV-I 44 W/m 5,8 C 6,2 C 1,6 km/h (1 Bft) 100,00 %
19.03.2017 08:58 6,2 C 97 % 1012,1 hPa 0,0 l/m 1,2 km/h (1 Bft) W 259 0 min 0,000 mm 0,0 UV-I 45 W/m 5,8 C 6,2 C 1,6 km/h (1 Bft) 100,00 %
19.03.2017 08:59 6,2 C 97 % 1012,1 hPa 0,2 l/m 1,0 km/h (0 Bft) W 259 0 min 0,000 mm 0,0 UV-I 46 W/m 5,8 C 6,2 C 1,6 km/h (1 Bft) 100,00 %
19.03.2017 09:00 6,2 C 97 % 1012,1 hPa 0,0 l/m 0,1 km/h (0 Bft) W-SW 258 0 min 0,026 mm 0,0 UV-I 45 W/m 5,8 C 6,2 C 1,6 km/h (1 Bft) 100,00 %
19.03.2017 09:01 6,2 C 97 % 1012,1 hPa 0,0 l/m 0,0 km/h (0 Bft) W 259 0 min 0,000 mm 0,0 UV-I 44 W/m 5,8 C 6,2 C 0,0 km/h (0 Bft) 96,55 %
19.03.2017 09:02 6,2 C 97 % 1012,1 hPa 0,0 l/m 0,0 km/h (0 Bft) W 259 0 min 0,000 mm 0,0 UV-I 45 W/m 5,8 C 6,2 C 0,0 km/h (0 Bft) 100,00 %
19.03.2017 09:03 6,2 C 97 % 1012,2 hPa 0,2 l/m 0,0 km/h (0 Bft) W 259 0 min 0,000 mm 0,0 UV-I 46 W/m 5,8 C 6,2 C 0,0 km/h (0 Bft) 100,00 %
19.03.2017 09:04 6,2 C 97 % 1012,1 hPa 0,0 l/m 0,0 km/h (0 Bft) W 259 0 min 0,000 mm 0,0 UV-I 46 W/m 5,8 C 6,2 C 0,0 km/h (0 Bft) 100,00 %
19.03.2017 09:05 6,2 C 97 % 1012,1 hPa 0,0 l/m 0,0 km/h (0 Bft) W 259 0 min 0,000 mm 0,0 UV-I 46 W/m 5,8 C 6,2 C 0,0 km/h (0 Bft) 92,31 %
19.03.2017 09:06 6,2 C 97 % 1012,2 hPa 0,0 l/m 0,0 km/h (0 Bft) W 259 0 min 0,000 mm 0,0 UV-I 46 W/m 5,8 C 6,2 C 0,0 km/h (0 Bft) 92,59 %
19.03.2017 09:07 6,2 C 97 % 1012,2 hPa 0,0 l/m 0,0 km/h (0 Bft) W 259 0 min 0,000 mm 0,0 UV-I 49 W/m 5,8 C 6,2 C 0,0 km/h (0 Bft) 93,33 %
19.03.2017 09:08 6,3 C 97 % 1012,1 hPa 0,2 l/m 0,0 km/h (0 Bft) W 259 0 min 0,000 mm 0,0 UV-I 53 W/m 5,9 C 6,3 C 0,0 km/h (0 Bft) 96,15 %
19.03.2017 09:09 6,3 C 98 % 1012,1 hPa 0,0 l/m 0,0 km/h (0 Bft) W 259 0 min 0,000 mm 0,0 UV-I 58 W/m 6,0 C 6,3 C 0,0 km/h (0 Bft) 95,83 %
19.03.2017 09:10 6,3 C 97 % 1012,1 hPa 0,0 l/m 0,0 km/h (0 Bft) W 259 0 min 0,000 mm 0,0 UV-I 65 W/m 5,9 C 6,3 C 0,0 km/h (0 Bft) 88,46 %
19.03.2017 09:11 6,3 C 97 % 1012,1 hPa 0,0 l/m 0,0 km/h (0 Bft) W 259 0 min 0,000 mm 0,0 UV-I 73 W/m 5,9 C 6,3 C 0,0 km/h (0 Bft) 100,00 %
19.03.2017 09:12 6,2 C 97 % 1012,1 hPa 0,0 l/m 0,0 km/h (0 Bft) W 259 0 min 0,000 mm 0,0 UV-I 69 W/m 5,8 C 6,2 C 0,0 km/h (0 Bft) 91,30 %
19.03.2017 09:13 6,2 C 97 % 1012,1 hPa 0,2 l/m 0,0 km/h (0 Bft) W 259 0 min 0,000 mm 0,0 UV-I 65 W/m 5,8 C 6,2 C 0,0 km/h (0 Bft) 95,83 %
19.03.2017 09:14 6,2 C 97 % 1012,1 hPa 0,0 l/m 0,0 km/h (0 Bft) W 259 0 min 0,000 mm 0,0 UV-I 62 W/m 5,8 C 6,2 C 0,0 km/h (0 Bft) 92,86 %
19.03.2017 09:15 6,3 C 97 % 1012,1 hPa 0,0 l/m 1,3 km/h (1 Bft) W 259 0 min 0,000 mm 0,0 UV-I 62 W/m 5,9 C 6,3 C 3,2 km/h (1 Bft) 96,30 %
19.03.2017 09:16 6,3 C 97 % 1012,1 hPa 0,0 l/m 0,5 km/h (0 Bft) W 259 0 min 0,000 mm 0,0 UV-I 63 W/m 5,9 C 6,3 C 1,6 km/h (1 Bft) 95,65 %
19.03.2017 09:17 6,3 C 97 % 1012,1 hPa 0,0 l/m 0,7 km/h (0 Bft) SW 222 0 min 0,000 mm 0,0 UV-I 67 W/m 5,9 C 6,3 C 1,6 km/h (1 Bft) 95,83 %
19.03.2017 09:18 6,3 C 97 % 1012,1 hPa 0,0 l/m 1,1 km/h (1 Bft) SW 222 0 min 0,000 mm 0,0 UV-I 68 W/m 5,9 C 6,3 C 3,2 km/h (1 Bft) 92,31 %
19.03.2017 09:19 6,3 C 97 % 1012,1 hPa 0,2 l/m 1,6 km/h (1 Bft) SW 222 0 min 0,000 mm 0,0 UV-I 69 W/m 5,9 C 6,3 C 3,2 km/h (1 Bft) 96,30 %
19.03.2017 09:20 6,3 C 97 % 1012,1 hPa 0,0 l/m 0,5 km/h (0 Bft) SW 222 0 min 0,000 mm 0,0 UV-I 73 W/m 5,9 C 6,3 C 1,6 km/h (1 Bft) 100,00 %
19.03.2017 09:21 6,3 C 97 % 1012,1 hPa 0,0 l/m 0,4 km/h (0 Bft) SW 222 0 min 0,000 mm 0,0 UV-I 76 W/m 5,9 C 6,3 C 1,6 km/h (1 Bft) 95,83 %
19.03.2017 09:22 6,3 C 97 % 1012,1 hPa 0,0 l/m 1,4 km/h (1 Bft) SW 222 0 min 0,000 mm 0,0 UV-I 79 W/m 5,9 C 6,3 C 3,2 km/h (1 Bft) 96,15 %
19.03.2017 09:23 6,3 C 97 % 1012,1 hPa 0,0 l/m 2,3 km/h (1 Bft) SW 222 0 min 0,000 mm 0,0 UV-I 80 W/m 5,9 C 6,3 C 3,2 km/h (1 Bft) 86,67 %
19.03.2017 09:24 6,3 C 97 % 1012,1 hPa 0,0 l/m 0,6 km/h (0 Bft) SW 222 0 min 0,000 mm 0,0 UV-I 85 W/m 5,9 C 6,3 C 1,6 km/h (1 Bft) 95,65 %
19.03.2017 09:25 6,4 C 97 % 1012,1 hPa 0,2 l/m 1,4 km/h (1 Bft) SW 222 0 min 0,000 mm 0,0 UV-I 81 W/m 6,0 C 6,4 C 3,2 km/h (1 Bft) 95,83 %
19.03.2017 09:26 6,4 C 97 % 1012,1 hPa 0,0 l/m 0,1 km/h (0 Bft) SW 222 0 min 0,000 mm 0,0 UV-I 74 W/m 6,0 C 6,4 C 1,6 km/h (1 Bft) 92,31 %
19.03.2017 09:27 6,4 C 97 % 1012,1 hPa 0,0 l/m 1,4 km/h (1 Bft) SW 222 0 min 0,000 mm 0,0 UV-I 71 W/m 6,0 C 6,4 C 4,8 km/h (1 Bft) 96,30 %
19.03.2017 09:28 6,4 C 97 % 1012,1 hPa 0,0 l/m 1,3 km/h (1 Bft) SW 222 0 min 0,000 mm 0,0 UV-I 73 W/m 6,0 C 6,4 C 3,2 km/h (1 Bft) 100,00 %
19.03.2017 09:29 6,3 C 97 % 1012,1 hPa 0,0 l/m 0,8 km/h (0 Bft) SW 222 0 min 0,000 mm 0,0 UV-I 76 W/m 5,9 C 6,3 C 3,2 km/h (1 Bft) 96,55 %
19.03.2017 09:30 6,3 C 97 % 1012,0 hPa 0,0 l/m 1,0 km/h (0 Bft) SW 222 0 min 0,000 mm 0,0 UV-I 80 W/m 5,9 C 6,3 C 1,6 km/h (1 Bft) 96,00 %
19.03.2017 09:31 6,3 C 97 % 1012,1 hPa 0,0 l/m 0,3 km/h (0 Bft) SW 222 0 min 0,000 mm 0,0 UV-I 81 W/m 5,9 C 6,3 C 1,6 km/h (1 Bft) 100,00 %
19.03.2017 09:32 6,3 C 97 % 1012,1 hPa 0,0 l/m 1,3 km/h (1 Bft) SW 222 0 min 0,000 mm 0,0 UV-I 79 W/m 5,9 C 6,3 C 3,2 km/h (1 Bft) 91,67 %
19.03.2017 09:33 6,4 C 97 % 1012,0 hPa 0,0 l/m 0,7 km/h (0 Bft) SW 222 0 min 0,000 mm 0,0 UV-I 78 W/m 6,0 C 6,4 C 3,2 km/h (1 Bft) 100,00 %
19.03.2017 09:34 6,4 C 97 % 1012,0 hPa 0,0 l/m 0,1 km/h (0 Bft) SW 222 0 min 0,000 mm 0,0 UV-I 79 W/m 6,0 C 6,4 C 1,6 km/h (1 Bft) 95,83 %
19.03.2017 09:35 6,5 C 97 % 1012,0 hPa 0,0 l/m 1,7 km/h (1 Bft) SW 222 0 min 0,000 mm 0,0 UV-I 77 W/m 6,1 C 6,5 C 3,2 km/h (1 Bft) 100,00 %
19.03.2017 09:36 6,6 C 97 % 1012,1 hPa 0,2 l/m 0,2 km/h (0 Bft) SW 222 0 min 0,000 mm 0,0 UV-I 78 W/m 6,2 C 6,6 C 1,6 km/h (1 Bft) 95,83 %
19.03.2017 09:37 6,5 C 97 % 1012,1 hPa 0,0 l/m 0,6 km/h (0 Bft) SW 221 0 min 0,000 mm 0,0 UV-I 81 W/m 6,1 C 6,5 C 1,6 km/h (1 Bft) 96,15 %
19.03.2017 09:38 6,5 C 97 % 1012,0 hPa 0,0 l/m 0,4 km/h (0 Bft) SW 221 0 min 0,000 mm 0,0 UV-I 91 W/m 6,1 C 6,5 C 1,6 km/h (1 Bft) 100,00 %
19.03.2017 09:39 6,5 C 97 % 1012,0 hPa 0,0 l/m 0,5 km/h (0 Bft) SW 221 0 min 0,000 mm 0,0 UV-I 97 W/m 6,1 C 6,5 C 1,6 km/h (1 Bft) 95,65 %
19.03.2017 09:40 6,4 C 97 % 1012,0 hPa 0,0 l/m 1,5 km/h (1 Bft) SW 221 0 min 0,000 mm 0,0 UV-I 88 W/m 6,0 C 6,4 C 3,2 km/h (1 Bft) 100,00 %
19.03.2017 09:41 6,5 C 97 % 1012,1 hPa 0,0 l/m 1,6 km/h (1 Bft) SW 221 0 min 0,000 mm 0,0 UV-I 78 W/m 6,1 C 6,5 C 3,2 km/h (1 Bft) 96,15 %
19.03.2017 09:42 6,5 C 97 % 1012,0 hPa 0,0 l/m 1,6 km/h (1 Bft) SW 221 0 min 0,000 mm 0,0 UV-I 76 W/m 6,1 C 6,5 C 3,2 km/h (1 Bft) 96,30 %
19.03.2017 09:43 6,5 C 97 % 1012,0 hPa 0,2 l/m 0,8 km/h (0 Bft) SW 221 0 min 0,000 mm 0,0 UV-I 86 W/m 6,1 C 6,5 C 3,2 km/h (1 Bft) 100,00 %
19.03.2017 09:44 6,5 C 97 % 1012,0 hPa 0,0 l/m 1,2 km/h (1 Bft) S-SW 212 0 min 0,000 mm 0,0 UV-I 94 W/m 6,1 C 6,5 C 3,2 km/h (1 Bft) 100,00 %
19.03.2017 09:46 6,6 C 97 % 1011,9 hPa 0,0 l/m 1,5 km/h (1 Bft) S 175 0 min 0,000 mm 0,0 UV-I 84 W/m 6,2 C 6,6 C 4,8 km/h (1 Bft) 95,45 %
19.03.2017 09:48 6,6 C 97 % 1011,9 hPa 0,0 l/m 1,3 km/h (1 Bft) S 175 0 min 0,000 mm 0,0 UV-I 77 W/m 6,2 C 6,6 C 3,2 km/h (1 Bft) 100,00 %
19.03.2017 09:50 6,6 C 97 % 1012,0 hPa 0,0 l/m 1,4 km/h (1 Bft) S 174 0 min 0,000 mm 0,0 UV-I 77 W/m 6,2 C 6,6 C 4,8 km/h (1 Bft) 90,00 %
19.03.2017 09:52 6,6 C 97 % 1012,0 hPa 0,2 l/m 3,5 km/h (1 Bft) S 176 0 min 0,000 mm 0,0 UV-I 84 W/m 6,2 C 6,6 C 6,4 km/h (2 Bft) 97,87 %
19.03.2017 09:54 6,7 C 97 % 1012,0 hPa 0,0 l/m 0,9 km/h (0 Bft) S 176 0 min 0,000 mm 0,0 UV-I 94 W/m 6,3 C 6,7 C 3,2 km/h (1 Bft) 95,12 %
19.03.2017 09:56 6,7 C 97 % 1012,0 hPa 0,0 l/m 1,2 km/h (1 Bft) S 176 0 min 0,000 mm 0,0 UV-I 77 W/m 6,3 C 6,7 C 4,8 km/h (1 Bft) 97,56 %
19.03.2017 09:58 6,7 C 97 % 1011,9 hPa 0,2 l/m 1,5 km/h (1 Bft) S 176 0 min 0,000 mm 0,0 UV-I 71 W/m 6,3 C 6,7 C 3,2 km/h (1 Bft) 96,43 %
19.03.2017 10:00 6,7 C 97 % 1011,9 hPa 0,0 l/m 0,5 km/h (0 Bft) S 176 0 min 0,000 mm 0,0 UV-I 74 W/m 6,3 C 6,7 C 3,2 km/h (1 Bft) 97,56 %
19.03.2017 10:02 6,8 C 97 % 1011,9 hPa 0,0 l/m 0,5 km/h (0 Bft) S 176 0 min 0,025 mm 0,0 UV-I 77 W/m 6,4 C 6,8 C 3,2 km/h (1 Bft) 98,00 %
19.03.2017 10:04 6,8 C 97 % 1011,8 hPa 0,0 l/m 0,5 km/h (0 Bft) S 176 0 min 0,000 mm 0,0 UV-I 77 W/m 6,4 C 6,8 C 1,6 km/h (1 Bft) 95,74 %
19.03.2017 10:06 6,8 C 97 % 1011,8 hPa 0,2 l/m 1,3 km/h (1 Bft) S 175 0 min 0,000 mm 0,0 UV-I 78 W/m 6,4 C 6,8 C 4,8 km/h (1 Bft) 100,00 %
19.03.2017 10:08 6,8 C 97 % 1011,8 hPa 0,0 l/m 2,0 km/h (1 Bft) S 175 0 min 0,000 mm 0,0 UV-I 77 W/m 6,4 C 6,8 C 4,8 km/h (1 Bft) 100,00 %
19.03.2017 10:10 6,8 C 97 % 1011,8 hPa 0,0 l/m 2,0 km/h (1 Bft) S 175 0 min 0,000 mm 0,0 UV-I 77 W/m 6,4 C 6,8 C 4,8 km/h (1 Bft) 96,23 %
19.03.2017 10:12 6,8 C 97 % 1011,9 hPa 0,0 l/m 0,7 km/h (0 Bft) S 175 0 min 0,000 mm 0,0 UV-I 73 W/m 6,4 C 6,8 C 3,2 km/h (1 Bft) 95,74 %
19.03.2017 10:14 6,8 C 97 % 1011,9 hPa 0,0 l/m 0,7 km/h (0 Bft) S 175 0 min 0,000 mm 0,0 UV-I 76 W/m 6,4 C 6,8 C 3,2 km/h (1 Bft) 98,00 %
19.03.2017 10:16 6,8 C 97 % 1011,9 hPa 0,0 l/m 1,0 km/h (0 Bft) S 175 0 min 0,000 mm 0,0 UV-I 70 W/m 6,4 C 6,8 C 3,2 km/h (1 Bft) 95,74 %
19.03.2017 10:18 6,9 C 97 % 1011,9 hPa 0,2 l/m 0,0 km/h (0 Bft) S 175 0 min 0,000 mm 0,0 UV-I 58 W/m 6,5 C 6,9 C 0,0 km/h (0 Bft) 100,00 %
19.03.2017 10:20 6,9 C 97 % 1011,9 hPa 0,0 l/m 0,0 km/h (0 Bft) S 175 0 min 0,000 mm 0,0 UV-I 51 W/m 6,5 C 6,9 C 0,0 km/h (0 Bft) 95,74 %
19.03.2017 10:22 6,8 C 97 % 1011,8 hPa 0,2 l/m 0,7 km/h (0 Bft) S 175 0 min 0,000 mm 0,0 UV-I 55 W/m 6,4 C 6,8 C 3,2 km/h (1 Bft) 100,00 %
19.03.2017 10:24 6,8 C 97 % 1011,9 hPa 0,0 l/m 0,2 km/h (0 Bft) S 175 0 min 0,000 mm 0,0 UV-I 56 W/m 6,4 C 6,8 C 3,2 km/h (1 Bft) 94,64 %
19.03.2017 10:26 6,9 C 97 % 1011,9 hPa 0,2 l/m 0,4 km/h (0 Bft) S 175 0 min 0,000 mm 0,0 UV-I 59 W/m 6,5 C 6,9 C 1,6 km/h (1 Bft) 97,37 %
19.03.2017 10:28 6,9 C 97 % 1011,9 hPa 0,0 l/m 0,3 km/h (0 Bft) S 175 0 min 0,000 mm 0,0 UV-I 61 W/m 6,5 C 6,9 C 1,6 km/h (1 Bft) 96,43 %
19.03.2017 10:30 6,9 C 97 % 1011,8 hPa 0,0 l/m 1,0 km/h (0 Bft) S 175 0 min 0,000 mm 0,0 UV-I 64 W/m 6,5 C 6,9 C 3,2 km/h (1 Bft) 97,87 %
19.03.2017 10:32 6,9 C 97 % 1011,8 hPa 0,0 l/m 0,2 km/h (0 Bft) S 175 0 min 0,000 mm 0,0 UV-I 63 W/m 6,5 C 6,9 C 1,6 km/h (1 Bft) 100,00 %
19.03.2017 10:34 6,9 C 97 % 1011,8 hPa 0,2 l/m 0,3 km/h (0 Bft) S 175 0 min 0,000 mm 0,0 UV-I 76 W/m 6,5 C 6,9 C 1,6 km/h (1 Bft) 98,11 %
19.03.2017 10:36 6,9 C 97 % 1011,8 hPa 0,0 l/m 0,2 km/h (0 Bft) S 175 0 min 0,000 mm 0,0 UV-I 86 W/m 6,5 C 6,9 C 1,6 km/h (1 Bft) 100,00 %
19.03.2017 10:38 6,9 C 97 % 1011,8 hPa 0,0 l/m 0,7 km/h (0 Bft) S 175 0 min 0,000 mm 0,2 UV-I 86 W/m 6,5 C 6,9 C 1,6 km/h (1 Bft) 97,37 %
19.03.2017 10:40 6,9 C 97 % 1011,8 hPa 0,2 l/m 0,6 km/h (0 Bft) S 175 0 min 0,000 mm 0,0 UV-I 83 W/m 6,5 C 6,9 C 3,2 km/h (1 Bft) 100,00 %
19.03.2017 10:42 6,9 C 97 % 1011,8 hPa 0,0 l/m 0,0 km/h (0 Bft) S 175 0 min 0,000 mm 0,0 UV-I 79 W/m 6,5 C 6,9 C 0,0 km/h (0 Bft) 97,73 %
19.03.2017 10:44 7,0 C 97 % 1011,8 hPa 0,0 l/m 1,1 km/h (1 Bft) S 175 0 min 0,000 mm 0,0 UV-I 77 W/m 6,6 C 7,0 C 3,2 km/h (1 Bft) 98,11 %
19.03.2017 10:46 6,9 C 97 % 1011,8 hPa 0,0 l/m 0,0 km/h (0 Bft) S 175 0 min 0,000 mm 0,4 UV-I 87 W/m 6,5 C 6,9 C 1,6 km/h (1 Bft) 97,44 %
19.03.2017 10:48 7,0 C 97 % 1011,8 hPa 0,2 l/m 0,0 km/h (0 Bft) S 175 0 min 0,000 mm 0,2 UV-I 83 W/m 6,6 C 7,0 C 0,0 km/h (0 Bft) 100,00 %
19.03.2017 10:50 7,1 C 97 % 1011,8 hPa 0,0 l/m 1,4 km/h (1 Bft) S 175 0 min 0,000 mm 0,0 UV-I 80 W/m 6,7 C 7,1 C 4,8 km/h (1 Bft) 100,00 %
19.03.2017 10:52 7,1 C 97 % 1011,8 hPa 0,0 l/m 2,0 km/h (1 Bft) S 175 0 min 0,000 mm 0,0 UV-I 80 W/m 6,7 C 7,1 C 3,2 km/h (1 Bft) 98,11 %
19.03.2017 10:54 7,0 C 97 % 1011,7 hPa 0,0 l/m 1,0 km/h (0 Bft) S 175 0 min 0,000 mm 0,1 UV-I 87 W/m 6,6 C 7,0 C 3,2 km/h (1 Bft) 100,00 %
19.03.2017 10:56 7,0 C 97 % 1011,7 hPa 0,2 l/m 0,3 km/h (0 Bft) S 175 0 min 0,000 mm 0,3 UV-I 87 W/m 6,6 C 7,0 C 1,6 km/h (1 Bft) 95,12 %
19.03.2017 10:58 7,0 C 97 % 1011,7 hPa 0,0 l/m 1,2 km/h (1 Bft) S 175 0 min 0,000 mm 0,4 UV-I 84 W/m 6,6 C 7,0 C 4,8 km/h (1 Bft) 97,56 %
19.03.2017 11:00 7,0 C 97 % 1011,7 hPa 0,0 l/m 0,5 km/h (0 Bft) S 175 0 min 0,026 mm 0,0 UV-I 68 W/m 6,6 C 7,0 C 3,2 km/h (1 Bft) 98,21 %
19.03.2017 11:02 7,1 C 97 % 1011,7 hPa 0,0 l/m 1,0 km/h (0 Bft) S 175 0 min 0,000 mm 0,0 UV-I 71 W/m 6,7 C 7,1 C 3,2 km/h (1 Bft) 93,62 %
19.03.2017 11:04 7,1 C 97 % 1011,7 hPa 0,0 l/m 0,8 km/h (0 Bft) S 175 0 min 0,000 mm 0,0 UV-I 77 W/m 6,7 C 7,1 C 3,2 km/h (1 Bft) 100,00 %
19.03.2017 11:06 7,1 C 97 % 1011,6 hPa 0,0 l/m 1,6 km/h (1 Bft) S 175 0 min 0,000 mm 0,0 UV-I 80 W/m 6,7 C 7,1 C 4,8 km/h (1 Bft) 96,36 %
19.03.2017 11:08 7,1 C 97 % 1011,7 hPa 0,0 l/m 2,4 km/h (1 Bft) S 175 0 min 0,000 mm 0,0 UV-I 75 W/m 6,7 C 7,1 C 4,8 km/h (1 Bft) 94,34 %
19.03.2017 11:10 7,1 C 97 % 1011,6 hPa 0,2 l/m 1,9 km/h (1 Bft) S 175 0 min 0,000 mm 0,1 UV-I 78 W/m 6,7 C 7,1 C 3,2 km/h (1 Bft) 97,37 %
19.03.2017 11:12 7,1 C 97 % 1011,5 hPa 0,0 l/m 1,9 km/h (1 Bft) S 175 0 min 0,000 mm 0,5 UV-I 86 W/m 6,7 C 7,1 C 4,8 km/h (1 Bft) 96,00 %
19.03.2017 11:14 7,1 C 97 % 1011,5 hPa 0,0 l/m 0,2 km/h (0 Bft) S 175 0 min 0,000 mm 0,5 UV-I 96 W/m 6,7 C 7,1 C 1,6 km/h (1 Bft) 94,74 %
19.03.2017 11:16 7,1 C 97 % 1011,5 hPa 0,0 l/m 1,2 km/h (1 Bft) S 175 0 min 0,000 mm 0,3 UV-I 82 W/m 6,7 C 7,1 C 3,2 km/h (1 Bft) 94,34 %
19.03.2017 11:18 7,2 C 97 % 1011,5 hPa 0,0 l/m 1,9 km/h (1 Bft) S 175 0 min 0,000 mm 0,6 UV-I 98 W/m 6,8 C 7,2 C 3,2 km/h (1 Bft) 95,74 %
19.03.2017 11:20 7,2 C 97 % 1011,5 hPa 0,0 l/m 0,9 km/h (0 Bft) S 175 0 min 0,000 mm 0,5 UV-I 98 W/m 6,8 C 7,2 C 3,2 km/h (1 Bft) 98,11 %
19.03.2017 11:22 7,1 C 97 % 1011,4 hPa 0,0 l/m 0,0 km/h (0 Bft) S 175 0 min 0,000 mm 0,3 UV-I 84 W/m 6,7 C 7,1 C 0,0 km/h (0 Bft) 94,74 %
19.03.2017 11:24 7,0 C 96 % 1011,4 hPa 0,0 l/m 0,0 km/h (0 Bft) S 175 0 min 0,000 mm 0,5 UV-I 97 W/m 6,4 C 7,0 C 0,0 km/h (0 Bft) 96,43 %
19.03.2017 11:26 7,1 C 97 % 1011,4 hPa 0,0 l/m 0,5 km/h (0 Bft) S 175 0 min 0,000 mm 0,6 UV-I 104 W/m 6,7 C 7,1 C 3,2 km/h (1 Bft) 95,74 %
19.03.2017 11:28 7,1 C 97 % 1011,4 hPa 0,0 l/m 0,4 km/h (0 Bft) S 175 0 min 0,000 mm 0,5 UV-I 94 W/m 6,7 C 7,1 C 3,2 km/h (1 Bft) 95,24 %
19.03.2017 11:30 7,1 C 97 % 1011,5 hPa 0,0 l/m 0,3 km/h (0 Bft) S 175 0 min 0,000 mm 0,5 UV-I 93 W/m 6,7 C 7,1 C 1,6 km/h (1 Bft) 95,74 %
19.03.2017 11:32 7,2 C 97 % 1011,5 hPa 0,0 l/m 0,1 km/h (0 Bft) S 175 0 min 0,000 mm 0,3 UV-I 82 W/m 6,8 C 7,2 C 1,6 km/h (1 Bft) 98,00 %
19.03.2017 11:34 7,3 C 97 % 1011,5 hPa 0,0 l/m 1,0 km/h (0 Bft) S 175 0 min 0,000 mm 0,1 UV-I 78 W/m 6,9 C 7,3 C 3,2 km/h (1 Bft) 95,74 %
19.03.2017 11:36 7,3 C 96 % 1011,5 hPa 0,0 l/m 0,4 km/h (0 Bft) S 175 0 min 0,000 mm 0,6 UV-I 100 W/m 6,7 C 7,3 C 1,6 km/h (1 Bft) 94,00 %
19.03.2017 11:38 7,3 C 96 % 1011,4 hPa 0,0 l/m 0,4 km/h (0 Bft) S 175 0 min 0,000 mm 0,6 UV-I 122 W/m 6,7 C 7,3 C 1,6 km/h (1 Bft) 93,62 %
19.03.2017 11:40 7,3 C 96 % 1011,4 hPa 0,0 l/m 1,4 km/h (1 Bft) S 175 0 min 0,000 mm 0,6 UV-I 110 W/m 6,7 C 7,3 C 3,2 km/h (1 Bft) 94,74 %
19.03.2017 11:42 7,3 C 96 % 1011,4 hPa 0,0 l/m 0,3 km/h (0 Bft) S 175 0 min 0,000 mm 0,6 UV-I 110 W/m 6,7 C 7,3 C 1,6 km/h (1 Bft) 92,45 %
19.03.2017 11:44 7,4 C 97 % 1011,4 hPa 0,0 l/m 0,0 km/h (0 Bft) S 175 0 min 0,000 mm 0,6 UV-I 115 W/m 7,0 C 7,4 C 0,0 km/h (0 Bft) 95,74 %
19.03.2017 11:46 7,4 C 97 % 1011,4 hPa 0,0 l/m 0,3 km/h (0 Bft) S 175 0 min 0,000 mm 0,6 UV-I 111 W/m 7,0 C 7,4 C 1,6 km/h (1 Bft) 100,00 %
19.03.2017 11:50 7,4 C 96 % 1011,4 hPa 0,0 l/m 2,2 km/h (1 Bft) S 175 0 min 0,000 mm 0,6 UV-I 110 W/m 6,8 C 7,4 C 3,2 km/h (1 Bft) 96,03 %
19.03.2017 11:52 7,5 C 96 % 1011,3 hPa 0,0 l/m 0,5 km/h (0 Bft) S 175 0 min 0,000 mm 0,7 UV-I 121 W/m 6,9 C 7,5 C 1,6 km/h (1 Bft) 95,12 %
19.03.2017 11:54 7,5 C 96 % 1011,2 hPa 0,0 l/m 2,5 km/h (1 Bft) S 175 0 min 0,000 mm 0,8 UV-I 137 W/m 6,9 C 7,5 C 4,8 km/h (1 Bft) 96,43 %
19.03.2017 11:56 7,6 C 96 % 1011,2 hPa 0,0 l/m 2,8 km/h (1 Bft) S 176 0 min 0,000 mm 0,9 UV-I 162 W/m 7,0 C 7,6 C 4,8 km/h (1 Bft) 97,14 %
19.03.2017 11:58 7,7 C 96 % 1011,2 hPa 0,0 l/m 1,4 km/h (1 Bft) S 176 0 min 0,000 mm 1,0 UV-I 197 W/m 7,1 C 7,7 C 3,2 km/h (1 Bft) 92,00 %
19.03.2017 12:00 7,8 C 97 % 1011,2 hPa 0,0 l/m 2,1 km/h (1 Bft) S 176 0 min 0,050 mm 1,0 UV-I 173 W/m 7,4 C 7,8 C 4,8 km/h (1 Bft) 94,34 %
19.03.2017 12:02 7,9 C 97 % 1011,2 hPa 0,0 l/m 1,0 km/h (0 Bft) S 176 0 min 0,000 mm 0,8 UV-I 144 W/m 7,5 C 7,9 C 3,2 km/h (1 Bft) 94,00 %
19.03.2017 12:04 7,9 C 96 % 1011,2 hPa 0,0 l/m 2,4 km/h (1 Bft) S 176 0 min 0,000 mm 0,7 UV-I 124 W/m 7,3 C 7,9 C 3,2 km/h (1 Bft) 94,87 %
19.03.2017 12:06 7,9 C 96 % 1011,2 hPa 0,0 l/m 0,4 km/h (0 Bft) S 176 0 min 0,000 mm 0,6 UV-I 103 W/m 7,3 C 7,9 C 1,6 km/h (1 Bft) 96,15 %
19.03.2017 12:08 7,9 C 97 % 1011,2 hPa 0,0 l/m 1,5 km/h (1 Bft) S 176 0 min 0,000 mm 0,6 UV-I 112 W/m 7,5 C 7,9 C 3,2 km/h (1 Bft) 94,87 %
19.03.2017 12:10 7,9 C 96 % 1011,2 hPa 0,0 l/m 0,1 km/h (0 Bft) S 175 0 min 0,000 mm 0,8 UV-I 139 W/m 7,3 C 7,9 C 1,6 km/h (1 Bft) 94,34 %
19.03.2017 12:12 8,0 C 96 % 1011,2 hPa 0,0 l/m 0,1 km/h (0 Bft) S 176 0 min 0,000 mm 0,9 UV-I 162 W/m 7,4 C 8,0 C 1,6 km/h (1 Bft) 92,00 %
19.03.2017 12:14 8,1 C 96 % 1011,2 hPa 0,0 l/m 1,1 km/h (1 Bft) S 176 0 min 0,000 mm 1,0 UV-I 192 W/m 7,5 C 8,1 C 4,8 km/h (1 Bft) 97,37 %
19.03.2017 12:16 8,1 C 96 % 1011,1 hPa 0,0 l/m 2,2 km/h (1 Bft) S 176 0 min 0,000 mm 1,2 UV-I 216 W/m 7,5 C 8,1 C 4,8 km/h (1 Bft) 93,62 %
19.03.2017 12:18 8,2 C 96 % 1011,0 hPa 0,0 l/m 1,3 km/h (1 Bft) S 176 0 min 0,000 mm 1,2 UV-I 218 W/m 7,6 C 8,2 C 6,4 km/h (2 Bft) 96,00 %
19.03.2017 12:20 8,3 C 96 % 1011,1 hPa 0,0 l/m 4,2 km/h (1 Bft) S 180 0 min 0,000 mm 1,1 UV-I 214 W/m 7,7 C 8,3 C 6,4 km/h (2 Bft) 94,34 %
19.03.2017 12:22 8,4 C 97 % 1011,1 hPa 0,0 l/m 2,4 km/h (1 Bft) S 188 0 min 0,000 mm 1,1 UV-I 216 W/m 8,0 C 8,4 C 4,8 km/h (1 Bft) 95,12 %
19.03.2017 12:24 8,5 C 96 % 1011,1 hPa 0,0 l/m 4,4 km/h (1 Bft) S 190 0 min 0,000 mm 1,1 UV-I 210 W/m 7,9 C 8,5 C 6,4 km/h (2 Bft) 98,00 %
19.03.2017 12:26 8,7 C 96 % 1011,0 hPa 0,0 l/m 4,2 km/h (1 Bft) W-SW 244 0 min 0,000 mm 1,0 UV-I 193 W/m 8,1 C 8,7 C 8,0 km/h (2 Bft) 95,12 %
19.03.2017 12:28 8,9 C 97 % 1010,9 hPa 0,0 l/m 2,4 km/h (1 Bft) SW 214 0 min 0,000 mm 1,0 UV-I 187 W/m 8,4 C 8,9 C 4,8 km/h (1 Bft) 96,23 %
19.03.2017 12:30 9,0 C 96 % 1010,9 hPa 0,0 l/m 3,1 km/h (1 Bft) SW 214 0 min 0,000 mm 1,0 UV-I 185 W/m 8,4 C 9,0 C 4,8 km/h (1 Bft) 95,74 %
19.03.2017 12:32 9,1 C 96 % 1010,9 hPa 0,0 l/m 4,3 km/h (1 Bft) S-SW 211 0 min 0,000 mm 1,0 UV-I 191 W/m 8,5 C 9,1 C 8,0 km/h (2 Bft) 92,68 %
19.03.2017 12:34 9,2 C 96 % 1010,9 hPa 0,0 l/m 3,8 km/h (1 Bft) SW 231 0 min 0,000 mm 1,1 UV-I 195 W/m 8,6 C 9,2 C 6,4 km/h (2 Bft) 97,56 %
19.03.2017 12:36 9,3 C 96 % 1010,9 hPa 0,0 l/m 3,3 km/h (1 Bft) W 267 0 min 0,000 mm 0,9 UV-I 172 W/m 8,7 C 9,3 C 6,4 km/h (2 Bft) 94,64 %
19.03.2017 12:38 9,4 C 96 % 1010,9 hPa 0,0 l/m 1,9 km/h (1 Bft) W 267 0 min 0,000 mm 0,9 UV-I 177 W/m 8,8 C 9,4 C 4,8 km/h (1 Bft) 97,37 %
19.03.2017 12:40 9,6 C 96 % 1010,8 hPa 0,0 l/m 2,8 km/h (1 Bft) W 267 0 min 0,000 mm 0,9 UV-I 170 W/m 9,0 C 9,6 C 4,8 km/h (1 Bft) 94,34 %
19.03.2017 12:42 9,7 C 96 % 1010,8 hPa 0,0 l/m 1,9 km/h (1 Bft) W 267 0 min 0,000 mm 0,7 UV-I 141 W/m 9,1 C 9,7 C 3,2 km/h (1 Bft) 96,23 %
19.03.2017 12:44 9,8 C 95 % 1010,8 hPa 0,0 l/m 2,1 km/h (1 Bft) W 267 0 min 0,000 mm 0,5 UV-I 107 W/m 9,0 C 9,8 C 4,8 km/h (1 Bft) 100,00 %
19.03.2017 12:46 9,8 C 95 % 1010,7 hPa 0,0 l/m 4,4 km/h (1 Bft) W 265 0 min 0,000 mm 0,1 UV-I 87 W/m 9,0 C 9,8 C 6,4 km/h (2 Bft) 100,00 %
19.03.2017 12:48 9,8 C 95 % 1010,7 hPa 0,0 l/m 4,0 km/h (1 Bft) W-SW 238 0 min 0,000 mm 0,5 UV-I 90 W/m 9,0 C 9,8 C 6,4 km/h (2 Bft) 98,00 %
19.03.2017 12:50 9,9 C 95 % 1010,7 hPa 0,0 l/m 3,9 km/h (1 Bft) W 259 0 min 0,000 mm 0,5 UV-I 99 W/m 9,1 C 9,9 C 6,4 km/h (2 Bft) 100,00 %
19.03.2017 12:52 10,0 C 95 % 1010,6 hPa 0,0 l/m 5,0 km/h (1 Bft) W 264 0 min 0,000 mm 0,5 UV-I 100 W/m 9,2 C 10,0 C 9,7 km/h (2 Bft) 98,00 %
19.03.2017 12:54 10,1 C 95 % 1010,6 hPa 0,0 l/m 2,8 km/h (1 Bft) W-SW 244 0 min 0,000 mm 0,5 UV-I 105 W/m 9,3 C 10,1 C 4,8 km/h (1 Bft) 95,74 %
19.03.2017 12:56 10,1 C 95 % 1010,6 hPa 0,0 l/m 3,3 km/h (1 Bft) W-SW 246 0 min 0,000 mm 0,7 UV-I 128 W/m 9,3 C 10,1 C 6,4 km/h (2 Bft) 100,00 %
19.03.2017 12:58 10,2 C 95 % 1010,5 hPa 0,0 l/m 1,9 km/h (1 Bft) W-SW 246 0 min 0,000 mm 0,6 UV-I 132 W/m 9,4 C 10,2 C 4,8 km/h (1 Bft) 97,87 %
19.03.2017 13:00 10,2 C 95 % 1010,5 hPa 0,0 l/m 4,2 km/h (1 Bft) SW 236 0 min 0,077 mm 0,3 UV-I 95 W/m 9,4 C 10,2 C 8,0 km/h (2 Bft) 100,00 %
19.03.2017 13:02 10,3 C 95 % 1010,4 hPa 0,0 l/m 6,5 km/h (2 Bft) W-SW 248 0 min 0,000 mm 0,1 UV-I 92 W/m 9,5 C 10,3 C 11,3 km/h (2 Bft) 95,74 %
19.03.2017 13:04 10,4 C 95 % 1010,3 hPa 0,0 l/m 5,7 km/h (1 Bft) S-SW 209 0 min 0,000 mm 0,5 UV-I 100 W/m 9,6 C 10,4 C 11,3 km/h (2 Bft) 96,23 %
19.03.2017 13:06 10,5 C 95 % 1010,1 hPa 0,0 l/m 11,1 km/h (2 Bft) W-SW 244 0 min 0,000 mm 0,6 UV-I 104 W/m 9,7 C 7,5 C 19,3 km/h (3 Bft) 100,00 %
19.03.2017 13:08 10,7 C 94 % 1010,3 hPa 0,2 l/m 17,9 km/h (3 Bft) W-SW 242 0 min 0,000 mm 0,7 UV-I 120 W/m 9,8 C 4,9 C 22,5 km/h (4 Bft) 95,12 %
19.03.2017 13:10 10,9 C 94 % 1010,3 hPa 0,0 l/m 15,4 km/h (3 Bft) SW 229 0 min 0,000 mm 0,7 UV-I 133 W/m 10,0 C 6,1 C 20,9 km/h (4 Bft) 100,00 %
19.03.2017 13:12 11,0 C 93 % 1010,3 hPa 0,0 l/m 17,5 km/h (3 Bft) W 266 0 min 0,000 mm 0,7 UV-I 132 W/m 9,9 C 5,4 C 24,1 km/h (4 Bft) 92,11 %
19.03.2017 13:14 11,1 C 93 % 1010,3 hPa 0,0 l/m 16,7 km/h (3 Bft) W 266 0 min 0,000 mm 0,6 UV-I 121 W/m 10,0 C 5,8 C 22,5 km/h (4 Bft) 96,00 %
19.03.2017 13:16 11,1 C 92 % 1010,3 hPa 0,0 l/m 14,8 km/h (3 Bft) W-SW 257 0 min 0,000 mm 0,7 UV-I 137 W/m 9,8 C 6,5 C 20,9 km/h (4 Bft) 95,74 %
19.03.2017 13:18 11,2 C 92 % 1010,2 hPa 0,0 l/m 14,9 km/h (3 Bft) SW 227 0 min 0,000 mm 1,0 UV-I 183 W/m 9,9 C 6,6 C 22,5 km/h (4 Bft) 96,23 %
19.03.2017 13:20 11,3 C 92 % 1010,1 hPa 0,0 l/m 18,7 km/h (3 Bft) W 273 0 min 0,000 mm 1,0 UV-I 182 W/m 10,0 C 5,4 C 25,7 km/h (4 Bft) 98,00 %
19.03.2017 13:22 11,4 C 91 % 1010,1 hPa 0,0 l/m 19,3 km/h (3 Bft) W-SW 248 0 min 0,000 mm 1,3 UV-I 254 W/m 10,0 C 5,3 C 25,7 km/h (4 Bft) 93,94 %
19.03.2017 13:24 11,5 C 90 % 1010,1 hPa 0,0 l/m 19,8 km/h (3 Bft) W-SW 246 0 min 0,000 mm 1,4 UV-I 298 W/m 9,9 C 5,3 C 32,2 km/h (5 Bft) 96,72 %
19.03.2017 13:26 11,6 C 89 % 1010,1 hPa 0,0 l/m 18,5 km/h (3 Bft) W-SW 257 0 min 0,000 mm 1,3 UV-I 285 W/m 9,8 C 5,8 C 29,0 km/h (5 Bft) 92,31 %
19.03.2017 13:28 11,7 C 89 % 1010,1 hPa 0,0 l/m 19,4 km/h (3 Bft) W-SW 245 0 min 0,000 mm 1,1 UV-I 215 W/m 9,9 C 5,7 C 29,0 km/h (5 Bft) 94,55 %
19.03.2017 13:30 11,7 C 89 % 1010,1 hPa 0,0 l/m 14,3 km/h (3 Bft) W-SW 248 0 min 0,000 mm 1,0 UV-I 191 W/m 9,9 C 7,5 C 19,3 km/h (3 Bft) 97,22 %
19.03.2017 13:32 11,8 C 88 % 1010,2 hPa 0,0 l/m 22,7 km/h (4 Bft) SW 220 0 min 0,000 mm 0,9 UV-I 184 W/m 9,9 C 4,9 C 35,4 km/h (5 Bft) 96,00 %
19.03.2017 13:34 11,8 C 88 % 1010,1 hPa 0,0 l/m 20,6 km/h (4 Bft) W 263 0 min 0,000 mm 0,7 UV-I 155 W/m 9,9 C 5,4 C 30,6 km/h (5 Bft) 97,56 %
19.03.2017 13:36 11,8 C 88 % 1010,1 hPa 0,0 l/m 17,6 km/h (3 Bft) W-SW 257 0 min 0,000 mm 0,7 UV-I 152 W/m 9,9 C 6,4 C 27,4 km/h (4 Bft) 98,21 %
19.03.2017 13:38 11,8 C 88 % 1010,1 hPa 0,0 l/m 14,5 km/h (3 Bft) W-SW 251 0 min 0,000 mm 0,7 UV-I 141 W/m 9,9 C 7,5 C 19,3 km/h (3 Bft) 97,37 %
19.03.2017 13:40 11,8 C 88 % 1010,1 hPa 0,0 l/m 15,7 km/h (3 Bft) W 261 0 min 0,000 mm 0,6 UV-I 121 W/m 9,9 C 7,0 C 22,5 km/h (4 Bft) 94,64 %
19.03.2017 13:42 11,7 C 88 % 1010,1 hPa 0,0 l/m 16,2 km/h (3 Bft) W 277 0 min 0,000 mm 0,3 UV-I 85 W/m 9,8 C 6,7 C 25,7 km/h (4 Bft) 96,00 %
19.03.2017 13:44 11,7 C 88 % 1010,1 hPa 0,0 l/m 14,0 km/h (3 Bft) W-SW 257 0 min 0,000 mm 0,5 UV-I 89 W/m 9,8 C 7,6 C 22,5 km/h (4 Bft) 94,29 %
19.03.2017 13:46 11,7 C 88 % 1010,0 hPa 0,0 l/m 17,9 km/h (3 Bft) W-SW 255 0 min 0,000 mm 0,5 UV-I 93 W/m 9,8 C 6,1 C 30,6 km/h (5 Bft) 98,21 %
19.03.2017 13:48 11,7 C 88 % 1010,0 hPa 0,0 l/m 16,1 km/h (3 Bft) SW 224 0 min 0,000 mm 0,0 UV-I 78 W/m 9,8 C 6,8 C 22,5 km/h (4 Bft) 95,12 %
19.03.2017 13:50 11,6 C 88 % 1010,0 hPa 0,0 l/m 17,3 km/h (3 Bft) W-NW 292 0 min 0,000 mm 0,0 UV-I 73 W/m 9,7 C 6,2 C 22,5 km/h (4 Bft) 100,00 %
19.03.2017 13:52 11,6 C 88 % 1010,0 hPa 0,0 l/m 12,5 km/h (3 Bft) W 260 0 min 0,000 mm 0,0 UV-I 70 W/m 9,7 C 8,1 C 19,3 km/h (3 Bft) 98,04 %
19.03.2017 13:54 11,6 C 88 % 1010,1 hPa 0,0 l/m 10,8 km/h (2 Bft) W-SW 253 0 min 0,000 mm 0,0 UV-I 83 W/m 9,7 C 8,9 C 17,7 km/h (3 Bft) 97,73 %
19.03.2017 13:56 11,5 C 89 % 1010,0 hPa 0,0 l/m 13,1 km/h (3 Bft) W 266 0 min 0,000 mm 0,0 UV-I 88 W/m 9,8 C 7,7 C 20,9 km/h (4 Bft) 100,00 %
19.03.2017 13:58 11,5 C 89 % 1010,0 hPa 0,0 l/m 13,9 km/h (3 Bft) W-SW 244 0 min 0,000 mm 0,0 UV-I 76 W/m 9,8 C 7,4 C 22,5 km/h (4 Bft) 98,00 %
19.03.2017 14:00 11,5 C 89 % 1010,1 hPa 0,0 l/m 8,6 km/h (2 Bft) W-SW 257 0 min 0,076 mm 0,0 UV-I 66 W/m 9,8 C 10,1 C 11,3 km/h (2 Bft) 100,00 %
19.03.2017 14:02 11,4 C 89 % 1010,0 hPa 0,0 l/m 10,5 km/h (2 Bft) W-SW 241 0 min 0,000 mm 0,0 UV-I 58 W/m 9,7 C 8,9 C 16,1 km/h (3 Bft) 96,15 %
19.03.2017 14:04 11,4 C 89 % 1010,0 hPa 0,0 l/m 10,9 km/h (2 Bft) W-SW 242 0 min 0,000 mm 0,0 UV-I 90 W/m 9,7 C 8,7 C 17,7 km/h (3 Bft) 98,11 %
19.03.2017 14:06 11,4 C 89 % 1010,1 hPa 0,0 l/m 13,7 km/h (3 Bft) W-SW 252 0 min 0,000 mm 0,0 UV-I 86 W/m 9,7 C 7,4 C 17,7 km/h (3 Bft) 100,00 %
19.03.2017 14:08 11,5 C 89 % 1010,0 hPa 0,0 l/m 13,1 km/h (3 Bft) SW 221 0 min 0,000 mm 0,0 UV-I 56 W/m 9,8 C 7,7 C 20,9 km/h (4 Bft) 97,73 %
19.03.2017 14:10 11,5 C 89 % 1010,0 hPa 0,0 l/m 11,0 km/h (2 Bft) W-SW 251 0 min 0,000 mm 0,0 UV-I 37 W/m 9,8 C 8,7 C 14,5 km/h (3 Bft) 98,11 %
19.03.2017 14:12 11,5 C 89 % 1010,0 hPa 0,0 l/m 9,5 km/h (2 Bft) W-SW 246 0 min 0,000 mm 0,0 UV-I 34 W/m 9,8 C 9,5 C 12,9 km/h (3 Bft) 97,92 %
19.03.2017 14:14 11,5 C 89 % 1010,0 hPa 0,0 l/m 12,8 km/h (3 Bft) W-SW 246 0 min 0,000 mm 0,0 UV-I 39 W/m 9,8 C 7,9 C 19,3 km/h (3 Bft) 100,00 %
19.03.2017 14:16 11,5 C 89 % 1010,0 hPa 0,0 l/m 12,7 km/h (3 Bft) W-SW 243 0 min 0,000 mm 0,0 UV-I 41 W/m 9,8 C 7,9 C 19,3 km/h (3 Bft) 94,29 %
19.03.2017 14:18 11,4 C 89 % 1010,1 hPa 0,0 l/m 9,2 km/h (2 Bft) W-SW 242 0 min 0,000 mm 0,0 UV-I 36 W/m 9,7 C 9,6 C 12,9 km/h (3 Bft) 100,00 %
19.03.2017 14:20 11,4 C 89 % 1010,1 hPa 0,0 l/m 11,5 km/h (2 Bft) W-NW 284 0 min 0,000 mm 0,0 UV-I 40 W/m 9,7 C 8,4 C 14,5 km/h (3 Bft) 100,00 %
19.03.2017 14:22 11,4 C 90 % 1010,1 hPa 0,0 l/m 14,3 km/h (3 Bft) W-SW 254 0 min 0,000 mm 0,0 UV-I 45 W/m 9,8 C 7,1 C 20,9 km/h (4 Bft) 98,11 %
19.03.2017 14:24 11,4 C 90 % 1010,1 hPa 0,0 l/m 12,4 km/h (3 Bft) W-SW 253 0 min 0,000 mm 0,0 UV-I 48 W/m 9,8 C 7,9 C 20,9 km/h (4 Bft) 100,00 %
19.03.2017 14:26 11,3 C 90 % 1010,1 hPa 0,0 l/m 13,8 km/h (3 Bft) W 269 0 min 0,000 mm 0,0 UV-I 49 W/m 9,7 C 7,2 C 19,3 km/h (3 Bft) 95,45 %
19.03.2017 14:28 11,3 C 90 % 1010,1 hPa 0,0 l/m 14,2 km/h (3 Bft) W-SW 255 0 min 0,000 mm 0,0 UV-I 55 W/m 9,7 C 7,0 C 24,1 km/h (4 Bft) 100,00 %
19.03.2017 14:30 11,4 C 89 % 1010,2 hPa 0,0 l/m 13,0 km/h (3 Bft) SW 236 0 min 0,000 mm 0,0 UV-I 60 W/m 9,7 C 7,7 C 19,3 km/h (3 Bft) 100,00 %
19.03.2017 14:32 11,4 C 89 % 1010,1 hPa 0,0 l/m 15,6 km/h (3 Bft) W-SW 242 0 min 0,000 mm 0,0 UV-I 62 W/m 9,7 C 6,6 C 24,1 km/h (4 Bft) 98,00 %
19.03.2017 14:34 11,5 C 89 % 1010,2 hPa 0,0 l/m 16,1 km/h (3 Bft) W 277 0 min 0,000 mm 0,0 UV-I 67 W/m 9,8 C 6,5 C 27,4 km/h (4 Bft) 97,37 %
19.03.2017 14:36 11,5 C 89 % 1010,2 hPa 0,0 l/m 12,9 km/h (3 Bft) W-SW 237 0 min 0,000 mm 0,0 UV-I 69 W/m 9,8 C 7,8 C 16,1 km/h (3 Bft) 96,23 %
19.03.2017 14:38 11,6 C 88 % 1010,2 hPa 0,0 l/m 14,2 km/h (3 Bft) W-SW 243 0 min 0,000 mm 0,0 UV-I 82 W/m 9,7 C 7,4 C 22,5 km/h (4 Bft) 97,56 %
19.03.2017 14:40 11,6 C 88 % 1010,1 hPa 0,0 l/m 13,4 km/h (3 Bft) W-SW 248 0 min 0,000 mm 0,0 UV-I 104 W/m 9,7 C 7,7 C 19,3 km/h (3 Bft) 98,11 %
19.03.2017 14:42 11,7 C 88 % 1010,1 hPa 0,0 l/m 12,7 km/h (3 Bft) SW 227 0 min 0,000 mm 0,2 UV-I 111 W/m 9,8 C 8,2 C 19,3 km/h (3 Bft) 97,22 %
19.03.2017 14:44 11,7 C 87 % 1010,1 hPa 0,0 l/m 12,0 km/h (2 Bft) W 265 0 min 0,000 mm 0,1 UV-I 108 W/m 9,6 C 8,5 C 17,7 km/h (3 Bft) 98,00 %
19.03.2017 14:46 11,8 C 87 % 1010,2 hPa 0,0 l/m 10,0 km/h (2 Bft) W-SW 256 0 min 0,000 mm 0,3 UV-I 116 W/m 9,7 C 9,6 C 17,7 km/h (3 Bft) 100,00 %
19.03.2017 14:48 11,8 C 87 % 1010,0 hPa 0,0 l/m 11,0 km/h (2 Bft) W 276 0 min 0,000 mm 0,0 UV-I 107 W/m 9,7 C 9,1 C 16,1 km/h (3 Bft) 97,62 %
19.03.2017 14:50 11,8 C 87 % 1010,1 hPa 0,0 l/m 13,6 km/h (3 Bft) W 270 0 min 0,000 mm 0,0 UV-I 103 W/m 9,7 C 7,9 C 22,5 km/h (4 Bft) 96,23 %
19.03.2017 14:52 11,8 C 87 % 1010,1 hPa 0,0 l/m 13,4 km/h (3 Bft) SW 221 0 min 0,000 mm 0,0 UV-I 90 W/m 9,7 C 8,0 C 20,9 km/h (4 Bft) 100,00 %
19.03.2017 14:54 11,8 C 87 % 1010,1 hPa 0,0 l/m 13,8 km/h (3 Bft) W-SW 250 0 min 0,000 mm 0,0 UV-I 89 W/m 9,7 C 7,8 C 17,7 km/h (3 Bft) 94,34 %
19.03.2017 14:56 11,9 C 87 % 1010,1 hPa 0,0 l/m 10,6 km/h (2 Bft) W-SW 251 0 min 0,000 mm 0,0 UV-I 88 W/m 9,8 C 9,4 C 17,7 km/h (3 Bft) 100,00 %
19.03.2017 14:58 11,9 C 87 % 1010,0 hPa 0,0 l/m 12,6 km/h (3 Bft) W-SW 250 0 min 0,000 mm 0,0 UV-I 94 W/m 9,8 C 8,4 C 17,7 km/h (3 Bft) 97,78 %
19.03.2017 15:00 11,9 C 87 % 1010,0 hPa 0,0 l/m 14,8 km/h (3 Bft) W-SW 256 0 min 0,000 mm 0,0 UV-I 99 W/m 9,8 C 7,5 C 20,9 km/h (4 Bft) 97,87 %
19.03.2017 15:02 11,9 C 87 % 1010,0 hPa 0,0 l/m 13,6 km/h (3 Bft) W-SW 243 0 min 0,051 mm 0,0 UV-I 96 W/m 9,8 C 8,0 C 17,7 km/h (3 Bft) 98,11 %
19.03.2017 15:04 11,9 C 87 % 1010,0 hPa 0,0 l/m 12,3 km/h (3 Bft) SW 225 0 min 0,000 mm 0,0 UV-I 94 W/m 9,8 C 8,6 C 17,7 km/h (3 Bft) 97,87 %
19.03.2017 15:06 12,0 C 87 % 1009,9 hPa 0,0 l/m 11,5 km/h (2 Bft) W-SW 258 0 min 0,000 mm 0,0 UV-I 96 W/m 9,9 C 9,1 C 17,7 km/h (3 Bft) 97,37 %
19.03.2017 15:08 12,0 C 87 % 1009,9 hPa 0,0 l/m 12,7 km/h (3 Bft) W-NW 294 0 min 0,000 mm 0,0 UV-I 101 W/m 9,9 C 8,5 C 20,9 km/h (4 Bft) 96,23 %
19.03.2017 15:10 12,0 C 86 % 1009,9 hPa 0,0 l/m 14,2 km/h (3 Bft) W-SW 254 0 min 0,000 mm 0,0 UV-I 104 W/m 9,7 C 7,9 C 22,5 km/h (4 Bft) 100,00 %
19.03.2017 15:12 12,1 C 86 % 1009,9 hPa 0,0 l/m 14,1 km/h (3 Bft) W-SW 250 0 min 0,000 mm 0,0 UV-I 104 W/m 9,8 C 8,0 C 20,9 km/h (4 Bft) 95,45 %
19.03.2017 15:14 12,1 C 86 % 1009,9 hPa 0,0 l/m 15,1 km/h (3 Bft) W 259 0 min 0,000 mm 0,4 UV-I 122 W/m 9,8 C 7,6 C 20,9 km/h (4 Bft) 97,56 %
19.03.2017 15:16 12,2 C 87 % 1009,8 hPa 0,0 l/m 13,4 km/h (3 Bft) W 268 0 min 0,000 mm 0,5 UV-I 140 W/m 10,1 C 8,4 C 19,3 km/h (3 Bft) 93,48 %
19.03.2017 15:18 12,2 C 86 % 1009,9 hPa 0,0 l/m 12,0 km/h (2 Bft) W-SW 249 0 min 0,000 mm 0,5 UV-I 136 W/m 9,9 C 9,0 C 17,7 km/h (3 Bft) 100,00 %
19.03.2017 15:20 12,3 C 86 % 1009,8 hPa 0,0 l/m 15,6 km/h (3 Bft) W-SW 242 0 min 0,000 mm 0,5 UV-I 148 W/m 10,0 C 7,7 C 24,1 km/h (4 Bft) 95,89 %
19.03.2017 15:22 12,4 C 85 % 1009,8 hPa 0,0 l/m 17,9 km/h (3 Bft) W-SW 250 0 min 0,000 mm 0,6 UV-I 162 W/m 9,9 C 7,0 C 24,1 km/h (4 Bft) 97,56 %
19.03.2017 15:24 12,4 C 85 % 1009,7 hPa 0,0 l/m 14,3 km/h (3 Bft) W-SW 244 0 min 0,000 mm 0,6 UV-I 165 W/m 9,9 C 8,3 C 19,3 km/h (3 Bft) 89,74 %
19.03.2017 15:26 12,6 C 85 % 1009,7 hPa 0,0 l/m 18,0 km/h (3 Bft) W-SW 245 0 min 0,000 mm 0,6 UV-I 155 W/m 10,1 C 7,3 C 24,1 km/h (4 Bft) 96,72 %
19.03.2017 15:28 12,6 C 85 % 1009,8 hPa 0,0 l/m 18,4 km/h (3 Bft) W 259 0 min 0,000 mm 0,6 UV-I 155 W/m 10,1 C 7,1 C 25,7 km/h (4 Bft) 97,62 %
19.03.2017 15:30 12,7 C 84 % 1009,8 hPa 0,0 l/m 15,0 km/h (3 Bft) W-SW 248 0 min 0,000 mm 0,5 UV-I 151 W/m 10,1 C 8,4 C 22,5 km/h (4 Bft) 94,74 %
19.03.2017 15:32 12,7 C 84 % 1009,7 hPa 0,0 l/m 18,5 km/h (3 Bft) W 275 0 min 0,000 mm 0,6 UV-I 171 W/m 10,1 C 7,2 C 27,4 km/h (4 Bft) 94,55 %
19.03.2017 15:34 12,8 C 83 % 1009,7 hPa 0,0 l/m 18,5 km/h (3 Bft) W 264 0 min 0,000 mm 0,6 UV-I 174 W/m 10,0 C 7,3 C 27,4 km/h (4 Bft) 94,34 %
19.03.2017 15:36 12,8 C 83 % 1009,8 hPa 0,0 l/m 18,4 km/h (3 Bft) W-SW 257 0 min 0,000 mm 0,5 UV-I 161 W/m 10,0 C 7,4 C 25,7 km/h (4 Bft) 92,11 %
19.03.2017 15:38 12,9 C 83 % 1009,7 hPa 0,0 l/m 18,9 km/h (3 Bft) W 263 0 min 0,000 mm 0,5 UV-I 154 W/m 10,1 C 7,4 C 32,2 km/h (5 Bft) 96,00 %
19.03.2017 15:40 12,9 C 83 % 1009,6 hPa 0,0 l/m 17,5 km/h (3 Bft) W-SW 253 0 min 0,000 mm 0,5 UV-I 155 W/m 10,1 C 7,8 C 24,1 km/h (4 Bft) 97,37 %
19.03.2017 15:42 12,9 C 82 % 1009,6 hPa 0,0 l/m 17,3 km/h (3 Bft) W-SW 245 0 min 0,000 mm 0,5 UV-I 156 W/m 9,9 C 7,9 C 25,7 km/h (4 Bft) 92,86 %
19.03.2017 15:44 12,9 C 82 % 1009,6 hPa 0,0 l/m 17,0 km/h (3 Bft) W-NW 284 0 min 0,000 mm 0,5 UV-I 173 W/m 9,9 C 8,0 C 27,4 km/h (4 Bft) 94,74 %
19.03.2017 15:46 13,0 C 82 % 1009,6 hPa 0,0 l/m 17,7 km/h (3 Bft) W-SW 242 0 min 0,000 mm 0,5 UV-I 173 W/m 10,0 C 7,9 C 24,1 km/h (4 Bft) 98,21 %
19.03.2017 15:48 13,0 C 82 % 1009,6 hPa 0,0 l/m 17,3 km/h (3 Bft) W 263 0 min 0,000 mm 0,5 UV-I 172 W/m 10,0 C 8,0 C 29,0 km/h (5 Bft) 97,56 %
19.03.2017 15:50 13,1 C 82 % 1009,5 hPa 0,0 l/m 17,0 km/h (3 Bft) W 267 0 min 0,000 mm 0,5 UV-I 164 W/m 10,1 C 8,2 C 27,4 km/h (4 Bft) 98,21 %
19.03.2017 15:52 13,1 C 82 % 1009,4 hPa 0,0 l/m 19,0 km/h (3 Bft) W-SW 246 0 min 0,000 mm 0,2 UV-I 145 W/m 10,1 C 7,6 C 27,4 km/h (4 Bft) 100,00 %
19.03.2017 15:54 13,1 C 81 % 1009,4 hPa 0,0 l/m 19,4 km/h (3 Bft) W-SW 248 0 min 0,000 mm 0,0 UV-I 116 W/m 9,9 C 7,5 C 32,2 km/h (5 Bft) 96,00 %
19.03.2017 15:56 13,1 C 81 % 1009,4 hPa 0,0 l/m 19,3 km/h (3 Bft) W-SW 257 0 min 0,000 mm 0,0 UV-I 91 W/m 9,9 C 7,5 C 30,6 km/h (5 Bft) 94,00 %
19.03.2017 15:58 13,1 C 81 % 1009,4 hPa 0,0 l/m 16,6 km/h (3 Bft) W-SW 255 0 min 0,000 mm 0,0 UV-I 70 W/m 9,9 C 8,3 C 24,1 km/h (4 Bft) 95,74 %
19.03.2017 16:00 13,0 C 82 % 1009,4 hPa 0,0 l/m 17,2 km/h (3 Bft) W 261 0 min 0,000 mm 0,0 UV-I 58 W/m 10,0 C 8,0 C 24,1 km/h (4 Bft) 97,44 %
19.03.2017 16:02 12,9 C 82 % 1009,4 hPa 0,0 l/m 18,5 km/h (3 Bft) W-SW 248 0 min 0,101 mm 0,0 UV-I 58 W/m 9,9 C 7,5 C 29,0 km/h (5 Bft) 94,34 %
19.03.2017 16:04 12,9 C 82 % 1009,4 hPa 0,0 l/m 19,4 km/h (3 Bft) W 259 0 min 0,000 mm 0,0 UV-I 57 W/m 9,9 C 7,2 C 25,7 km/h (4 Bft) 97,56 %
19.03.2017 16:06 12,9 C 82 % 1009,4 hPa 0,0 l/m 17,6 km/h (3 Bft) W-SW 252 0 min 0,000 mm 0,0 UV-I 52 W/m 9,9 C 7,8 C 25,7 km/h (4 Bft) 94,64 %
19.03.2017 16:08 12,9 C 81 % 1009,5 hPa 0,0 l/m 20,2 km/h (4 Bft) SW 236 0 min 0,000 mm 0,0 UV-I 48 W/m 9,7 C 7,0 C 30,6 km/h (5 Bft) 97,37 %
19.03.2017 16:10 12,8 C 82 % 1009,4 hPa 0,0 l/m 19,3 km/h (3 Bft) W-SW 253 0 min 0,000 mm 0,0 UV-I 46 W/m 9,8 C 7,1 C 27,4 km/h (4 Bft) 91,49 %
19.03.2017 16:13 12,8 C 82 % 1009,4 hPa 0,0 l/m 17,8 km/h (3 Bft) W-SW 252 0 min 0,000 mm 0,0 UV-I 48 W/m 9,8 C 7,6 C 24,1 km/h (4 Bft) 94,94 %
19.03.2017 16:14 12,8 C 82 % 1009,4 hPa 0,0 l/m 15,8 km/h (3 Bft) W-SW 253 0 min 0,000 mm 0,0 UV-I 51 W/m 9,8 C 8,2 C 22,5 km/h (4 Bft) 100,00 %
19.03.2017 16:16 12,8 C 82 % 1009,4 hPa 0,0 l/m 15,3 km/h (3 Bft) W-SW 258 0 min 0,000 mm 0,0 UV-I 52 W/m 9,8 C 8,4 C 20,9 km/h (4 Bft) 94,64 %
19.03.2017 16:18 12,7 C 83 % 1009,4 hPa 0,0 l/m 16,3 km/h (3 Bft) SW 234 0 min 0,000 mm 0,0 UV-I 54 W/m 9,9 C 7,9 C 20,9 km/h (4 Bft) 94,00 %
19.03.2017 16:20 12,7 C 83 % 1009,3 hPa 0,0 l/m 15,2 km/h (3 Bft) SW 235 0 min 0,000 mm 0,0 UV-I 53 W/m 9,9 C 8,3 C 19,3 km/h (3 Bft) 97,56 %
19.03.2017 16:22 12,7 C 83 % 1009,3 hPa 0,0 l/m 14,6 km/h (3 Bft) W-SW 246 0 min 0,000 mm 0,0 UV-I 47 W/m 9,9 C 8,6 C 19,3 km/h (3 Bft) 93,62 %
19.03.2017 16:24 12,6 C 83 % 1009,3 hPa 0,0 l/m 15,4 km/h (3 Bft) W-SW 244 0 min 0,000 mm 0,0 UV-I 40 W/m 9,8 C 8,1 C 20,9 km/h (4 Bft) 93,62 %
19.03.2017 16:26 12,6 C 83 % 1009,4 hPa 0,0 l/m 17,7 km/h (3 Bft) SW 234 0 min 0,000 mm 0,0 UV-I 30 W/m 9,8 C 7,3 C 22,5 km/h (4 Bft) 97,87 %
19.03.2017 16:28 12,7 C 82 % 1009,3 hPa 0,0 l/m 16,8 km/h (3 Bft) W-SW 256 0 min 0,000 mm 0,0 UV-I 26 W/m 9,7 C 7,8 C 24,1 km/h (4 Bft) 95,74 %
19.03.2017 16:30 12,7 C 82 % 1009,3 hPa 0,0 l/m 16,2 km/h (3 Bft) W-NW 286 0 min 0,000 mm 0,0 UV-I 25 W/m 9,7 C 8,0 C 22,5 km/h (4 Bft) 95,12 %
19.03.2017 16:32 12,7 C 82 % 1009,4 hPa 0,0 l/m 15,9 km/h (3 Bft) SW 236 0 min 0,000 mm 0,0 UV-I 26 W/m 9,7 C 8,1 C 22,5 km/h (4 Bft) 96,23 %
19.03.2017 16:34 12,7 C 82 % 1009,3 hPa 0,0 l/m 12,6 km/h (3 Bft) W 281 0 min 0,000 mm 0,0 UV-I 29 W/m 9,7 C 9,4 C 19,3 km/h (3 Bft) 90,24 %
19.03.2017 16:36 12,6 C 83 % 1009,3 hPa 0,0 l/m 15,9 km/h (3 Bft) W-SW 242 0 min 0,000 mm 0,0 UV-I 31 W/m 9,8 C 8,0 C 25,7 km/h (4 Bft) 94,64 %
19.03.2017 16:38 12,6 C 83 % 1009,3 hPa 0,0 l/m 14,7 km/h (3 Bft) SW 222 0 min 0,000 mm 0,0 UV-I 32 W/m 9,8 C 8,4 C 22,5 km/h (4 Bft) 93,62 %
19.03.2017 16:40 12,6 C 83 % 1009,3 hPa 0,0 l/m 14,6 km/h (3 Bft) SW 227 0 min 0,000 mm 0,0 UV-I 39 W/m 9,8 C 8,4 C 22,5 km/h (4 Bft) 95,45 %
19.03.2017 16:42 12,6 C 83 % 1009,2 hPa 0,0 l/m 14,3 km/h (3 Bft) W-SW 252 0 min 0,000 mm 0,0 UV-I 46 W/m 9,8 C 8,6 C 19,3 km/h (3 Bft) 95,24 %
19.03.2017 16:44 12,6 C 83 % 1009,3 hPa 0,0 l/m 11,0 km/h (2 Bft) W-SW 238 0 min 0,000 mm 0,0 UV-I 53 W/m 9,8 C 10,0 C 16,1 km/h (3 Bft) 90,91 %
19.03.2017 16:46 12,6 C 84 % 1009,2 hPa 0,0 l/m 14,0 km/h (3 Bft) W-SW 257 0 min 0,000 mm 0,0 UV-I 60 W/m 10,0 C 8,7 C 19,3 km/h (3 Bft) 96,23 %
19.03.2017 16:48 12,6 C 84 % 1009,3 hPa 0,0 l/m 14,1 km/h (3 Bft) W-SW 240 0 min 0,000 mm 0,0 UV-I 65 W/m 10,0 C 8,6 C 19,3 km/h (3 Bft) 97,73 %
19.03.2017 16:50 12,6 C 84 % 1009,3 hPa 0,0 l/m 13,9 km/h (3 Bft) W-SW 239 0 min 0,000 mm 0,0 UV-I 66 W/m 10,0 C 8,7 C 20,9 km/h (4 Bft) 94,64 %
19.03.2017 16:52 12,6 C 84 % 1009,4 hPa 0,0 l/m 14,0 km/h (3 Bft) W 262 0 min 0,000 mm 0,0 UV-I 62 W/m 10,0 C 8,7 C 17,7 km/h (3 Bft) 94,74 %
19.03.2017 16:54 12,6 C 84 % 1009,3 hPa 0,0 l/m 13,9 km/h (3 Bft) W-SW 257 0 min 0,000 mm 0,0 UV-I 56 W/m 10,0 C 8,7 C 24,1 km/h (4 Bft) 96,43 %
19.03.2017 16:56 12,6 C 84 % 1009,4 hPa 0,0 l/m 12,5 km/h (3 Bft) W-SW 249 0 min 0,000 mm 0,0 UV-I 51 W/m 10,0 C 9,3 C 16,1 km/h (3 Bft) 96,88 %
19.03.2017 16:58 12,6 C 84 % 1009,3 hPa 0,0 l/m 11,3 km/h (2 Bft) W 261 0 min 0,000 mm 0,0 UV-I 49 W/m 10,0 C 9,8 C 17,7 km/h (3 Bft) 93,22 %
19.03.2017 17:00 12,6 C 84 % 1009,3 hPa 0,0 l/m 14,2 km/h (3 Bft) SW 228 0 min 0,051 mm 0,0 UV-I 50 W/m 10,0 C 8,6 C 19,3 km/h (3 Bft) 97,56 %
19.03.2017 17:02 12,6 C 84 % 1009,3 hPa 0,0 l/m 12,0 km/h (2 Bft) W-SW 245 0 min 0,000 mm 0,0 UV-I 53 W/m 10,0 C 9,5 C 16,1 km/h (3 Bft) 94,00 %
19.03.2017 17:04 12,6 C 84 % 1009,3 hPa 0,0 l/m 11,9 km/h (2 Bft) W-SW 237 0 min 0,000 mm 0,0 UV-I 53 W/m 10,0 C 9,6 C 16,1 km/h (3 Bft) 97,37 %
19.03.2017 17:06 12,6 C 84 % 1009,4 hPa 0,0 l/m 11,4 km/h (2 Bft) W-SW 252 0 min 0,000 mm 0,0 UV-I 53 W/m 10,0 C 9,8 C 16,1 km/h (3 Bft) 96,43 %
19.03.2017 17:08 12,6 C 84 % 1009,3 hPa 0,0 l/m 11,4 km/h (2 Bft) W 262 0 min 0,000 mm 0,0 UV-I 53 W/m 10,0 C 9,8 C 19,3 km/h (3 Bft) 97,87 %
19.03.2017 17:10 12,6 C 84 % 1009,3 hPa 0,0 l/m 10,9 km/h (2 Bft) W-SW 252 0 min 0,000 mm 0,0 UV-I 51 W/m 10,0 C 10,0 C 16,1 km/h (3 Bft) 100,00 %
19.03.2017 17:12 12,6 C 84 % 1009,3 hPa 0,0 l/m 10,2 km/h (2 Bft) W-SW 254 0 min 0,000 mm 0,0 UV-I 49 W/m 10,0 C 10,4 C 12,9 km/h (3 Bft) 95,74 %
19.03.2017 17:14 12,6 C 84 % 1009,3 hPa 0,0 l/m 11,4 km/h (2 Bft) W 261 0 min 0,000 mm 0,0 UV-I 47 W/m 10,0 C 9,8 C 19,3 km/h (3 Bft) 96,00 %
19.03.2017 17:16 12,6 C 84 % 1009,3 hPa 0,0 l/m 11,1 km/h (2 Bft) SW 223 0 min 0,000 mm 0,0 UV-I 45 W/m 10,0 C 9,9 C 16,1 km/h (3 Bft) 97,56 %
19.03.2017 17:18 12,6 C 84 % 1009,3 hPa 0,0 l/m 11,8 km/h (2 Bft) W-SW 252 0 min 0,000 mm 0,0 UV-I 44 W/m 10,0 C 9,6 C 17,7 km/h (3 Bft) 98,11 %
19.03.2017 17:20 12,6 C 84 % 1009,3 hPa 0,0 l/m 11,6 km/h (2 Bft) S-SW 209 0 min 0,000 mm 0,0 UV-I 42 W/m 10,0 C 9,7 C 19,3 km/h (3 Bft) 97,56 %
19.03.2017 17:22 12,6 C 84 % 1009,3 hPa 0,0 l/m 11,0 km/h (2 Bft) SW 224 0 min 0,000 mm 0,0 UV-I 40 W/m 10,0 C 10,0 C 17,7 km/h (3 Bft) 98,00 %
19.03.2017 17:24 12,6 C 84 % 1009,2 hPa 0,0 l/m 10,0 km/h (2 Bft) SW 218 0 min 0,000 mm 0,0 UV-I 38 W/m 10,0 C 10,5 C 14,5 km/h (3 Bft) 97,62 %
19.03.2017 17:26 12,6 C 84 % 1009,3 hPa 0,0 l/m 12,5 km/h (3 Bft) SW 234 0 min 0,000 mm 0,0 UV-I 35 W/m 10,0 C 9,3 C 22,5 km/h (4 Bft) 96,00 %
19.03.2017 17:28 12,6 C 84 % 1009,3 hPa 0,0 l/m 13,3 km/h (3 Bft) W-SW 254 0 min 0,000 mm 0,0 UV-I 33 W/m 10,0 C 9,0 C 19,3 km/h (3 Bft) 97,56 %
19.03.2017 17:30 12,6 C 84 % 1009,3 hPa 0,0 l/m 12,3 km/h (3 Bft) SW 231 0 min 0,000 mm 0,0 UV-I 29 W/m 10,0 C 9,4 C 17,7 km/h (3 Bft) 91,07 %
19.03.2017 17:32 12,6 C 84 % 1009,3 hPa 0,0 l/m 10,7 km/h (2 Bft) SW 217 0 min 0,000 mm 0,0 UV-I 26 W/m 10,0 C 10,1 C 17,7 km/h (3 Bft) 97,56 %
19.03.2017 17:34 12,6 C 84 % 1009,4 hPa 0,0 l/m 10,7 km/h (2 Bft) W-SW 240 0 min 0,000 mm 0,0 UV-I 24 W/m 10,0 C 10,1 C 16,1 km/h (3 Bft) 94,34 %
19.03.2017 17:36 12,6 C 84 % 1009,4 hPa 0,0 l/m 9,9 km/h (2 Bft) S-SW 211 0 min 0,000 mm 0,0 UV-I 22 W/m 10,0 C 10,5 C 16,1 km/h (3 Bft) 97,56 %
19.03.2017 17:38 12,6 C 84 % 1009,4 hPa 0,0 l/m 9,6 km/h (2 Bft) W-SW 246 0 min 0,000 mm 0,0 UV-I 21 W/m 10,0 C 10,7 C 14,5 km/h (3 Bft) 96,00 %
19.03.2017 17:40 12,6 C 84 % 1009,5 hPa 0,0 l/m 11,3 km/h (2 Bft) W-SW 257 0 min 0,000 mm 0,0 UV-I 21 W/m 10,0 C 9,8 C 16,1 km/h (3 Bft) 92,11 %
19.03.2017 17:42 12,5 C 84 % 1009,5 hPa 0,0 l/m 12,3 km/h (3 Bft) W 274 0 min 0,000 mm 0,0 UV-I 19 W/m 9,9 C 9,3 C 17,7 km/h (3 Bft) 94,64 %
19.03.2017 17:44 12,5 C 85 % 1009,5 hPa 0,0 l/m 10,1 km/h (2 Bft) W-SW 238 0 min 0,000 mm 0,0 UV-I 18 W/m 10,0 C 10,3 C 16,1 km/h (3 Bft) 96,55 %
19.03.2017 17:46 12,4 C 85 % 1009,6 hPa 0,0 l/m 8,9 km/h (2 Bft) SW 221 0 min 0,000 mm 0,0 UV-I 17 W/m 9,9 C 10,8 C 16,1 km/h (3 Bft) 98,53 %
19.03.2017 17:48 12,4 C 85 % 1009,5 hPa 0,0 l/m 12,1 km/h (2 Bft) W 260 0 min 0,000 mm 0,0 UV-I 16 W/m 9,9 C 9,2 C 19,3 km/h (3 Bft) 95,45 %
19.03.2017 17:50 12,4 C 85 % 1009,5 hPa 0,0 l/m 9,6 km/h (2 Bft) SW 225 0 min 0,000 mm 0,0 UV-I 13 W/m 9,9 C 10,5 C 14,5 km/h (3 Bft) 97,37 %
19.03.2017 17:52 12,4 C 85 % 1009,5 hPa 0,0 l/m 12,6 km/h (3 Bft) SW 229 0 min 0,000 mm 0,0 UV-I 12 W/m 9,9 C 9,0 C 19,3 km/h (3 Bft) 93,62 %
19.03.2017 17:54 12,5 C 85 % 1009,5 hPa 0,0 l/m 12,7 km/h (3 Bft) W 262 0 min 0,000 mm 0,0 UV-I 12 W/m 10,0 C 9,1 C 17,7 km/h (3 Bft) 100,00 %
19.03.2017 17:56 12,4 C 85 % 1009,5 hPa 0,0 l/m 11,5 km/h (2 Bft) W-SW 257 0 min 0,000 mm 0,0 UV-I 14 W/m 9,9 C 9,5 C 16,1 km/h (3 Bft) 92,59 %
19.03.2017 17:58 12,5 C 85 % 1009,5 hPa 0,0 l/m 11,9 km/h (2 Bft) SW 226 0 min 0,000 mm 0,0 UV-I 12 W/m 10,0 C 9,4 C 16,1 km/h (3 Bft) 98,57 %
19.03.2017 18:00 12,5 C 84 % 1009,5 hPa 0,0 l/m 15,8 km/h (3 Bft) W-SW 244 0 min 0,000 mm 0,0 UV-I 11 W/m 9,9 C 7,9 C 20,9 km/h (4 Bft) 97,73 %
19.03.2017 18:02 12,5 C 84 % 1009,5 hPa 0,0 l/m 12,4 km/h (3 Bft) W-SW 242 0 min 0,025 mm 0,0 UV-I 9 W/m 9,9 C 9,2 C 20,9 km/h (4 Bft) 95,12 %
19.03.2017 18:04 12,5 C 84 % 1009,5 hPa 0,0 l/m 10,7 km/h (2 Bft) W-SW 241 0 min 0,000 mm 0,0 UV-I 7 W/m 9,9 C 10,0 C 16,1 km/h (3 Bft) 100,00 %
19.03.2017 18:06 12,5 C 84 % 1009,5 hPa 0,0 l/m 11,7 km/h (2 Bft) W-SW 243 0 min 0,000 mm 0,0 UV-I 5 W/m 9,9 C 9,5 C 17,7 km/h (3 Bft) 97,87 %
19.03.2017 18:08 12,5 C 84 % 1009,5 hPa 0,0 l/m 14,1 km/h (3 Bft) W-SW 244 0 min 0,000 mm 0,0 UV-I 5 W/m 9,9 C 8,5 C 20,9 km/h (4 Bft) 100,00 %
19.03.2017 18:10 12,4 C 84 % 1009,5 hPa 0,0 l/m 14,2 km/h (3 Bft) W-SW 253 0 min 0,000 mm 0,0 UV-I 0 W/m 9,8 C 8,4 C 20,9 km/h (4 Bft) 97,87 %
19.03.2017 18:12 12,4 C 84 % 1009,5 hPa 0,0 l/m 11,7 km/h (2 Bft) W 269 0 min 0,000 mm 0,0 UV-I 0 W/m 9,8 C 9,4 C 16,1 km/h (3 Bft) 97,73 %
19.03.2017 18:14 12,4 C 85 % 1009,5 hPa 0,0 l/m 10,7 km/h (2 Bft) W-SW 257 0 min 0,000 mm 0,0 UV-I 0 W/m 9,9 C 9,9 C 16,1 km/h (3 Bft) 96,43 %
19.03.2017 18:16 12,4 C 85 % 1009,5 hPa 0,0 l/m 13,7 km/h (3 Bft) W-SW 241 0 min 0,000 mm 0,0 UV-I 0 W/m 9,9 C 8,6 C 19,3 km/h (3 Bft) 97,37 %
19.03.2017 18:18 12,3 C 85 % 1009,5 hPa 0,0 l/m 12,1 km/h (2 Bft) W-SW 250 0 min 0,000 mm 0,0 UV-I 0 W/m 9,9 C 9,1 C 17,7 km/h (3 Bft) 96,23 %
19.03.2017 18:20 12,3 C 85 % 1009,5 hPa 0,0 l/m 10,8 km/h (2 Bft) W-SW 249 0 min 0,000 mm 0,0 UV-I 0 W/m 9,9 C 9,7 C 16,1 km/h (3 Bft) 96,23 %
19.03.2017 18:22 12,3 C 85 % 1009,5 hPa 0,0 l/m 10,6 km/h (2 Bft) W-SW 250 0 min 0,000 mm 0,0 UV-I 0 W/m 9,9 C 9,8 C 16,1 km/h (3 Bft) 94,74 %
19.03.2017 18:24 12,3 C 85 % 1009,4 hPa 0,0 l/m 10,8 km/h (2 Bft) W-SW 244 0 min 0,000 mm 0,0 UV-I 0 W/m 9,9 C 9,7 C 14,5 km/h (3 Bft) 98,11 %
19.03.2017 18:26 12,3 C 85 % 1009,4 hPa 0,0 l/m 11,8 km/h (2 Bft) W-SW 237 0 min 0,000 mm 0,0 UV-I 0 W/m 9,9 C 9,3 C 20,9 km/h (4 Bft) 97,87 %
19.03.2017 18:28 12,3 C 85 % 1009,4 hPa 0,0 l/m 13,0 km/h (3 Bft) W-SW 247 0 min 0,000 mm 0,0 UV-I 0 W/m 9,9 C 8,7 C 17,7 km/h (3 Bft) 100,00 %
19.03.2017 18:30 12,3 C 85 % 1009,4 hPa 0,0 l/m 11,8 km/h (2 Bft) SW 236 0 min 0,000 mm 0,0 UV-I 0 W/m 9,9 C 9,3 C 17,7 km/h (3 Bft) 98,21 %
19.03.2017 18:32 12,2 C 85 % 1009,4 hPa 0,0 l/m 12,8 km/h (3 Bft) SW 234 0 min 0,000 mm 0,0 UV-I 0 W/m 9,8 C 8,7 C 17,7 km/h (3 Bft) 100,00 %
19.03.2017 18:34 12,2 C 85 % 1009,3 hPa 0,0 l/m 9,7 km/h (2 Bft) SW 223 0 min 0,000 mm 0,0 UV-I 0 W/m 9,8 C 10,2 C 14,5 km/h (3 Bft) 100,00 %
19.03.2017 18:36 12,2 C 86 % 1009,3 hPa 0,0 l/m 7,7 km/h (2 Bft) W-SW 242 0 min 0,000 mm 0,0 UV-I 0 W/m 9,9 C 11,3 C 9,7 km/h (2 Bft) 97,56 %
19.03.2017 18:38 12,1 C 86 % 1009,4 hPa 0,0 l/m 8,2 km/h (2 Bft) SW 218 0 min 0,000 mm 0,0 UV-I 0 W/m 9,8 C 10,9 C 12,9 km/h (3 Bft) 98,00 %
19.03.2017 18:40 12,1 C 86 % 1009,4 hPa 0,0 l/m 6,9 km/h (2 Bft) SW 232 0 min 0,000 mm 0,0 UV-I 0 W/m 9,8 C 11,8 C 12,9 km/h (3 Bft) 96,00 %
19.03.2017 18:42 12,0 C 86 % 1009,4 hPa 0,0 l/m 6,8 km/h (2 Bft) W-SW 244 0 min 0,000 mm 0,0 UV-I 0 W/m 9,7 C 11,7 C 9,7 km/h (2 Bft) 97,44 %
19.03.2017 18:44 11,9 C 87 % 1009,4 hPa 0,0 l/m 8,8 km/h (2 Bft) S-SW 207 0 min 0,000 mm 0,0 UV-I 0 W/m 9,8 C 10,4 C 14,5 km/h (3 Bft) 100,00 %
19.03.2017 18:46 11,9 C 87 % 1009,5 hPa 0,0 l/m 8,6 km/h (2 Bft) SW 217 0 min 0,000 mm 0,0 UV-I 0 W/m 9,8 C 10,5 C 12,9 km/h (3 Bft) 100,00 %
19.03.2017 18:48 11,9 C 87 % 1009,5 hPa 0,0 l/m 7,7 km/h (2 Bft) SW 235 0 min 0,000 mm 0,0 UV-I 0 W/m 9,8 C 11,0 C 11,3 km/h (2 Bft) 100,00 %
19.03.2017 18:50 11,8 C 87 % 1009,5 hPa 0,0 l/m 9,5 km/h (2 Bft) SW 224 0 min 0,000 mm 0,0 UV-I 0 W/m 9,7 C 9,9 C 12,9 km/h (3 Bft) 94,74 %
19.03.2017 18:52 11,8 C 87 % 1009,5 hPa 0,0 l/m 9,3 km/h (2 Bft) SW 219 0 min 0,000 mm 0,0 UV-I 0 W/m 9,7 C 10,0 C 14,5 km/h (3 Bft) 94,34 %
19.03.2017 18:54 11,7 C 88 % 1009,5 hPa 0,0 l/m 8,2 km/h (2 Bft) SW 226 0 min 0,000 mm 0,0 UV-I 0 W/m 9,8 C 10,5 C 12,9 km/h (3 Bft) 93,62 %
19.03.2017 18:56 11,7 C 88 % 1009,5 hPa 0,0 l/m 10,7 km/h (2 Bft) SW 224 0 min 0,000 mm 0,0 UV-I 0 W/m 9,8 C 9,1 C 16,1 km/h (3 Bft) 95,12 %
19.03.2017 18:58 11,7 C 88 % 1009,5 hPa 0,0 l/m 9,9 km/h (2 Bft) S-SW 207 0 min 0,000 mm 0,0 UV-I 0 W/m 9,8 C 9,5 C 12,9 km/h (3 Bft) 98,11 %
19.03.2017 19:00 11,7 C 88 % 1009,5 hPa 0,0 l/m 10,2 km/h (2 Bft) SW 215 0 min 0,000 mm 0,0 UV-I 0 W/m 9,8 C 9,4 C 12,9 km/h (3 Bft) 100,00 %
19.03.2017 19:02 11,7 C 88 % 1009,5 hPa 0,0 l/m 10,9 km/h (2 Bft) SW 235 0 min 0,026 mm 0,0 UV-I 0 W/m 9,8 C 9,0 C 16,1 km/h (3 Bft) 100,00 %
19.03.2017 19:04 11,7 C 88 % 1009,5 hPa 0,0 l/m 10,8 km/h (2 Bft) S-SW 207 0 min 0,000 mm 0,0 UV-I 0 W/m 9,8 C 9,1 C 16,1 km/h (3 Bft) 98,53 %
19.03.2017 19:06 11,7 C 88 % 1009,6 hPa 0,0 l/m 9,0 km/h (2 Bft) W-SW 250 0 min 0,000 mm 0,0 UV-I 0 W/m 9,8 C 10,0 C 12,9 km/h (3 Bft) 97,37 %
19.03.2017 19:08 11,6 C 88 % 1009,6 hPa 0,0 l/m 10,7 km/h (2 Bft) SW 227 0 min 0,000 mm 0,0 UV-I 0 W/m 9,7 C 9,0 C 12,9 km/h (3 Bft) 96,23 %
19.03.2017 19:10 11,6 C 89 % 1009,6 hPa 0,0 l/m 9,7 km/h (2 Bft) SW 227 0 min 0,000 mm 0,0 UV-I 0 W/m 9,8 C 9,5 C 16,1 km/h (3 Bft) 100,00 %
19.03.2017 19:12 11,6 C 89 % 1009,6 hPa 0,0 l/m 10,0 km/h (2 Bft) SW 230 0 min 0,000 mm 0,0 UV-I 0 W/m 9,8 C 9,4 C 14,5 km/h (3 Bft) 93,18 %
19.03.2017 19:14 11,6 C 89 % 1009,6 hPa 0,0 l/m 9,5 km/h (2 Bft) SW 223 0 min 0,000 mm 0,0 UV-I 0 W/m 9,8 C 9,6 C 12,9 km/h (3 Bft) 91,11 %
19.03.2017 19:16 11,6 C 89 % 1009,6 hPa 0,0 l/m 10,0 km/h (2 Bft) SW 232 0 min 0,000 mm 0,0 UV-I 0 W/m 9,8 C 9,4 C 16,1 km/h (3 Bft) 100,00 %
19.03.2017 19:18 11,6 C 89 % 1009,5 hPa 0,0 l/m 12,0 km/h (2 Bft) W 263 0 min 0,000 mm 0,0 UV-I 0 W/m 9,8 C 8,4 C 20,9 km/h (4 Bft) 95,74 %
19.03.2017 19:20 11,6 C 89 % 1009,5 hPa 0,0 l/m 10,2 km/h (2 Bft) SW 234 0 min 0,000 mm 0,0 UV-I 0 W/m 9,8 C 9,3 C 14,5 km/h (3 Bft) 92,31 %
19.03.2017 19:22 11,6 C 89 % 1009,4 hPa 0,0 l/m 10,5 km/h (2 Bft) S-SW 204 0 min 0,000 mm 0,0 UV-I 0 W/m 9,8 C 9,1 C 16,1 km/h (3 Bft) 97,73 %
19.03.2017 19:24 11,6 C 89 % 1009,4 hPa 0,0 l/m 8,0 km/h (2 Bft) W-SW 250 0 min 0,000 mm 0,0 UV-I 0 W/m 9,8 C 10,5 C 11,3 km/h (2 Bft) 88,68 %
19.03.2017 19:26 11,6 C 89 % 1009,4 hPa 0,0 l/m 10,2 km/h (2 Bft) W-SW 255 0 min 0,000 mm 0,0 UV-I 0 W/m 9,8 C 9,3 C 16,1 km/h (3 Bft) 93,62 %
19.03.2017 19:28 11,6 C 89 % 1009,4 hPa 0,0 l/m 13,1 km/h (3 Bft) W-SW 253 0 min 0,000 mm 0,0 UV-I 0 W/m 9,8 C 7,9 C 20,9 km/h (4 Bft) 96,23 %
19.03.2017 19:30 11,6 C 89 % 1009,4 hPa 0,0 l/m 13,0 km/h (3 Bft) W-SW 237 0 min 0,000 mm 0,0 UV-I 0 W/m 9,8 C 7,9 C 19,3 km/h (3 Bft) 95,12 %
19.03.2017 19:33 11,6 C 88 % 1009,5 hPa 0,0 l/m 12,1 km/h (2 Bft) W-SW 257 0 min 0,000 mm 0,0 UV-I 0 W/m 9,7 C 8,3 C 17,7 km/h (3 Bft) 94,29 %
19.03.2017 19:34 11,6 C 88 % 1009,5 hPa 0,0 l/m 11,7 km/h (2 Bft) SW 236 0 min 0,000 mm 0,0 UV-I 0 W/m 9,7 C 8,5 C 17,7 km/h (3 Bft) 96,67 %
19.03.2017 19:36 11,6 C 88 % 1009,5 hPa 0,0 l/m 9,4 km/h (2 Bft) SW 236 0 min 0,000 mm 0,0 UV-I 0 W/m 9,7 C 9,7 C 16,1 km/h (3 Bft) 95,12 %
19.03.2017 19:38 11,6 C 88 % 1009,5 hPa 0,0 l/m 11,1 km/h (2 Bft) SW 223 0 min 0,000 mm 0,0 UV-I 0 W/m 9,7 C 8,8 C 16,1 km/h (3 Bft) 98,00 %
19.03.2017 19:40 11,6 C 88 % 1009,5 hPa 0,0 l/m 9,6 km/h (2 Bft) SW 217 0 min 0,000 mm 0,0 UV-I 0 W/m 9,7 C 9,6 C 16,1 km/h (3 Bft) 95,12 %
19.03.2017 19:42 11,6 C 88 % 1009,6 hPa 0,0 l/m 8,4 km/h (2 Bft) SW 226 0 min 0,000 mm 0,0 UV-I 0 W/m 9,7 C 10,3 C 14,5 km/h (3 Bft) 97,56 %
19.03.2017 19:44 11,5 C 88 % 1009,6 hPa 0,0 l/m 7,6 km/h (2 Bft) SW 229 0 min 0,000 mm 0,0 UV-I 0 W/m 9,6 C 10,7 C 9,7 km/h (2 Bft) 96,77 %
19.03.2017 19:46 11,5 C 88 % 1009,6 hPa 0,0 l/m 10,3 km/h (2 Bft) SW 223 0 min 0,000 mm 0,0 UV-I 0 W/m 9,6 C 9,1 C 14,5 km/h (3 Bft) 94,74 %
19.03.2017 19:48 11,5 C 88 % 1009,5 hPa 0,0 l/m 10,6 km/h (2 Bft) SW 217 0 min 0,000 mm 0,0 UV-I 0 W/m 9,6 C 8,9 C 16,1 km/h (3 Bft) 96,00 %
19.03.2017 19:50 11,5 C 88 % 1009,5 hPa 0,0 l/m 9,4 km/h (2 Bft) SW 234 0 min 0,000 mm 0,0 UV-I 0 W/m 9,6 C 9,6 C 12,9 km/h (3 Bft) 95,74 %
19.03.2017 19:52 11,5 C 88 % 1009,5 hPa 0,0 l/m 10,0 km/h (2 Bft) SW 217 0 min 0,000 mm 0,0 UV-I 0 W/m 9,6 C 9,3 C 14,5 km/h (3 Bft) 95,74 %
19.03.2017 19:54 11,4 C 88 % 1009,5 hPa 0,0 l/m 10,1 km/h (2 Bft) W-SW 247 0 min 0,000 mm 0,0 UV-I 0 W/m 9,5 C 9,1 C 14,5 km/h (3 Bft) 97,44 %
19.03.2017 19:56 11,5 C 88 % 1009,5 hPa 0,0 l/m 9,1 km/h (2 Bft) W-SW 238 0 min 0,000 mm 0,0 UV-I 0 W/m 9,6 C 9,8 C 14,5 km/h (3 Bft) 98,11 %
19.03.2017 19:58 11,4 C 88 % 1009,5 hPa 0,0 l/m 11,3 km/h (2 Bft) W-SW 251 0 min 0,000 mm 0,0 UV-I 0 W/m 9,5 C 8,5 C 17,7 km/h (3 Bft) 98,08 %
19.03.2017 20:00 11,4 C 88 % 1009,6 hPa 0,0 l/m 12,5 km/h (3 Bft) W-SW 246 0 min 0,025 mm 0,0 UV-I 0 W/m 9,5 C 7,9 C 19,3 km/h (3 Bft) 100,00 %
19.03.2017 20:02 11,5 C 88 % 1009,6 hPa 0,0 l/m 9,9 km/h (2 Bft) SW 236 0 min 0,000 mm 0,0 UV-I 0 W/m 9,6 C 9,3 C 17,7 km/h (3 Bft) 96,00 %
19.03.2017 20:04 11,5 C 88 % 1009,6 hPa 0,0 l/m 13,0 km/h (3 Bft) W-SW 240 0 min 0,000 mm 0,0 UV-I 0 W/m 9,6 C 7,8 C 19,3 km/h (3 Bft) 100,00 %
19.03.2017 20:06 11,6 C 88 % 1009,5 hPa 0,0 l/m 11,2 km/h (2 Bft) SW 236 0 min 0,000 mm 0,0 UV-I 0 W/m 9,7 C 8,7 C 16,1 km/h (3 Bft) 98,39 %
19.03.2017 20:08 11,6 C 88 % 1009,6 hPa 0,0 l/m 14,5 km/h (3 Bft) SW 215 0 min 0,000 mm 0,0 UV-I 0 W/m 9,7 C 7,3 C 20,9 km/h (4 Bft) 97,73 %
19.03.2017 20:10 11,6 C 87 % 1009,5 hPa 0,0 l/m 11,0 km/h (2 Bft) SW 227 0 min 0,000 mm 0,0 UV-I 0 W/m 9,5 C 8,8 C 14,5 km/h (3 Bft) 100,00 %
19.03.2017 20:12 11,6 C 87 % 1009,5 hPa 0,0 l/m 11,9 km/h (2 Bft) W-SW 243 0 min 0,000 mm 0,0 UV-I 0 W/m 9,5 C 8,4 C 17,7 km/h (3 Bft) 90,91 %
19.03.2017 20:14 11,6 C 87 % 1009,5 hPa 0,0 l/m 9,9 km/h (2 Bft) SW 218 0 min 0,000 mm 0,0 UV-I 0 W/m 9,5 C 9,4 C 14,5 km/h (3 Bft) 100,00 %
19.03.2017 20:16 11,6 C 87 % 1009,5 hPa 0,0 l/m 11,1 km/h (2 Bft) SW 218 0 min 0,000 mm 0,0 UV-I 0 W/m 9,5 C 8,8 C 16,1 km/h (3 Bft) 100,00 %
19.03.2017 20:18 11,6 C 87 % 1009,5 hPa 0,0 l/m 12,3 km/h (3 Bft) SW 228 0 min 0,000 mm 0,0 UV-I 0 W/m 9,5 C 8,2 C 17,7 km/h (3 Bft) 100,00 %
19.03.2017 20:20 11,6 C 87 % 1009,5 hPa 0,0 l/m 11,2 km/h (2 Bft) W 259 0 min 0,000 mm 0,0 UV-I 0 W/m 9,5 C 8,7 C 16,1 km/h (3 Bft) 97,87 %
19.03.2017 20:22 11,6 C 87 % 1009,5 hPa 0,0 l/m 10,7 km/h (2 Bft) SW 234 0 min 0,000 mm 0,0 UV-I 0 W/m 9,5 C 9,0 C 14,5 km/h (3 Bft) 97,37 %
19.03.2017 20:24 11,6 C 87 % 1009,6 hPa 0,0 l/m 12,2 km/h (2 Bft) SW 232 0 min 0,000 mm 0,0 UV-I 0 W/m 9,5 C 8,3 C 20,9 km/h (4 Bft) 96,43 %
19.03.2017 20:26 11,6 C 87 % 1009,6 hPa 0,0 l/m 15,6 km/h (3 Bft) SW 221 0 min 0,000 mm 0,0 UV-I 0 W/m 9,5 C 6,8 C 20,9 km/h (4 Bft) 95,45 %
19.03.2017 20:28 11,6 C 87 % 1009,7 hPa 0,0 l/m 15,2 km/h (3 Bft) SW 223 0 min 0,000 mm 0,0 UV-I 0 W/m 9,5 C 7,0 C 20,9 km/h (4 Bft) 97,56 %
19.03.2017 20:30 11,5 C 87 % 1009,7 hPa 0,0 l/m 16,2 km/h (3 Bft) SW 234 0 min 0,000 mm 0,0 UV-I 0 W/m 9,4 C 6,5 C 22,5 km/h (4 Bft) 96,08 %
19.03.2017 20:32 11,5 C 87 % 1009,6 hPa 0,0 l/m 15,0 km/h (3 Bft) S 187 0 min 0,000 mm 0,0 UV-I 0 W/m 9,4 C 7,0 C 19,3 km/h (3 Bft) 96,00 %
19.03.2017 20:34 11,6 C 87 % 1009,5 hPa 0,0 l/m 12,7 km/h (3 Bft) SW 224 0 min 0,000 mm 0,0 UV-I 0 W/m 9,5 C 8,0 C 19,3 km/h (3 Bft) 95,74 %
19.03.2017 20:36 11,6 C 87 % 1009,4 hPa 0,0 l/m 12,5 km/h (3 Bft) W-SW 248 0 min 0,000 mm 0,0 UV-I 0 W/m 9,5 C 8,1 C 19,3 km/h (3 Bft) 97,62 %
19.03.2017 20:38 11,6 C 87 % 1009,4 hPa 0,0 l/m 13,1 km/h (3 Bft) W-SW 237 0 min 0,000 mm 0,0 UV-I 0 W/m 9,5 C 7,9 C 19,3 km/h (3 Bft) 96,36 %
19.03.2017 20:40 11,5 C 87 % 1009,5 hPa 0,0 l/m 16,7 km/h (3 Bft) SW 231 0 min 0,000 mm 0,0 UV-I 0 W/m 9,4 C 6,3 C 22,5 km/h (4 Bft) 97,62 %
19.03.2017 20:42 11,6 C 87 % 1009,6 hPa 0,0 l/m 17,4 km/h (3 Bft) W-SW 240 0 min 0,000 mm 0,0 UV-I 0 W/m 9,5 C 6,2 C 22,5 km/h (4 Bft) 97,44 %
19.03.2017 20:44 11,6 C 87 % 1009,5 hPa 0,0 l/m 15,7 km/h (3 Bft) W-SW 242 0 min 0,000 mm 0,0 UV-I 0 W/m 9,5 C 6,8 C 24,1 km/h (4 Bft) 96,43 %
19.03.2017 20:46 11,6 C 87 % 1009,5 hPa 0,0 l/m 11,7 km/h (2 Bft) SW 227 0 min 0,000 mm 0,0 UV-I 0 W/m 9,5 C 8,5 C 17,7 km/h (3 Bft) 98,11 %
19.03.2017 20:48 11,5 C 87 % 1009,5 hPa 0,0 l/m 14,6 km/h (3 Bft) SW 222 0 min 0,000 mm 0,0 UV-I 0 W/m 9,4 C 7,1 C 20,9 km/h (4 Bft) 97,73 %
19.03.2017 20:50 11,5 C 87 % 1009,5 hPa 0,0 l/m 14,9 km/h (3 Bft) SW 225 0 min 0,000 mm 0,0 UV-I 0 W/m 9,4 C 7,0 C 22,5 km/h (4 Bft) 92,11 %
19.03.2017 20:52 11,5 C 87 % 1009,5 hPa 0,0 l/m 13,5 km/h (3 Bft) W-SW 240 0 min 0,000 mm 0,0 UV-I 0 W/m 9,4 C 7,6 C 22,5 km/h (4 Bft) 97,78 %
19.03.2017 20:54 11,5 C 87 % 1009,4 hPa 0,0 l/m 14,3 km/h (3 Bft) SW 223 0 min 0,000 mm 0,0 UV-I 0 W/m 9,4 C 7,2 C 19,3 km/h (3 Bft) 96,23 %
19.03.2017 20:56 11,5 C 87 % 1009,4 hPa 0,0 l/m 13,2 km/h (3 Bft) SW 215 0 min 0,000 mm 0,0 UV-I 0 W/m 9,4 C 7,7 C 17,7 km/h (3 Bft) 96,55 %
19.03.2017 20:58 11,5 C 87 % 1009,4 hPa 0,0 l/m 14,5 km/h (3 Bft) SW 234 0 min 0,000 mm 0,0 UV-I 0 W/m 9,4 C 7,2 C 24,1 km/h (4 Bft) 97,06 %
19.03.2017 21:00 11,5 C 87 % 1009,4 hPa 0,0 l/m 14,6 km/h (3 Bft) SW 223 0 min 0,000 mm 0,0 UV-I 0 W/m 9,4 C 7,1 C 19,3 km/h (3 Bft) 92,68 %
19.03.2017 21:03 11,5 C 87 % 1009,4 hPa 0,0 l/m 15,3 km/h (3 Bft) W-SW 245 0 min 0,026 mm 0,0 UV-I 0 W/m 9,4 C 6,8 C 22,5 km/h (4 Bft) 97,50 %
19.03.2017 21:04 11,5 C 87 % 1009,4 hPa 0,0 l/m 13,8 km/h (3 Bft) W-SW 240 0 min 0,000 mm 0,0 UV-I 0 W/m 9,4 C 7,4 C 17,7 km/h (3 Bft) 92,86 %
19.03.2017 21:06 11,5 C 87 % 1009,3 hPa 0,0 l/m 16,6 km/h (3 Bft) W-SW 248 0 min 0,000 mm 0,0 UV-I 0 W/m 9,4 C 6,3 C 27,4 km/h (4 Bft) 100,00 %
19.03.2017 21:08 11,6 C 87 % 1009,4 hPa 0,0 l/m 13,9 km/h (3 Bft) SW 232 0 min 0,000 mm 0,0 UV-I 0 W/m 9,5 C 7,5 C 22,5 km/h (4 Bft) 92,00 %
19.03.2017 21:10 11,6 C 87 % 1009,4 hPa 0,0 l/m 16,3 km/h (3 Bft) W-SW 251 0 min 0,000 mm 0,0 UV-I 0 W/m 9,5 C 6,6 C 22,5 km/h (4 Bft) 95,45 %
19.03.2017 21:12 11,6 C 87 % 1009,3 hPa 0,0 l/m 14,6 km/h (3 Bft) S 186 0 min 0,000 mm 0,0 UV-I 0 W/m 9,5 C 7,2 C 27,4 km/h (4 Bft) 97,62 %
19.03.2017 21:14 11,7 C 87 % 1009,3 hPa 0,0 l/m 16,4 km/h (3 Bft) SW 227 0 min 0,000 mm 0,0 UV-I 0 W/m 9,6 C 6,7 C 22,5 km/h (4 Bft) 92,11 %
19.03.2017 21:16 11,7 C 87 % 1009,3 hPa 0,0 l/m 16,3 km/h (3 Bft) S-SW 202 0 min 0,000 mm 0,0 UV-I 0 W/m 9,6 C 6,7 C 25,7 km/h (4 Bft) 98,39 %
19.03.2017 21:18 11,7 C 86 % 1009,3 hPa 0,0 l/m 15,7 km/h (3 Bft) SW 223 0 min 0,000 mm 0,0 UV-I 0 W/m 9,4 C 6,9 C 24,1 km/h (4 Bft) 95,74 %
19.03.2017 21:20 11,8 C 86 % 1009,2 hPa 0,0 l/m 15,7 km/h (3 Bft) S 184 0 min 0,000 mm 0,0 UV-I 0 W/m 9,5 C 7,0 C 24,1 km/h (4 Bft) 94,74 %
19.03.2017 21:22 11,8 C 86 % 1009,3 hPa 0,0 l/m 18,5 km/h (3 Bft) SW 225 0 min 0,000 mm 0,0 UV-I 0 W/m 9,5 C 6,1 C 27,4 km/h (4 Bft) 94,92 %
19.03.2017 21:24 11,8 C 86 % 1009,3 hPa 0,0 l/m 20,0 km/h (4 Bft) SW 225 0 min 0,000 mm 0,0 UV-I 0 W/m 9,5 C 5,6 C 32,2 km/h (5 Bft) 95,12 %
19.03.2017 21:26 11,8 C 86 % 1009,3 hPa 0,0 l/m 16,0 km/h (3 Bft) SW 231 0 min 0,000 mm 0,0 UV-I 0 W/m 9,5 C 6,9 C 22,5 km/h (4 Bft) 96,23 %
19.03.2017 21:29 11,8 C 86 % 1009,2 hPa 0,0 l/m 17,8 km/h (3 Bft) S-SW 207 0 min 0,000 mm 0,0 UV-I 0 W/m 9,5 C 6,3 C 24,1 km/h (4 Bft) 92,19 %
19.03.2017 21:30 11,8 C 86 % 1009,2 hPa 0,0 l/m 16,9 km/h (3 Bft) SW 219 0 min 0,000 mm 0,0 UV-I 0 W/m 9,5 C 6,6 C 22,5 km/h (4 Bft) 95,83 %
19.03.2017 21:32 11,8 C 86 % 1009,2 hPa 0,0 l/m 19,0 km/h (3 Bft) SW 232 0 min 0,000 mm 0,0 UV-I 0 W/m 9,5 C 5,9 C 25,7 km/h (4 Bft) 94,34 %
19.03.2017 21:34 11,8 C 86 % 1009,2 hPa 0,0 l/m 16,7 km/h (3 Bft) SW 216 0 min 0,000 mm 0,0 UV-I 0 W/m 9,5 C 6,7 C 22,5 km/h (4 Bft) 97,56 %
19.03.2017 21:36 11,8 C 86 % 1009,2 hPa 0,0 l/m 19,6 km/h (3 Bft) SW 227 0 min 0,000 mm 0,0 UV-I 0 W/m 9,5 C 5,7 C 30,6 km/h (5 Bft) 95,45 %
19.03.2017 21:38 11,8 C 86 % 1009,1 hPa 0,0 l/m 20,7 km/h (4 Bft) W-SW 242 0 min 0,000 mm 0,0 UV-I 0 W/m 9,5 C 5,4 C 29,0 km/h (5 Bft) 96,00 %
19.03.2017 21:40 11,8 C 86 % 1009,2 hPa 0,0 l/m 19,5 km/h (3 Bft) SW 236 0 min 0,000 mm 0,0 UV-I 0 W/m 9,5 C 5,8 C 30,6 km/h (5 Bft) 96,00 %
19.03.2017 21:42 11,9 C 85 % 1009,2 hPa 0,0 l/m 17,8 km/h (3 Bft) SW 230 0 min 0,000 mm 0,0 UV-I 0 W/m 9,5 C 6,4 C 29,0 km/h (5 Bft) 94,74 %
19.03.2017 21:44 11,9 C 85 % 1009,2 hPa 0,0 l/m 17,6 km/h (3 Bft) W-SW 253 0 min 0,000 mm 0,0 UV-I 0 W/m 9,5 C 6,5 C 29,0 km/h (5 Bft) 96,43 %
19.03.2017 21:46 11,9 C 85 % 1009,2 hPa 0,0 l/m 15,8 km/h (3 Bft) W-SW 242 0 min 0,000 mm 0,0 UV-I 0 W/m 9,5 C 7,1 C 22,5 km/h (4 Bft) 97,37 %
19.03.2017 21:48 11,9 C 85 % 1009,2 hPa 0,0 l/m 17,0 km/h (3 Bft) S-SW 200 0 min 0,000 mm 0,0 UV-I 0 W/m 9,5 C 6,7 C 24,1 km/h (4 Bft) 95,45 %
19.03.2017 21:50 12,0 C 85 % 1009,2 hPa 0,0 l/m 18,6 km/h (3 Bft) W-SW 254 0 min 0,000 mm 0,0 UV-I 0 W/m 9,6 C 6,3 C 32,2 km/h (5 Bft) 95,24 %
19.03.2017 21:52 12,0 C 85 % 1009,2 hPa 0,0 l/m 15,0 km/h (3 Bft) W-SW 251 0 min 0,000 mm 0,0 UV-I 0 W/m 9,6 C 7,6 C 20,9 km/h (4 Bft) 98,11 %
19.03.2017 21:54 12,1 C 85 % 1009,2 hPa 0,0 l/m 16,9 km/h (3 Bft) SW 220 0 min 0,000 mm 0,0 UV-I 0 W/m 9,7 C 7,0 C 25,7 km/h (4 Bft) 94,55 %
19.03.2017 21:56 12,1 C 85 % 1009,2 hPa 0,0 l/m 18,1 km/h (3 Bft) S-SW 206 0 min 0,000 mm 0,0 UV-I 0 W/m 9,7 C 6,6 C 27,4 km/h (4 Bft) 97,44 %
19.03.2017 21:58 12,1 C 85 % 1009,2 hPa 0,0 l/m 18,3 km/h (3 Bft) SW 230 0 min 0,000 mm 0,0 UV-I 0 W/m 9,7 C 6,5 C 25,7 km/h (4 Bft) 96,00 %
19.03.2017 22:00 12,1 C 85 % 1009,3 hPa 0,0 l/m 18,3 km/h (3 Bft) SW 232 0 min 0,025 mm 0,0 UV-I 0 W/m 9,7 C 6,5 C 24,1 km/h (4 Bft) 96,43 %
19.03.2017 22:02 12,2 C 85 % 1009,3 hPa 0,0 l/m 18,6 km/h (3 Bft) W 265 0 min 0,000 mm 0,0 UV-I 0 W/m 9,8 C 6,6 C 29,0 km/h (5 Bft) 100,00 %
19.03.2017 22:04 12,2 C 85 % 1009,3 hPa 0,0 l/m 18,5 km/h (3 Bft) W-SW 238 0 min 0,000 mm 0,0 UV-I 0 W/m 9,8 C 6,6 C 25,7 km/h (4 Bft) 97,73 %
19.03.2017 22:06 12,2 C 85 % 1009,3 hPa 0,0 l/m 16,8 km/h (3 Bft) SW 227 0 min 0,000 mm 0,0 UV-I 0 W/m 9,8 C 7,1 C 24,1 km/h (4 Bft) 100,00 %
19.03.2017 22:09 12,3 C 84 % 1009,3 hPa 0,0 l/m 21,4 km/h (4 Bft) W-SW 250 0 min 0,000 mm 0,0 UV-I 0 W/m 9,7 C 5,9 C 29,0 km/h (5 Bft) 98,51 %
19.03.2017 22:10 12,3 C 84 % 1009,3 hPa 0,0 l/m 16,3 km/h (3 Bft) W 263 0 min 0,000 mm 0,0 UV-I 0 W/m 9,7 C 7,4 C 20,9 km/h (4 Bft) 96,30 %
19.03.2017 22:12 12,3 C 84 % 1009,3 hPa 0,0 l/m 21,9 km/h (4 Bft) W 259 0 min 0,000 mm 0,0 UV-I 0 W/m 9,7 C 5,7 C 29,0 km/h (5 Bft) 100,00 %
19.03.2017 22:14 12,3 C 84 % 1009,2 hPa 0,0 l/m 24,1 km/h (4 Bft) W-SW 238 0 min 0,000 mm 0,0 UV-I 0 W/m 9,7 C 5,2 C 30,6 km/h (5 Bft) 96,43 %
19.03.2017 22:16 12,3 C 84 % 1009,3 hPa 0,0 l/m 21,9 km/h (4 Bft) SW 234 0 min 0,000 mm 0,0 UV-I 0 W/m 9,7 C 5,7 C 32,2 km/h (5 Bft) 100,00 %
19.03.2017 22:18 12,3 C 84 % 1009,3 hPa 0,0 l/m 22,0 km/h (4 Bft) SW 230 0 min 0,000 mm 0,0 UV-I 0 W/m 9,7 C 5,7 C 30,6 km/h (5 Bft) 100,00 %
19.03.2017 22:20 12,4 C 83 % 1009,3 hPa 0,0 l/m 17,5 km/h (3 Bft) SW 226 0 min 0,000 mm 0,0 UV-I 0 W/m 9,6 C 7,2 C 27,4 km/h (4 Bft) 100,00 %
19.03.2017 22:22 12,4 C 83 % 1009,2 hPa 0,0 l/m 19,2 km/h (3 Bft) S-SW 206 0 min 0,000 mm 0,0 UV-I 0 W/m 9,6 C 6,6 C 29,0 km/h (5 Bft) 100,00 %
19.03.2017 22:24 12,4 C 83 % 1009,3 hPa 0,0 l/m 20,0 km/h (4 Bft) W-SW 255 0 min 0,000 mm 0,0 UV-I 0 W/m 9,6 C 6,4 C 27,4 km/h (4 Bft) 100,00 %
19.03.2017 22:26 12,4 C 83 % 1009,2 hPa 0,0 l/m 20,1 km/h (4 Bft) W 271 0 min 0,000 mm 0,0 UV-I 0 W/m 9,6 C 6,4 C 29,0 km/h (5 Bft) 97,73 %
19.03.2017 22:28 12,3 C 83 % 1009,2 hPa 0,0 l/m 23,4 km/h (4 Bft) SW 232 0 min 0,000 mm 0,0 UV-I 0 W/m 9,5 C 5,3 C 35,4 km/h (5 Bft) 100,00 %
19.03.2017 22:30 12,3 C 83 % 1009,2 hPa 0,0 l/m 19,0 km/h (3 Bft) W-SW 252 0 min 0,000 mm 0,0 UV-I 0 W/m 9,5 C 6,6 C 25,7 km/h (4 Bft) 97,44 %
19.03.2017 22:32 12,3 C 83 % 1009,2 hPa 0,0 l/m 22,0 km/h (4 Bft) SW 234 0 min 0,000 mm 0,0 UV-I 0 W/m 9,5 C 5,7 C 29,0 km/h (5 Bft) 97,87 %
19.03.2017 22:34 12,3 C 83 % 1009,2 hPa 0,0 l/m 21,8 km/h (4 Bft) W-SW 237 0 min 0,000 mm 0,0 UV-I 0 W/m 9,5 C 5,8 C 29,0 km/h (5 Bft) 98,21 %
19.03.2017 22:36 12,3 C 83 % 1009,2 hPa 0,0 l/m 24,2 km/h (4 Bft) SW 230 0 min 0,000 mm 0,0 UV-I 0 W/m 9,5 C 5,1 C 32,2 km/h (5 Bft) 98,08 %
19.03.2017 22:38 12,3 C 83 % 1009,2 hPa 0,0 l/m 21,7 km/h (4 Bft) SW 226 0 min 0,000 mm 0,0 UV-I 0 W/m 9,5 C 5,8 C 33,8 km/h (5 Bft) 100,00 %
19.03.2017 22:40 12,3 C 83 % 1009,3 hPa 0,0 l/m 20,0 km/h (4 Bft) SW 221 0 min 0,000 mm 0,0 UV-I 0 W/m 9,5 C 6,3 C 25,7 km/h (4 Bft) 97,73 %
19.03.2017 22:43 12,3 C 83 % 1009,3 hPa 0,0 l/m 19,6 km/h (3 Bft) W-SW 242 0 min 0,000 mm 0,0 UV-I 0 W/m 9,5 C 6,4 C 29,0 km/h (5 Bft) 98,63 %
19.03.2017 22:44 12,3 C 83 % 1009,3 hPa 0,0 l/m 17,5 km/h (3 Bft) W-SW 240 0 min 0,000 mm 0,0 UV-I 0 W/m 9,5 C 7,0 C 24,1 km/h (4 Bft) 100,00 %
19.03.2017 22:46 12,3 C 83 % 1009,3 hPa 0,0 l/m 20,0 km/h (4 Bft) W-SW 244 0 min 0,000 mm 0,0 UV-I 0 W/m 9,5 C 6,3 C 33,8 km/h (5 Bft) 97,87 %
19.03.2017 22:48 12,3 C 83 % 1009,4 hPa 0,0 l/m 17,0 km/h (3 Bft) W-SW 237 0 min 0,000 mm 0,0 UV-I 0 W/m 9,5 C 7,2 C 24,1 km/h (4 Bft) 100,00 %
19.03.2017 22:50 12,3 C 83 % 1009,3 hPa 0,0 l/m 19,2 km/h (3 Bft) W 264 0 min 0,000 mm 0,0 UV-I 0 W/m 9,5 C 6,5 C 30,6 km/h (5 Bft) 98,21 %
19.03.2017 22:53 12,2 C 83 % 1009,4 hPa 0,0 l/m 15,9 km/h (3 Bft) W-SW 257 0 min 0,000 mm 0,0 UV-I 0 W/m 9,4 C 7,5 C 27,4 km/h (4 Bft) 97,01 %
19.03.2017 22:54 12,2 C 83 % 1009,4 hPa 0,0 l/m 21,5 km/h (4 Bft) SW 226 0 min 0,000 mm 0,0 UV-I 0 W/m 9,4 C 5,7 C 29,0 km/h (5 Bft) 100,00 %
19.03.2017 22:56 12,2 C 83 % 1009,4 hPa 0,0 l/m 19,6 km/h (3 Bft) W 259 0 min 0,000 mm 0,0 UV-I 0 W/m 9,4 C 6,2 C 29,0 km/h (5 Bft) 98,00 %
19.03.2017 22:58 12,2 C 83 % 1009,5 hPa 0,0 l/m 18,0 km/h (3 Bft) W-SW 246 0 min 0,000 mm 0,0 UV-I 0 W/m 9,4 C 6,7 C 25,7 km/h (4 Bft) 97,37 %
19.03.2017 23:00 12,2 C 83 % 1009,4 hPa 0,0 l/m 18,0 km/h (3 Bft) W-SW 248 0 min 0,000 mm 0,0 UV-I 0 W/m 9,4 C 6,7 C 24,1 km/h (4 Bft) 98,21 %
19.03.2017 23:02 12,2 C 83 % 1009,4 hPa 0,0 l/m 21,2 km/h (4 Bft) W-SW 245 0 min 0,051 mm 0,0 UV-I 0 W/m 9,4 C 5,8 C 27,4 km/h (4 Bft) 100,00 %
19.03.2017 23:04 12,2 C 83 % 1009,4 hPa 0,0 l/m 20,0 km/h (4 Bft) SW 225 0 min 0,000 mm 0,0 UV-I 0 W/m 9,4 C 6,1 C 27,4 km/h (4 Bft) 97,73 %
19.03.2017 23:06 12,2 C 83 % 1009,4 hPa 0,0 l/m 18,9 km/h (3 Bft) W-SW 244 0 min 0,000 mm 0,0 UV-I 0 W/m 9,4 C 6,5 C 29,0 km/h (5 Bft) 97,56 %
19.03.2017 23:08 12,2 C 83 % 1009,3 hPa 0,0 l/m 18,3 km/h (3 Bft) SW 215 0 min 0,000 mm 0,0 UV-I 0 W/m 9,4 C 6,7 C 24,1 km/h (4 Bft) 98,11 %
19.03.2017 23:10 12,1 C 83 % 1009,4 hPa 0,0 l/m 15,7 km/h (3 Bft) S-SW 207 0 min 0,000 mm 0,0 UV-I 0 W/m 9,3 C 7,4 C 25,7 km/h (4 Bft) 97,62 %
19.03.2017 23:12 12,1 C 83 % 1009,4 hPa 0,0 l/m 17,4 km/h (3 Bft) SW 215 0 min 0,000 mm 0,0 UV-I 0 W/m 9,3 C 6,8 C 25,7 km/h (4 Bft) 100,00 %
19.03.2017 23:14 12,1 C 83 % 1009,3 hPa 0,0 l/m 16,2 km/h (3 Bft) W-SW 240 0 min 0,000 mm 0,0 UV-I 0 W/m 9,3 C 7,2 C 25,7 km/h (4 Bft) 100,00 %
19.03.2017 23:16 12,1 C 83 % 1009,3 hPa 0,0 l/m 20,0 km/h (4 Bft) S-SW 202 0 min 0,000 mm 0,0 UV-I 0 W/m 9,3 C 6,0 C 30,6 km/h (5 Bft) 95,74 %
19.03.2017 23:18 12,1 C 83 % 1009,4 hPa 0,0 l/m 18,3 km/h (3 Bft) W-SW 254 0 min 0,000 mm 0,0 UV-I 0 W/m 9,3 C 6,5 C 27,4 km/h (4 Bft) 100,00 %
19.03.2017 23:20 12,0 C 83 % 1009,4 hPa 0,0 l/m 15,7 km/h (3 Bft) SW 224 0 min 0,000 mm 0,0 UV-I 0 W/m 9,2 C 7,3 C 20,9 km/h (4 Bft) 97,56 %
19.03.2017 23:22 11,9 C 83 % 1009,4 hPa 0,0 l/m 15,4 km/h (3 Bft) W-SW 238 0 min 0,000 mm 0,0 UV-I 0 W/m 9,1 C 7,3 C 22,5 km/h (4 Bft) 97,73 %
19.03.2017 23:24 11,9 C 83 % 1009,4 hPa 0,0 l/m 16,2 km/h (3 Bft) SW 231 0 min 0,000 mm 0,0 UV-I 0 W/m 9,1 C 7,0 C 22,5 km/h (4 Bft) 96,77 %
19.03.2017 23:26 11,9 C 84 % 1009,4 hPa 0,0 l/m 18,4 km/h (3 Bft) W-SW 243 0 min 0,000 mm 0,0 UV-I 0 W/m 9,3 C 6,2 C 29,0 km/h (5 Bft) 95,12 %
19.03.2017 23:28 11,9 C 83 % 1009,4 hPa 0,0 l/m 17,1 km/h (3 Bft) SW 215 0 min 0,000 mm 0,0 UV-I 0 W/m 9,1 C 6,7 C 25,7 km/h (4 Bft) 100,00 %
19.03.2017 23:30 11,9 C 83 % 1009,3 hPa 0,0 l/m 20,7 km/h (4 Bft) SW 232 0 min 0,000 mm 0,0 UV-I 0 W/m 9,1 C 5,5 C 25,7 km/h (4 Bft) 98,21 %
19.03.2017 23:32 11,9 C 83 % 1009,3 hPa 0,0 l/m 18,5 km/h (3 Bft) W-SW 241 0 min 0,000 mm 0,0 UV-I 0 W/m 9,1 C 6,2 C 24,1 km/h (4 Bft) 100,00 %
19.03.2017 23:34 11,9 C 83 % 1009,3 hPa 0,0 l/m 19,8 km/h (3 Bft) SW 226 0 min 0,000 mm 0,0 UV-I 0 W/m 9,1 C 5,8 C 29,0 km/h (5 Bft) 95,77 %
19.03.2017 23:36 12,0 C 83 % 1009,3 hPa 0,0 l/m 18,8 km/h (3 Bft) SW 226 0 min 0,000 mm 0,0 UV-I 0 W/m 9,2 C 6,2 C 29,0 km/h (5 Bft) 95,74 %
19.03.2017 23:38 12,0 C 83 % 1009,3 hPa 0,0 l/m 20,2 km/h (4 Bft) W-SW 246 0 min 0,000 mm 0,0 UV-I 0 W/m 9,2 C 5,8 C 30,6 km/h (5 Bft) 97,56 %
19.03.2017 23:40 12,0 C 83 % 1009,3 hPa 0,0 l/m 20,7 km/h (4 Bft) SW 236 0 min 0,000 mm 0,0 UV-I 0 W/m 9,2 C 5,7 C 30,6 km/h (5 Bft) 92,45 %
19.03.2017 23:43 12,1 C 83 % 1009,3 hPa 0,0 l/m 20,6 km/h (4 Bft) W-SW 257 0 min 0,000 mm 0,0 UV-I 0 W/m 9,3 C 5,8 C 32,2 km/h (5 Bft) 95,77 %
19.03.2017 23:44 12,1 C 82 % 1009,3 hPa 0,0 l/m 19,1 km/h (3 Bft) W-SW 254 0 min 0,000 mm 0,0 UV-I 0 W/m 9,1 C 6,3 C 25,7 km/h (4 Bft) 100,00 %
19.03.2017 23:46 12,1 C 82 % 1009,3 hPa 0,0 l/m 18,1 km/h (3 Bft) SW 236 0 min 0,000 mm 0,0 UV-I 0 W/m 9,1 C 6,6 C 30,6 km/h (5 Bft) 94,34 %
19.03.2017 23:48 12,1 C 82 % 1009,3 hPa 0,0 l/m 20,0 km/h (4 Bft) SW 234 0 min 0,000 mm 0,0 UV-I 0 W/m 9,1 C 6,0 C 30,6 km/h (5 Bft) 95,45 %
19.03.2017 23:50 12,1 C 82 % 1009,3 hPa 0,0 l/m 24,4 km/h (4 Bft) W-SW 254 0 min 0,000 mm 0,0 UV-I 0 W/m 9,1 C 4,8 C 30,6 km/h (5 Bft) 91,11 %
19.03.2017 23:52 12,1 C 82 % 1009,3 hPa 0,0 l/m 19,5 km/h (3 Bft) SW 236 0 min 0,000 mm 0,0 UV-I 0 W/m 9,1 C 6,1 C 29,0 km/h (5 Bft) 94,23 %
19.03.2017 23:54 12,1 C 82 % 1009,3 hPa 0,0 l/m 16,8 km/h (3 Bft) W-SW 244 0 min 0,000 mm 0,0 UV-I 0 W/m 9,1 C 7,0 C 29,0 km/h (5 Bft) 97,44 %
19.03.2017 23:56 12,1 C 82 % 1009,4 hPa 0,0 l/m 20,6 km/h (4 Bft) W 260 0 min 0,000 mm 0,0 UV-I 0 W/m 9,1 C 5,8 C 32,2 km/h (5 Bft) 93,62 %
19.03.2017 23:58 12,1 C 82 % 1009,4 hPa 0,0 l/m 17,9 km/h (3 Bft) W-SW 246 0 min 0,000 mm 0,0 UV-I 0 W/m 9,1 C 6,7 C 29,0 km/h (5 Bft) 92,00 %
_ Min-Zeit 06:17 15:54 00:05 - 08:21 - - - - - - 06:00 00:00 08:21 06:26
Minimum _ 5,7 C 81 % 1007,4 hPa - 0,0 km/h (0 Bft) - - - - - - 5,2 C -1,3 C 0,0 km/h (0 Bft) 83,33 %
_ Max-Zeit 15:50 08:42 09:03 00:00 00:00 - - 00:00 16:02 13:24 13:24 15:26 18:40 00:00 00:00
Maximum _ 13,1 C 98 % 1012,2 hPa 0,2 l/m 32,0 km/h
W-SW (5 Bft)
- - 0 min 0,101 mm 1,4 UV-I 298 W/m 10,1 C 11,8 C 45,1 km/h
W (6 Bft)
100,00 %
Durchschnitt _ 9,2 C 91 % 1010,2 hPa #11,2 l/m 9,6 km/h (2 Bft) W-SW - #0 min. #0,686 mm 0,6 UV-I 74 W/m 7,8 C 6,7 C 14,5 km/h (3 Bft) 96,62 %